GFSWCAN_250_spd_000.txt.gz
Wind_Speed
85 85 79 79 78 74 74 72 70 68 67 67 67 64 62 58 56 54 57 57 54 52 54 53 54 56 56 58 54 54 53 56 59 59 54 53 49 53 52 58 63 60 64 67 68 72 71 75 77 80 82 82 86 84
88 83 80 79 78 78 77 76 77 74 74 70 70 69 69 68 64 59 60 60 59 58 55 59 57 64 62 61 63 61 62 64 61 61 58 55 56 56 59 56 62 64 69 69 76 72 77 79 81 83 87 88 87 92
94 88 84 85 84 84 80 79 77 78 76 78 77 75 73 72 73 71 69 68 70 66 60 59 64 68 65 67 67 67 67 71 69 67 63 65 66 67 65 63 68 71 78 80 79 76 80 82 87 90 89 91 94 97
101 99 92 90 88 86 88 88 85 82 83 81 82 83 80 78 78 80 82 80 78 73 71 65 69 73 76 75 75 75 76 76 74 78 79 76 76 72 68 71 73 80 86 88 80 83 82 91 95 95 93 97 104 107
105 107 101 94 92 90 89 87 89 89 88 87 88 86 86 85 84 83 85 87 85 85 80 79 78 79 83 84 82 82 83 85 85 81 81 82 83 86 79 77 81 90 94 95 89 91 95 88 95 100 100 104 109 112
112 108 102 100 98 99 96 94 92 90 90 90 89 90 91 93 93 90 90 87 92 93 94 84 79 79 83 87 89 93 93 94 94 88 87 88 90 95 91 84 85 99 98 100 97 96 97 97 93 97 104 110 113 115
118 117 113 109 106 103 101 100 99 96 94 94 95 96 95 97 97 98 95 93 96 101 104 96 86 81 86 90 91 94 100 98 98 96 94 95 98 105 100 92 96 106 106 105 106 107 104 106 110 115 118 120 122 125
125 126 122 117 115 113 107 109 110 108 108 106 101 97 100 102 101 101 101 98 100 104 104 105 96 90 93 96 97 101 103 104 100 101 100 104 103 106 103 107 108 110 112 109 112 115 118 118 120 123 127 128 129 134
126 124 121 115 112 111 108 107 110 111 108 105 108 110 107 108 111 112 110 110 109 109 109 105 102 106 105 108 110 111 112 110 108 105 109 115 111 114 115 117 120 120 121 118 118 120 124 127 130 132 133 137 139 144
131 133 132 125 122 119 116 113 115 116 109 109 112 113 115 112 113 114 115 114 115 115 115 112 110 111 115 119 120 118 116 116 118 112 117 117 117 123 127 127 127 125 123 126 128 129 131 133 137 137 139 144 148 145
136 137 132 133 130 127 125 122 120 120 119 117 113 117 118 118 116 117 121 120 121 120 120 120 118 121 123 122 120 124 127 130 129 125 129 129 125 127 128 132 131 132 132 132 135 136 138 142 144 148 147 147 142 136
134 137 138 133 132 133 134 132 134 132 128 127 128 128 126 126 125 120 122 124 125 125 128 130 130 128 126 130 133 131 126 128 130 126 126 128 132 131 131 134 135 138 139 140 142 144 145 143 134 121 120 119 117 118
117 122 128 130 128 129 129 129 129 130 128 128 128 133 132 135 133 127 126 131 137 139 138 137 137 139 140 137 132 133 132 133 130 126 125 127 124 125 127 127 130 136 136 137 138 134 121 117 113 110 112 112 111 108
104 107 110 114 119 123 123 121 120 123 123 127 127 123 122 124 129 130 132 134 137 139 136 131 130 131 129 130 132 131 128 126 126 125 125 124 122 112 112 118 121 116 109 106 105 104 104 104 103 102 102 97 93 92
98 99 101 103 105 107 109 112 112 113 113 113 114 114 118 119 123 127 127 126 122 124 126 125 124 123 122 123 120 118 120 119 119 122 120 107 104 102 103 103 99 98 98 98 96 94 92 88 87 86 87 85 83 82
94 96 96 96 96 97 98 100 101 103 103 102 101 103 105 109 112 113 114 114 115 113 111 111 112 112 112 110 108 109 108 105 107 103 100 97 95 95 92 88 88 88 87 86 85 84 83 85 84 84 81 80 80 82
90 90 88 88 88 90 92 93 94 94 93 93 93 96 97 99 100 101 102 102 101 101 102 103 102 102 98 95 94 98 100 94 92 91 91 91 90 88 86 82 82 83 83 84 83 81 81 82 82 81 81 79 79 78
78 79 81 81 82 83 84 84 84 86 85 87 90 95 96 96 97 100 99 97 96 97 96 93 90 86 85 87 91 92 90 88 86 86 88 93 92 88 85 80 81 80 81 81 79 78 78 80 79 78 78 76 74 71
67 70 71 73 74 75 75 75 75 76 79 82 85 87 88 91 96 98 97 96 94 90 84 81 79 85 90 89 89 87 88 87 83 84 88 89 84 82 82 78 78 78 78 78 76 75 75 75 74 73 71 69 66 63
59 59 60 62 63 64 65 66 68 68 71 75 76 76 75 81 84 85 85 84 80 78 79 81 85 86 86 82 84 82 81 83 81 81 82 82 78 76 76 74 74 73 73 72 72 71 69 67 66 64 62 61 59 57
52 54 54 56 58 57 56 59 61 64 65 67 70 69 71 72 75 78 76 71 70 74 78 82 79 77 74 70 72 75 74 77 76 72 72 73 72 70 69 68 68 66 65 64 63 61 59 59 58 58 56 55 53 52
49 49 50 50 49 48 51 56 58 59 60 63 65 64 63 65 67 66 62 63 65 72 74 67 63 61 63 66 69 69 68 69 66 65 62 60 63 61 59 59 59 58 56 55 55 55 54 54 53 52 51 50 48 48
44 44 42 41 40 43 50 55 55 58 57 58 58 57 58 57 58 56 55 61 66 66 52 54 57 58 58 60 61 63 61 58 59 56 52 53 54 53 52 53 53 52 51 51 50 50 49 49 48 47 47 47 47 48
35 33 33 36 41 45 51 52 52 51 49 52 51 50 53 54 54 53 56 62 56 50 53 50 49 51 51 51 53 54 53 51 50 48 47 49 49 48 49 48 48 47 47 47 47 46 46 45 45 45 45 45 45 45
27 32 36 43 45 47 47 46 44 42 41 38 41 47 52 50 47 49 54 49 46 48 45 46 46 46 46 46 45 46 45 46 47 47 46 46 45 44 44 43 43 44 44 43 43 43 43 43 43 43 43 43 43 43
34 38 43 43 36 32 32 32 36 39 40 43 45 45 42 42 45 45 38 38 40 41 42 42 42 41 41 43 44 43 43 44 44 44 43 41 40 41 41 41 40 40 40 40 41 42 42 41 42 42 42 42 42 42
38 35 28 23 23 29 35 40 40 39 39 38 35 35 38 39 38 35 38 37 37 38 40 40 39 40 41 42 43 42 42 42 42 42 41 40 39 38 37 38 38 38 39 40 40 40 40 40 41 41 41 41 41 40
27 25 27 30 34 34 34 34 33 33 32 33 35 34 35 37 38 37 38 36 37 37 38 39 40 40 39 39 39 39 38 38 37 37 37 37 36 36 36 36 36 37 38 38 39 39 39 40 40 40 39 40 40 39
25 28 30 29 28 28 28 29 31 32 33 33 33 32 34 35 37 36 35 35 35 35 36 36 37 36 35 35 34 34 34 34 34 35 34 34 35 35 35 36 37 38 38 38 38 39 39 39 39 39 39 39 39 39
23 25 25 25 26 26 26 29 26 27 29 30 30 29 29 32 32 32 32 33 33 33 32 32 33 33 33 33 32 32 32 32 32 33 34 35 36 36 35 36 36 36 37 37 37 38 38 38 38 38 38 38 39 39
19 20 21 22 23 24 25 24 23 26 27 25 24 25 26 28 27 27 28 30 29 28 28 29 28 29 30 31 31 32 32 33 33 34 34 34 34 35 35 35 34 35 36 37 37 37 37 37 37 38 38 38 39 38
18 18 18 19 20 23 23 22 22 23 23 24 24 25 25 26 26 25 27 28 26 27 27 28 27 28 29 30 31 32 33 33 33 33 33 33 33 34 35 35 36 36 36 36 36 37 38 38 39 39 39 39 39 38
17 17 18 20 21 22 21 21 21 21 23 25 24 23 24 25 25 25 26 25 26 26 26 27 27 28 30 31 31 32 33 33 33 34 34 34 34 34 34 34 35 35 36 36 37 37 38 39 39 38 37 36 34 33

GFSWCAN_250_spd_003.txt.gz
Wind_Speed
83 84 84 78 76 73 70 67 62 62 60 57 56 54 52 54 53 54 56 56 53 49 52 54 57 59 58 57 54 52 52 54 57 56 56 59 56 60 62 67 69 69 69 70 73 77 75 79 80 84 83 87 93 90
90 88 88 81 76 74 72 70 66 64 62 59 57 60 60 57 56 57 62 61 61 57 56 56 56 62 60 61 62 62 61 62 60 62 64 63 64 67 68 67 75 74 80 79 85 83 85 86 88 90 97 99 99 102
94 91 91 87 82 79 76 74 72 70 68 66 63 62 63 62 61 61 62 64 67 64 61 62 64 70 69 65 64 68 69 74 70 71 72 73 75 77 79 77 77 77 85 87 90 88 90 91 95 100 103 105 104 107
102 97 94 93 89 86 82 79 77 75 74 73 70 69 68 69 70 69 69 71 72 71 70 65 68 71 73 74 73 73 73 77 79 82 82 79 79 80 81 85 87 91 95 100 93 93 97 99 104 106 108 108 110 113
108 103 98 96 95 91 86 85 82 81 80 80 79 79 77 75 76 78 79 79 80 82 78 76 73 76 81 83 83 82 81 83 86 86 85 85 86 93 86 84 86 96 102 104 102 101 105 100 107 114 114 116 119 124
110 109 106 100 96 93 92 89 85 85 85 85 84 81 82 82 84 87 86 83 86 88 90 84 83 82 84 87 90 93 92 91 95 95 92 92 95 101 97 88 91 106 108 110 110 111 112 113 115 118 123 126 128 130
114 114 110 108 103 98 98 95 91 87 87 85 85 86 86 86 89 90 89 85 89 93 96 94 89 86 87 93 97 101 104 104 105 104 101 104 105 110 106 99 110 117 117 117 120 122 122 123 126 128 131 132 134 139
115 112 113 113 111 105 100 99 100 97 95 92 90 90 92 92 93 93 92 91 93 97 99 101 92 89 92 97 101 104 107 109 110 109 105 107 106 112 108 112 114 116 121 121 123 126 131 133 134 138 138 138 137 136
128 124 120 120 115 113 109 106 104 104 102 100 99 97 97 96 97 97 100 101 103 104 106 105 103 104 105 105 107 109 107 107 112 110 108 116 108 111 116 117 117 120 122 126 127 130 129 130 129 130 129 126 124 120
130 128 124 124 123 119 117 113 109 108 107 107 108 108 108 106 105 103 102 106 109 108 111 115 114 116 112 111 109 112 111 112 114 106 111 114 113 121 124 127 129 126 127 128 127 124 126 127 123 116 114 116 111 112
134 132 127 125 123 121 119 118 118 115 115 112 112 113 115 113 113 114 115 113 114 115 113 113 115 118 117 114 117 119 120 125 126 120 127 126 124 130 132 131 130 125 120 120 122 123 117 110 104 103 99 97 97 99
126 124 124 129 131 125 124 124 122 124 121 119 118 117 117 119 120 122 122 121 118 117 116 118 117 118 120 123 125 126 128 133 135 133 131 133 136 135 131 128 122 121 121 119 115 109 105 102 98 94 90 88 87 88
122 123 126 124 124 126 125 127 127 124 125 127 128 128 128 128 126 120 120 122 126 128 127 126 126 124 125 128 134 136 135 131 128 126 128 128 133 127 120 118 118 113 107 101 97 98 97 92 89 89 87 86 85 85
112 113 117 120 123 124 124 125 124 128 127 126 125 126 127 126 125 127 130 132 134 131 132 132 132 133 137 137 132 130 130 131 132 131 128 133 127 115 114 111 108 102 97 95 93 90 87 84 85 84 84 85 85 84
95 104 113 115 116 118 123 125 127 127 131 134 135 131 126 128 133 136 140 140 135 134 134 133 130 125 126 126 126 125 123 120 120 121 122 121 115 111 109 104 99 93 93 90 90 88 85 84 84 84 84 83 81 81
86 91 96 99 101 103 106 110 115 120 125 132 131 130 134 137 139 138 128 126 129 127 123 122 120 117 117 117 115 114 115 111 115 112 107 106 103 102 103 103 99 94 92 90 88 87 87 85 83 82 80 79 78 76
83 85 87 89 92 95 97 99 102 103 104 103 106 111 113 115 117 117 114 113 114 116 116 114 111 112 108 103 106 107 109 106 104 103 101 100 99 97 100 100 95 91 89 89 88 86 85 84 81 79 77 75 74 72
82 84 85 87 89 90 91 93 94 94 93 94 97 100 103 104 104 105 105 104 105 104 104 102 100 100 101 103 104 104 103 99 98 97 94 96 97 97 96 92 89 88 87 86 85 83 81 79 77 75 72 70 69 68
75 79 81 83 85 86 87 87 87 88 89 91 93 97 98 98 100 100 100 100 97 95 95 95 96 98 101 101 100 96 94 91 87 84 83 86 88 87 89 88 84 81 79 77 77 76 74 72 70 67 66 64 63 61
66 68 71 73 74 76 77 79 81 81 81 85 88 87 87 90 91 92 91 89 88 87 86 86 89 88 89 84 85 82 79 80 81 79 77 82 82 80 77 74 72 72 71 70 69 68 66 66 64 63 60 58 57 55
58 60 62 63 65 66 67 69 70 71 73 74 77 77 76 79 81 81 79 76 72 72 77 80 76 75 75 72 74 74 72 74 71 70 67 71 75 67 66 67 66 66 65 65 64 63 61 59 59 57 55 52 52 51
55 56 56 56 57 58 59 61 63 65 65 67 70 68 67 69 69 68 65 64 65 72 74 68 64 65 64 65 66 67 65 61 61 63 61 61 64 65 64 62 62 60 58 58 57 57 56 55 53 51 50 48 48 47
47 48 47 48 49 50 54 57 58 61 58 59 59 57 58 58 58 58 54 60 64 69 61 56 57 58 58 61 61 61 58 57 60 60 58 57 56 56 56 56 55 55 55 55 54 52 50 48 47 46 45 45 45 45
41 40 41 42 45 49 55 56 55 53 49 49 51 51 54 54 53 52 54 61 61 56 53 53 54 56 57 55 55 55 54 54 55 54 52 52 52 52 51 51 50 50 50 48 47 46 45 44 43 43 43 43 43 44
33 34 39 45 47 51 51 50 47 45 43 41 44 49 51 48 48 50 56 51 48 49 48 48 49 49 50 50 48 47 46 46 47 47 46 46 47 47 48 47 45 45 44 44 43 42 42 41 41 41 41 41 42 42
35 42 46 48 46 41 40 38 38 39 39 41 46 46 46 46 46 49 46 43 47 45 44 44 45 44 44 43 43 40 40 41 42 42 41 40 41 42 41 40 39 40 40 40 40 40 39 39 39 40 40 41 42 42
42 43 38 34 31 29 30 37 40 43 44 42 38 38 39 41 41 40 40 41 42 42 41 40 39 39 38 38 39 39 38 38 38 38 38 37 38 38 37 36 36 37 37 37 38 39 39 39 40 40 41 41 41 41
33 30 29 27 30 36 37 37 37 37 36 34 36 36 37 35 37 38 39 37 37 37 37 38 38 38 38 39 38 38 37 36 36 36 36 36 36 35 35 35 36 36 36 37 38 38 38 39 39 40 40 41 41 41
29 27 31 32 33 33 31 30 31 32 35 36 35 34 34 33 36 36 35 36 36 36 36 36 37 37 37 37 37 37 36 35 35 34 34 35 35 34 34 35 36 36 37 37 37 38 38 38 39 40 40 41 41 41
27 29 28 28 29 28 27 31 29 29 30 30 31 32 31 30 32 32 33 33 35 35 33 33 33 34 35 34 34 35 35 35 34 33 33 33 34 34 34 34 35 36 36 37 37 37 38 39 40 40 40 40 40 40
23 24 25 26 28 29 29 27 26 27 29 29 29 29 28 30 29 29 30 32 33 32 31 32 33 33 33 33 33 34 34 34 34 33 33 33 33 34 34 35 35 36 37 38 39 39 38 38 38 38 39 39 40 41
23 24 24 23 23 25 25 25 24 24 24 26 27 27 26 28 29 28 29 31 30 29 30 31 32 32 32 33 33 33 33 33 32 32 33 33 34 35 36 37 37 38 38 38 37 38 38 37 38 39 39 39 38 37
20 20 21 22 23 23 24 24 23 24 24 26 27 26 27 28 28 26 28 29 29 29 29 29 29 31 32 33 33 34 34 34 34 34 34 34 35 35 36 36 36 36 36 37 37 37 38 37 37 36 36 36 36 36

GFSWCAN_250_spd_006.txt.gz
Wind_Speed
89 83 82 76 73 69 66 65 62 57 55 56 54 53 54 51 53 51 47 47 46 45 47 47 49 50 51 51 52 51 51 53 54 56 55 55 53 56 59 63 66 68 72 75 78 81 78 84 87 90 93 92 98 97
93 89 88 81 80 73 71 68 64 63 58 57 61 59 57 55 54 53 56 53 49 48 45 48 49 54 55 55 56 57 58 61 60 63 62 60 60 62 65 66 74 76 82 82 86 89 89 89 93 94 100 103 103 107
91 90 85 83 85 81 79 75 70 69 67 64 64 64 62 60 58 56 56 57 57 55 53 52 54 58 58 62 64 66 68 70 70 73 72 69 71 75 76 76 79 81 88 88 87 90 95 94 98 105 107 109 112 116
102 95 92 89 88 85 84 81 79 79 75 70 69 69 68 66 65 65 62 62 61 60 60 59 64 64 68 69 69 72 74 76 79 82 80 79 81 81 78 81 84 92 97 103 95 97 100 101 110 113 116 116 116 117
105 99 94 92 95 96 91 87 86 80 81 80 77 76 73 72 73 71 70 69 68 71 70 68 67 70 74 76 77 80 82 84 86 86 86 85 88 94 86 83 87 99 105 108 103 104 110 108 109 110 114 116 118 122
109 105 99 98 94 94 93 92 87 86 84 84 84 83 82 79 79 81 77 74 78 80 82 76 75 75 78 81 82 85 88 89 89 89 89 91 92 97 91 84 95 109 108 109 112 107 106 112 116 119 127 132 130 129
114 111 106 101 100 98 97 96 93 89 89 88 89 86 87 86 86 86 81 80 85 85 87 87 81 78 80 84 90 92 93 92 93 94 92 96 97 103 102 99 105 109 109 109 111 113 117 122 127 130 130 131 127 124
117 116 112 110 109 105 102 102 101 98 95 92 92 93 91 91 91 91 89 87 89 95 96 96 90 86 86 87 92 94 95 100 101 99 98 103 105 108 111 113 112 112 115 118 120 121 128 133 136 130 128 122 120 121
125 120 117 118 110 111 112 108 107 104 99 100 96 95 97 97 97 94 94 95 95 97 97 94 92 91 93 96 96 98 100 104 106 100 101 108 105 111 118 115 115 117 120 122 124 127 137 131 133 127 123 120 114 106
122 120 119 123 121 115 114 115 113 110 106 102 104 105 101 97 98 101 103 105 104 101 99 99 99 104 104 105 105 107 111 112 115 112 116 116 116 117 118 118 124 125 125 126 132 136 131 129 121 119 113 106 98 94
132 130 123 125 124 119 118 118 115 115 109 104 105 107 106 105 107 107 108 107 107 109 108 108 111 113 113 114 115 116 118 120 121 117 123 123 118 122 123 124 126 130 129 136 130 129 127 124 118 110 102 97 94 94
129 130 129 128 125 125 121 122 122 118 117 117 113 111 113 112 112 113 112 115 118 118 115 116 118 119 118 119 122 123 123 124 123 125 130 125 130 130 128 129 132 131 132 133 129 123 116 112 109 100 95 94 93 94
128 129 126 123 123 122 121 124 124 124 120 125 123 122 117 119 120 118 118 119 122 125 126 126 124 126 125 125 126 129 133 136 136 131 129 129 139 133 130 124 122 123 122 124 117 109 107 104 102 99 96 96 97 97
110 113 111 111 112 116 119 123 127 130 129 130 132 131 126 126 128 126 129 128 125 124 125 126 128 128 129 132 136 134 129 129 129 128 132 139 135 126 123 119 116 115 115 110 106 103 102 99 96 95 96 94 93 93
94 97 99 99 105 108 109 113 119 126 129 131 133 132 131 130 133 136 136 133 129 128 125 125 126 124 124 128 129 128 130 131 135 141 137 131 124 119 118 114 111 108 109 106 105 101 99 96 94 92 92 92 91 87
84 85 89 98 102 103 105 105 105 112 116 123 124 124 127 127 130 132 129 128 125 121 121 123 125 124 124 126 125 128 132 131 130 125 118 116 117 113 108 109 107 107 105 105 102 96 95 93 91 90 88 86 81 77
78 80 83 88 92 95 96 97 103 107 104 107 112 110 111 115 119 121 120 117 116 117 121 123 121 121 119 117 122 118 115 111 112 109 109 108 108 107 106 105 105 103 99 96 92 90 89 88 87 84 80 76 73 71
76 77 77 80 82 85 88 90 91 91 91 93 96 108 116 115 112 115 115 108 105 109 111 112 112 110 108 109 111 106 103 103 103 101 98 96 99 101 101 100 98 96 93 89 86 85 83 81 79 76 72 70 68 67
76 77 78 80 81 82 83 84 84 85 87 90 92 95 97 96 98 99 99 99 99 101 101 102 102 104 106 105 103 100 99 97 94 93 92 92 94 93 90 89 87 85 83 79 77 76 73 73 69 67 66 65 63 62
70 73 75 77 78 80 82 83 85 85 86 87 89 90 90 93 94 96 97 97 98 96 95 97 98 97 95 93 94 93 91 90 89 85 83 84 85 83 80 78 76 75 73 70 68 67 66 65 63 62 60 59 59 57
65 67 70 72 73 75 75 77 78 79 81 82 85 87 86 89 90 89 87 84 81 83 89 89 87 85 83 82 83 81 79 81 78 77 76 71 70 72 72 69 66 65 65 64 61 61 60 59 57 57 56 55 54 52
57 59 61 63 65 67 68 69 70 72 73 76 79 79 78 79 78 77 72 73 76 81 79 76 73 71 71 73 73 73 73 71 69 69 66 63 64 64 62 61 59 58 57 56 55 55 55 54 54 53 52 50 50 49
50 50 51 52 52 54 56 58 61 64 65 67 68 65 65 64 64 62 60 66 70 73 68 64 63 62 60 63 64 65 63 60 62 61 59 58 58 55 55 54 51 52 51 50 50 50 50 50 50 49 48 47 47 47
43 43 44 46 49 51 53 56 56 56 54 53 53 52 54 55 53 53 58 65 64 59 57 55 53 53 55 56 57 55 54 54 52 52 50 51 51 49 48 48 48 47 47 47 47 47 46 45 45 45 45 45 45 45
35 36 39 44 47 49 50 50 47 44 44 43 44 48 52 48 47 51 58 56 50 48 46 46 49 48 48 50 49 47 46 45 45 45 43 45 46 46 47 48 49 48 47 46 45 44 43 41 41 42 42 43 44 44
32 36 44 46 44 40 39 39 39 38 38 41 45 48 45 44 45 51 47 41 45 45 45 46 43 41 41 40 42 41 40 40 41 42 42 43 44 45 46 47 46 45 44 42 42 41 40 40 40 41 42 43 44 45
38 42 41 37 33 32 32 33 36 40 42 42 38 37 38 39 41 39 37 39 41 40 40 40 39 37 36 36 38 40 40 40 40 40 41 42 43 43 43 43 42 41 41 40 40 40 40 40 41 42 43 44 44 44
34 31 32 28 29 31 34 36 36 36 33 31 35 36 35 34 35 34 36 37 36 35 37 37 37 36 36 37 38 39 39 40 40 39 39 39 40 40 40 40 40 40 41 41 40 40 40 40 41 42 42 43 43 43
28 27 27 31 31 30 31 28 30 30 30 34 35 34 34 33 32 33 35 35 35 35 36 35 34 34 35 37 37 38 40 40 40 39 39 38 38 38 39 38 38 39 39 39 39 39 39 39 40 40 41 42 43 43
25 27 28 27 29 28 24 29 29 28 30 32 32 32 31 30 32 33 33 34 36 38 37 35 34 36 37 37 37 37 38 39 39 38 37 36 37 38 38 38 37 37 37 37 37 37 38 39 40 40 41 41 41 42
24 25 25 26 27 25 27 28 26 26 27 28 30 32 30 30 32 32 32 35 36 35 35 35 37 37 37 37 37 37 37 37 37 37 36 36 36 37 37 37 37 37 37 38 38 38 38 37 38 39 40 41 41 41
24 26 26 27 26 27 26 27 29 28 28 28 28 31 31 32 31 30 32 36 36 35 35 35 37 37 37 37 36 37 36 35 35 35 35 36 36 37 37 37 37 37 37 37 38 38 38 39 39 39 39 40 40 39
24 24 26 26 26 26 27 30 29 28 28 29 30 31 32 32 32 30 31 34 35 35 34 34 34 34 34 34 35 36 36 36 37 37 37 36 36 35 35 35 35 36 37 38 38 39 40 40 40 40 39 38 38 38

GFSWCAN_250_spd_009.txt.gz
Wind_Speed
83 83 76 73 74 73 70 66 62 63 59 58 55 54 51 48 45 47 48 46 44 44 45 43 45 45 46 44 44 44 45 49 49 50 50 49 51 55 58 60 65 66 71 72 73 76 81 87 87 93 93 90 103 103
88 87 83 77 76 74 74 74 70 66 63 59 56 55 57 52 49 50 49 52 50 49 48 50 51 52 53 50 48 51 51 50 52 56 59 59 61 63 67 67 71 74 79 79 84 80 86 89 92 94 101 106 109 110
98 91 91 85 79 78 76 75 74 71 69 67 65 64 60 59 56 54 54 57 57 54 51 50 55 58 58 59 59 60 63 65 66 68 68 68 69 71 71 72 77 80 83 85 87 86 85 89 95 102 108 111 110 112
99 96 92 92 86 80 77 77 75 75 72 70 70 68 69 67 65 61 60 61 61 62 55 53 58 60 63 64 65 67 69 71 73 76 74 73 74 74 75 77 79 82 86 88 84 91 92 94 100 104 109 114 112 115
107 99 97 93 97 88 84 83 82 78 75 72 72 73 73 69 70 68 67 70 69 71 67 64 65 69 69 71 72 74 75 77 78 79 79 78 81 85 81 80 80 89 94 96 90 96 103 102 108 114 121 123 121 119
111 108 101 97 95 96 92 91 88 86 80 79 78 79 79 77 76 78 72 73 77 79 77 72 70 73 77 79 81 81 81 81 84 83 82 84 87 92 87 83 89 99 101 105 108 110 113 114 117 123 124 129 128 125
117 115 105 102 100 99 96 95 96 91 86 82 82 82 85 86 83 81 76 79 83 84 85 83 78 74 79 84 84 84 87 88 88 90 89 90 92 97 94 92 100 103 106 110 114 119 119 120 126 129 134 136 132 130
122 119 117 107 105 104 102 100 98 97 92 88 88 86 89 87 87 85 83 85 89 91 90 85 81 83 83 85 89 92 93 95 96 97 95 98 97 100 102 109 109 109 113 116 119 122 125 127 130 137 138 131 133 134
127 122 119 113 110 106 109 107 105 100 98 96 95 93 95 92 91 90 93 91 91 94 94 89 88 90 91 93 95 97 101 101 101 100 105 107 104 107 115 117 117 116 119 121 126 128 128 132 140 137 131 131 132 125
130 132 127 120 114 111 110 107 108 108 105 104 104 101 96 94 95 96 97 97 98 97 96 92 93 98 99 98 101 102 103 103 104 102 110 111 110 114 120 123 128 126 128 131 132 135 138 139 135 130 125 126 120 119
129 131 129 128 120 115 114 114 113 114 116 111 106 107 107 106 105 104 103 100 99 101 102 102 102 105 108 111 111 111 109 110 110 112 114 112 112 119 125 126 127 130 130 132 130 129 130 130 126 121 113 113 109 107
120 123 131 129 126 125 119 116 116 112 112 112 113 112 113 112 113 114 111 108 107 107 108 112 114 113 112 110 111 115 118 119 118 119 122 123 127 132 128 126 127 126 124 124 124 124 126 127 118 113 111 110 109 109
109 118 127 132 134 129 124 129 122 117 115 116 117 118 118 119 118 117 113 115 119 120 118 115 115 115 116 116 116 117 119 119 121 124 130 135 135 127 125 123 123 122 122 120 119 118 117 114 113 111 109 110 106 101
94 103 110 117 125 134 135 133 132 130 127 126 125 123 124 126 125 122 122 122 121 126 125 124 122 125 127 128 128 124 127 132 136 135 136 133 130 127 123 120 119 117 114 112 110 109 107 106 106 104 104 101 96 91
85 88 93 102 109 112 121 127 131 134 132 138 134 134 130 128 125 127 130 127 128 129 127 124 124 125 128 132 133 136 138 135 140 140 132 128 125 120 117 114 109 104 104 104 104 103 102 102 101 96 96 92 88 84
83 83 85 89 95 103 110 117 125 128 133 137 135 131 131 128 132 130 131 133 130 130 127 124 126 127 129 131 131 132 131 128 128 123 121 119 116 113 109 105 103 102 103 103 100 99 97 95 90 85 85 82 80 77
80 81 82 82 83 86 90 96 105 116 116 119 124 131 131 129 131 127 125 122 122 122 121 122 120 120 116 119 129 130 126 121 118 115 111 108 105 103 104 105 104 103 102 100 96 94 89 88 84 81 78 77 74 71
81 79 79 79 81 82 83 87 90 95 97 101 106 108 109 112 113 112 110 110 108 109 111 111 111 111 114 110 117 115 111 106 103 101 97 96 100 103 104 101 98 95 93 89 87 82 80 78 77 74 72 70 67 65
79 79 79 78 78 79 80 81 82 84 87 89 91 96 98 99 100 100 100 100 100 100 99 101 101 104 107 103 100 98 98 99 97 94 94 95 95 95 93 90 86 83 82 80 76 73 72 71 69 68 65 62 59 58
75 76 77 77 78 78 78 78 80 81 83 85 86 88 89 92 91 92 93 93 92 89 88 92 97 98 97 96 97 95 94 94 92 89 87 89 90 86 84 81 78 76 73 71 69 68 66 64 62 60 58 56 54 54
68 70 71 73 76 77 77 78 79 79 81 83 86 86 87 88 89 89 88 85 84 88 89 91 91 91 91 90 89 85 83 82 82 82 80 76 76 75 73 72 70 69 66 63 61 60 58 57 56 55 54 52 52 51
63 64 66 68 70 72 72 74 73 76 76 78 81 82 82 84 83 81 76 77 81 88 87 79 80 80 79 78 77 76 76 76 74 71 70 66 62 64 65 64 61 61 60 56 55 55 55 54 53 52 52 51 50 47
56 56 57 58 59 61 64 65 67 68 69 71 72 72 71 70 71 66 66 74 79 83 67 69 70 69 67 68 67 68 69 66 63 63 62 58 57 58 57 56 54 55 54 52 52 52 51 51 50 50 49 47 46 45
47 48 50 51 53 55 57 60 61 61 61 61 61 61 62 63 60 60 63 72 75 62 63 62 58 57 57 58 60 62 60 55 54 56 53 51 55 54 52 51 52 50 50 51 50 49 49 48 48 46 45 44 43 43
38 40 44 48 52 53 53 52 51 50 51 49 49 53 57 52 49 54 64 64 54 54 53 51 49 50 52 53 52 51 52 51 51 52 47 46 48 49 49 49 49 49 48 48 47 46 46 44 43 43 43 42 42 42
35 41 45 46 44 42 42 44 44 41 41 42 47 49 46 44 48 57 54 42 44 46 46 47 48 48 46 45 45 44 45 45 45 46 44 44 45 47 47 47 48 47 46 46 45 44 43 43 43 42 42 42 42 42
37 38 38 37 35 33 33 36 37 38 40 41 41 38 40 44 47 45 40 42 43 42 41 40 39 40 41 41 40 42 44 44 43 44 43 42 43 44 45 45 44 45 44 43 42 41 41 41 42 42 42 41 41 40
30 31 32 29 30 31 34 36 35 33 31 30 33 37 37 36 38 36 38 41 39 37 37 38 39 39 38 39 41 43 42 42 42 42 41 39 39 39 39 41 41 41 41 41 41 41 41 41 41 41 41 40 40 40
26 25 27 31 30 29 30 28 28 28 29 33 33 33 35 35 34 36 37 38 38 37 38 37 35 35 35 36 37 37 38 38 38 38 38 39 38 38 39 38 38 39 39 39 39 39 39 40 40 41 41 40 39 38
21 21 27 24 24 25 20 24 30 27 27 29 31 32 31 30 33 34 35 34 36 37 36 34 33 34 34 34 35 35 36 35 37 37 37 37 37 37 37 37 38 38 39 39 40 40 40 39 39 38 38 37 38 38
20 22 24 23 24 22 25 30 29 26 28 30 31 30 29 31 31 31 31 32 34 33 33 33 34 34 34 35 36 35 35 35 35 36 36 36 36 37 38 39 39 40 40 40 39 38 37 37 37 37 38 38 37 38
21 21 22 23 22 23 26 27 29 26 24 26 25 29 28 29 28 26 27 33 34 33 33 34 34 34 34 35 36 36 36 36 36 36 37 38 39 39 39 38 38 38 37 37 37 37 38 38 37 37 37 38 37 37
20 20 21 23 22 22 24 26 24 25 24 25 25 27 29 32 31 29 29 31 33 33 34 33 33 34 34 35 35 36 37 37 38 38 38 38 39 38 38 37 37 37 38 38 38 38 38 38 38 37 37 38 38 37

GFSWCAN_250_spd_012.txt.gz
Wind_Speed
84 81 77 73 69 63 61 58 56 53 52 52 51 50 49 49 50 49 48 46 47 52 51 47 47 47 45 44 45 47 47 52 52 51 51 52 51 55 58 60 64 67 69 72 72 75 80 81 83 87 87 86 89 92
91 86 83 76 75 70 68 68 65 63 58 56 59 62 59 60 64 60 59 53 50 51 47 45 48 50 48 49 49 49 52 55 56 57 58 58 57 59 63 65 71 72 74 74 78 76 84 86 90 91 94 95 98 105
93 89 87 83 79 72 72 71 73 68 69 68 65 62 60 59 56 55 51 48 46 48 50 48 52 54 57 55 54 54 56 59 59 61 63 64 64 67 69 68 70 72 78 80 83 85 88 91 94 97 100 103 109 113
96 92 93 87 86 81 77 75 70 72 72 68 66 65 61 58 59 59 59 58 57 57 57 55 57 61 62 62 62 62 63 64 65 65 66 68 72 72 71 76 76 81 85 87 89 93 91 98 99 102 107 113 116 117
103 97 96 94 92 87 83 78 75 72 76 73 72 72 71 69 67 64 65 62 63 62 58 59 63 67 70 68 67 67 69 72 75 75 77 79 81 86 81 80 82 89 90 95 96 99 101 100 104 108 112 114 117 124
110 106 102 99 95 94 91 84 83 79 76 75 74 77 74 70 71 70 68 69 70 73 70 66 61 67 72 72 73 72 75 77 78 80 79 79 84 90 87 84 86 96 99 102 103 104 108 110 114 118 118 124 129 132
114 112 109 106 102 100 97 92 88 87 85 82 79 79 79 78 75 74 70 69 75 75 72 69 66 67 76 78 78 78 81 83 83 83 81 83 87 94 94 92 99 101 103 104 107 110 114 117 124 125 128 133 137 140
119 117 116 111 107 104 101 103 97 95 90 89 87 87 86 82 79 77 78 79 80 82 80 74 70 73 75 80 84 86 87 89 87 90 90 92 93 97 98 104 106 110 112 115 119 118 119 123 126 129 132 138 142 141
125 118 118 116 113 108 108 104 104 103 99 95 96 92 92 90 89 86 88 88 88 88 83 76 75 79 80 82 85 88 93 95 95 96 99 100 101 104 109 112 114 115 117 118 120 122 125 128 132 136 140 147 140 136
125 124 122 120 116 113 113 112 108 103 104 102 97 96 95 95 97 97 97 97 96 94 91 85 86 90 90 94 97 101 102 100 100 98 103 103 103 110 116 118 117 117 121 124 127 128 132 137 136 143 143 139 134 126
132 130 128 125 119 116 114 112 110 112 111 107 106 103 99 100 102 102 103 102 101 99 99 100 103 103 105 106 107 107 105 106 104 106 109 111 114 120 123 119 124 125 127 128 132 133 137 141 139 133 131 128 123 117
140 131 130 130 131 126 123 119 113 112 111 113 110 105 108 108 109 109 106 106 107 109 107 109 110 112 111 110 111 112 113 113 114 116 118 122 126 126 123 126 128 128 127 127 129 132 131 127 124 122 120 113 108 106
127 127 125 123 124 129 129 128 124 122 120 118 115 114 114 116 118 117 114 112 110 114 115 114 114 116 115 116 117 119 118 119 121 125 127 131 133 130 129 130 128 128 129 127 122 119 121 118 114 111 107 106 103 101
116 123 120 122 121 119 121 125 125 129 130 128 125 124 123 119 116 116 118 119 116 116 121 122 122 120 117 122 121 121 124 127 129 131 136 135 132 131 132 131 127 127 123 119 120 119 113 106 104 103 104 102 96 93
106 109 107 111 115 112 112 113 116 127 121 124 126 132 128 125 128 126 124 124 125 125 126 127 128 124 123 126 127 130 133 137 143 147 143 139 135 131 130 128 123 117 113 111 109 104 102 103 101 97 94 90 85 81
107 111 112 107 103 102 106 111 113 112 110 109 109 112 119 126 132 136 136 138 134 129 130 132 133 134 135 137 139 143 144 143 141 134 128 128 128 125 122 116 113 109 105 101 98 96 96 95 90 84 82 80 77 75
100 102 103 100 98 93 89 91 95 99 100 107 115 117 118 119 122 131 136 137 139 141 138 137 139 143 141 144 142 138 136 132 128 127 125 124 119 114 110 108 105 102 99 95 96 95 91 87 82 77 74 73 72 71
95 97 96 94 93 90 89 88 84 83 87 92 97 100 102 104 109 114 119 127 133 136 139 143 140 137 138 133 127 124 122 119 115 112 110 110 108 105 103 102 100 96 93 92 90 84 80 76 72 70 71 70 68 66
87 88 89 89 88 88 88 87 84 82 83 85 89 93 95 96 97 99 102 106 110 112 111 115 115 114 113 110 107 105 106 105 101 99 98 98 99 99 97 92 89 87 84 81 77 74 72 71 68 68 66 64 61 58
79 80 81 82 81 81 82 82 83 81 82 83 85 88 90 92 93 94 95 95 96 95 96 96 98 98 97 98 99 97 97 96 93 91 91 94 95 91 87 85 81 77 75 73 71 69 67 66 63 61 59 56 54 53
70 72 75 76 77 77 77 79 79 78 80 82 84 84 86 86 88 89 89 88 88 91 91 92 87 88 91 92 93 90 89 88 87 86 84 82 84 79 77 76 72 71 69 66 65 65 63 60 58 55 53 52 52 51
63 67 71 72 73 73 73 76 79 80 80 81 83 81 82 83 82 82 81 82 85 92 91 82 79 83 87 87 85 82 79 79 79 79 76 71 68 68 68 67 65 65 62 61 61 59 57 55 53 53 52 50 48 47
58 61 64 66 68 69 73 74 75 76 74 75 75 74 74 76 76 73 72 77 84 89 82 72 75 75 75 75 74 74 73 72 72 71 67 63 63 62 60 61 59 58 59 57 55 54 53 53 53 52 50 48 46 44
51 55 57 59 61 64 66 67 65 64 63 64 65 66 68 69 67 66 68 74 81 74 66 65 63 64 64 64 65 67 68 66 63 61 59 58 60 60 57 56 55 52 53 54 53 52 50 50 49 48 47 46 44 43
45 48 51 55 57 59 57 56 54 53 55 55 58 61 63 59 57 59 64 70 62 59 59 59 57 57 59 60 60 61 59 55 56 58 55 53 54 55 54 52 50 49 51 50 49 49 47 46 45 44 42 42 41 40
42 47 50 49 48 47 46 46 47 48 50 51 53 52 50 51 54 60 65 56 53 52 51 51 55 54 54 55 55 54 53 51 52 52 48 47 49 52 52 51 49 46 47 48 46 44 43 43 43 42 41 40 39 39
42 41 40 39 38 38 42 44 46 47 47 45 44 43 45 49 55 56 49 47 48 48 49 48 46 46 49 48 48 49 50 50 50 48 46 44 45 47 48 48 46 46 44 43 42 41 40 40 40 40 39 39 39 40
33 34 33 31 35 35 38 41 41 39 37 35 37 43 44 45 48 46 44 44 45 44 42 42 42 43 44 43 44 45 46 46 46 44 44 42 42 43 42 42 42 41 40 41 41 39 39 39 39 40 41 41 40 39
29 28 30 33 32 33 36 33 30 30 32 35 39 42 41 39 39 40 42 41 41 41 41 41 39 39 39 40 41 43 42 42 42 40 40 39 38 39 41 40 40 39 39 38 39 39 40 40 40 40 39 39 38 37
24 26 30 29 29 30 28 26 33 34 33 33 36 38 35 34 35 40 38 37 39 40 39 37 36 35 35 36 37 37 37 37 37 37 36 35 34 34 35 36 37 38 39 40 40 39 39 38 38 38 38 38 39 39
22 25 27 28 27 25 26 29 32 31 29 29 30 31 28 30 34 34 33 33 35 36 34 34 34 33 32 33 33 33 35 35 35 35 35 35 35 36 37 37 38 38 38 38 38 38 38 38 38 38 38 38 38 38
21 22 24 25 25 24 26 28 30 28 25 27 28 30 29 29 29 30 28 32 32 30 31 30 31 32 32 32 32 32 34 34 34 35 36 37 38 38 38 38 38 38 38 38 38 38 39 40 40 40 39 38 37 36
20 21 23 25 24 23 21 27 28 24 24 25 24 26 27 28 29 27 25 28 29 30 30 30 31 32 32 32 34 34 34 35 35 36 36 37 37 37 37 38 39 39 40 40 40 40 39 38 37 37 37 36 36 36

GFSWCAN_250_spd_015.txt.gz
Wind_Speed
82 76 74 72 67 63 60 60 61 61 62 62 62 59 58 57 55 55 55 54 53 52 53 53 52 53 52 50 48 48 47 50 49 47 48 48 50 51 53 55 60 62 63 64 68 73 76 80 80 81 84 86 91 95
85 80 76 76 73 67 64 60 57 57 62 65 64 64 63 63 60 62 59 57 55 53 53 54 56 55 50 49 50 50 48 51 49 51 53 51 52 54 55 56 64 64 71 71 77 75 82 84 83 86 88 92 96 102
90 87 83 80 77 71 67 66 61 59 58 60 58 61 59 60 56 56 56 54 54 56 57 55 55 54 51 51 52 51 53 55 55 57 57 57 60 60 59 59 65 70 77 75 80 80 85 88 92 94 95 100 103 108
96 93 89 84 81 79 74 72 67 65 64 62 63 64 63 60 58 59 63 63 62 61 56 56 55 52 53 54 56 58 60 61 62 62 62 62 62 63 63 67 69 75 79 83 82 85 89 93 98 100 102 107 110 112
101 98 93 89 87 84 80 76 72 70 67 65 64 65 66 67 67 68 64 59 59 59 55 52 53 60 60 59 61 61 62 64 66 65 65 65 69 74 70 70 76 85 88 88 88 93 96 98 103 104 109 114 118 119
106 103 99 94 90 90 87 81 79 76 74 69 68 68 70 69 67 64 61 61 65 66 60 56 57 64 66 68 69 69 70 68 68 67 69 74 80 82 76 77 84 92 94 97 97 96 101 104 107 113 117 122 127 127
113 109 106 102 97 94 92 89 82 79 79 76 76 71 72 72 72 69 68 67 72 70 69 68 65 62 69 74 76 76 74 73 74 75 76 78 82 86 86 84 92 96 101 105 107 105 107 111 115 122 126 128 132 136
116 114 109 107 103 99 95 94 90 86 86 82 78 81 79 79 76 73 71 73 78 78 77 74 69 68 70 77 83 85 85 86 84 83 82 83 85 90 92 97 97 103 108 111 109 112 115 118 123 128 130 134 139 144
112 117 114 110 109 105 100 97 94 92 90 90 87 84 84 86 83 81 82 82 82 83 84 76 75 74 76 80 85 89 91 92 93 91 93 94 94 101 106 107 110 113 114 114 115 118 122 124 128 132 137 146 149 154
116 115 111 114 115 109 104 103 100 97 96 96 97 95 92 88 88 87 89 90 92 90 88 86 84 87 89 90 91 94 96 98 98 98 103 103 104 108 113 115 119 120 121 124 125 127 127 130 134 137 148 149 144 136
122 117 113 109 109 110 111 106 105 103 103 102 101 99 99 99 99 96 96 95 95 93 95 95 97 100 100 102 103 103 103 105 105 105 108 109 110 116 119 123 122 123 128 130 131 132 135 138 142 148 150 141 135 128
126 126 120 117 115 110 109 110 111 108 109 108 108 107 106 106 107 106 102 102 102 103 102 103 104 106 106 107 110 112 111 112 112 113 117 119 123 125 124 123 125 127 129 131 134 136 141 143 149 140 135 125 116 111
125 123 129 125 120 113 113 113 107 109 112 115 113 112 111 112 114 112 109 107 109 111 109 111 112 110 112 114 116 115 117 120 123 123 126 131 130 129 131 131 132 135 137 140 139 142 141 148 135 131 118 112 108 106
117 120 124 126 124 123 119 114 111 111 111 112 114 116 119 121 116 114 116 116 118 117 115 116 116 117 116 117 119 121 125 127 127 129 135 136 136 135 137 139 143 146 143 144 143 146 144 127 117 111 109 108 105 101
118 116 119 120 119 121 127 129 126 123 120 119 119 120 116 115 118 119 119 120 121 121 121 122 123 123 125 127 127 133 133 136 140 144 142 142 144 143 145 149 150 147 143 148 145 132 119 110 106 104 104 103 98 92
106 114 119 116 121 122 118 116 117 120 126 130 128 126 126 123 125 127 126 126 128 129 128 127 129 133 136 134 132 131 135 141 145 143 144 146 148 148 145 143 141 134 128 119 110 106 103 102 101 100 97 93 86 80
93 98 105 115 114 112 113 121 127 125 119 117 116 114 120 124 129 130 131 124 124 128 127 122 124 124 125 124 126 129 131 130 131 131 129 129 130 126 121 115 112 109 106 104 101 99 99 98 96 90 83 80 76 71
86 92 97 100 104 106 107 105 101 100 102 98 99 105 109 111 115 113 117 119 113 110 113 116 115 113 112 119 123 121 117 115 115 114 112 112 111 106 103 101 100 99 98 97 95 93 92 87 82 77 73 69 66 64
81 86 90 96 102 103 101 102 103 105 109 110 106 101 99 100 101 100 103 104 103 104 101 102 102 102 107 106 104 105 105 105 104 101 100 102 101 99 97 97 95 93 91 88 87 85 81 77 72 69 66 64 63 60
76 81 84 89 93 96 99 101 103 102 103 103 98 95 95 96 96 97 99 99 99 96 96 97 100 101 98 100 101 102 103 102 97 92 91 94 96 95 94 91 88 86 85 83 80 77 71 70 65 63 61 59 58 56
72 76 80 80 82 83 84 88 88 88 90 91 92 92 93 92 92 92 92 92 92 96 96 99 97 95 95 94 94 93 92 92 91 90 88 88 90 88 87 83 80 79 76 73 70 69 66 65 62 61 57 55 55 54
70 72 74 75 76 76 75 78 81 83 84 85 86 85 86 87 86 86 85 88 90 94 93 92 88 87 86 87 89 90 87 84 83 83 83 80 78 77 76 74 71 70 69 66 63 62 62 59 57 55 55 53 52 51
59 62 64 66 67 69 72 75 76 76 75 78 78 78 79 83 83 81 79 82 86 90 88 81 78 78 77 78 79 79 77 76 77 76 74 71 68 67 66 65 62 61 62 63 56 57 57 55 54 52 52 51 49 48
53 58 62 64 66 67 68 67 66 65 63 66 68 69 71 72 70 70 72 76 82 80 74 70 68 68 69 69 69 70 70 70 69 69 66 62 63 63 61 60 57 54 55 57 53 52 52 52 51 50 48 48 48 46
49 51 54 57 58 59 59 58 58 58 57 58 61 64 65 63 61 62 64 72 70 64 62 62 62 61 63 64 64 64 63 61 61 61 61 57 58 57 57 55 53 50 52 51 49 49 49 49 49 48 47 45 45 44
47 50 52 50 50 51 50 51 50 52 55 57 59 60 57 53 53 58 66 63 58 59 58 56 56 56 56 58 59 57 56 56 56 56 55 52 51 52 54 53 51 46 45 47 48 48 47 47 47 46 45 45 44 44
46 47 46 44 43 43 44 46 50 52 54 52 49 46 46 49 56 61 57 53 51 51 52 53 51 47 50 53 52 52 51 51 51 51 49 48 48 49 50 50 50 48 45 44 44 46 45 45 44 43 44 45 45 44
37 37 35 35 39 41 44 47 47 46 44 41 41 46 49 51 52 52 50 47 47 51 49 44 42 43 48 48 47 46 46 47 47 46 45 44 45 46 46 46 47 46 45 43 42 41 42 43 43 45 45 45 44 42
32 32 34 36 35 37 40 40 41 42 39 40 43 46 46 47 46 43 42 44 46 45 44 43 42 42 43 42 42 44 44 43 43 43 42 41 41 42 44 45 45 45 43 42 42 42 43 43 43 44 43 43 43 42
28 29 31 32 33 34 34 33 37 36 35 36 38 41 42 41 37 37 43 40 39 40 43 43 42 40 40 40 40 41 42 41 42 42 41 41 40 40 40 41 42 42 43 44 44 44 44 43 43 43 43 44 44 44
25 27 29 29 29 28 29 31 33 34 35 33 31 32 35 34 33 36 40 39 38 40 42 41 39 37 37 37 38 38 39 40 40 41 40 39 39 39 40 40 40 40 40 41 41 42 43 43 44 45 44 43 42 40
25 27 28 28 28 27 28 31 31 32 32 30 30 29 33 34 35 35 34 35 38 39 39 39 38 37 37 38 38 38 38 38 39 39 39 39 39 39 39 39 39 39 40 41 41 42 42 43 42 41 40 39 38 38
26 27 27 28 29 29 29 30 32 34 32 29 29 31 32 33 36 34 32 34 37 39 39 38 37 37 36 36 37 37 37 36 36 37 37 37 37 38 38 39 40 41 41 41 40 40 39 39 39 39 39 39 39 39

GFSWCAN_250_spd_018.txt.gz
Wind_Speed
80 78 70 66 62 58 58 58 59 61 64 66 65 65 64 62 59 56 54 53 52 52 52 51 51 52 51 51 50 53 53 50 46 46 46 48 48 47 49 52 57 57 58 62 61 63 64 69 73 77 80 81 86 91
85 80 77 73 68 64 61 62 62 63 63 65 67 68 66 65 63 60 59 57 55 54 53 51 52 51 54 55 57 57 49 47 46 48 47 49 50 48 50 52 60 62 67 64 66 67 74 76 80 84 86 87 90 98
89 86 82 77 75 70 66 63 63 62 65 64 63 67 69 68 66 64 62 61 59 57 57 54 54 56 60 57 58 49 51 50 52 51 49 50 53 56 57 56 60 66 70 68 69 76 80 83 85 90 95 98 103 106
94 90 84 83 79 75 70 65 64 63 62 61 61 63 64 65 65 65 63 62 61 60 59 59 59 58 57 56 55 54 53 55 51 51 53 56 60 60 59 62 64 69 69 73 78 81 83 88 90 95 101 105 108 110
97 95 91 86 83 79 74 69 66 66 64 62 60 57 56 60 62 63 63 63 65 64 58 58 59 61 60 60 59 55 56 58 55 58 62 66 69 71 68 70 70 76 81 84 86 91 93 94 98 103 106 109 112 118
98 98 94 92 88 85 80 76 71 69 68 65 64 60 58 58 58 58 59 58 60 64 60 60 63 66 62 61 60 62 63 62 63 65 69 71 75 77 75 74 80 88 90 91 92 96 99 103 104 107 112 116 118 123
104 100 94 94 92 90 87 81 77 75 71 69 65 63 62 63 63 62 61 62 64 65 65 64 63 63 64 67 70 72 70 71 73 74 72 75 79 83 83 82 87 91 95 97 97 102 106 110 113 116 120 123 128 131
110 105 101 98 96 93 91 88 82 78 77 75 74 73 73 72 69 67 67 66 68 68 65 61 61 62 67 69 73 76 78 79 79 81 80 81 85 89 90 93 97 100 103 105 109 112 114 116 122 127 127 130 130 134
106 106 103 102 97 96 94 91 91 86 83 83 83 82 83 81 77 75 77 76 75 75 74 71 69 71 72 76 79 81 82 84 85 86 88 90 93 96 99 103 105 108 111 111 115 118 120 124 130 132 133 138 141 144
104 106 103 103 106 100 98 95 94 92 92 91 88 89 88 85 84 82 82 83 86 85 78 75 73 78 82 83 84 87 88 90 89 88 94 95 99 103 109 112 112 112 115 119 122 124 126 135 140 138 140 144 145 146
108 102 104 98 104 108 102 100 100 98 96 97 96 92 92 92 92 92 91 89 86 85 84 83 86 86 85 89 91 92 94 97 99 99 102 103 105 112 115 116 118 121 125 128 131 133 137 142 144 142 138 138 133 130
113 110 110 105 103 102 104 106 103 101 102 101 102 102 103 102 100 98 96 94 94 94 92 93 95 98 99 99 101 103 105 107 108 109 112 113 118 121 117 119 120 125 127 134 138 139 139 138 136 132 128 126 116 109
117 118 115 108 103 105 98 98 105 105 105 107 108 105 107 109 108 104 98 98 103 102 103 105 106 104 104 105 108 109 111 114 116 118 120 120 121 122 125 126 130 132 135 136 134 134 129 125 122 119 111 107 103 102
123 122 119 115 110 108 107 106 103 100 101 104 110 110 111 111 109 104 105 108 109 107 107 108 109 108 109 111 112 114 119 121 125 123 123 124 124 128 130 132 135 130 128 131 128 124 122 116 108 107 105 104 101 101
124 128 122 117 115 110 109 108 110 109 106 105 102 105 108 110 111 111 111 108 110 112 111 111 112 111 111 112 113 115 119 124 128 128 125 127 131 133 135 125 120 120 121 122 119 113 108 104 102 99 100 102 102 97
104 124 132 125 118 118 119 115 112 107 110 116 114 111 107 109 110 111 110 110 110 109 110 112 110 109 115 120 123 127 133 132 130 131 133 135 133 126 121 116 114 114 113 111 105 101 99 98 98 98 98 98 95 88
97 104 116 128 124 117 115 119 119 122 121 111 112 113 113 113 114 117 119 121 120 121 119 122 124 124 120 119 120 123 128 127 123 121 124 122 118 112 110 106 105 106 104 101 99 98 98 98 97 94 90 88 82 76
90 94 100 106 105 104 102 106 111 115 115 114 114 114 113 111 110 110 113 117 118 117 116 114 117 122 123 121 119 114 111 113 115 110 109 111 107 103 102 101 102 100 100 99 98 96 95 93 88 82 80 76 72 69
82 84 86 89 95 101 103 104 100 104 108 110 104 98 99 104 104 103 105 107 112 114 114 112 111 111 112 111 108 106 107 107 106 104 102 103 103 101 99 99 98 98 97 95 93 91 87 83 77 73 70 66 65 64
68 74 78 82 88 95 100 104 104 99 100 103 99 99 98 98 96 96 98 98 95 97 102 105 109 107 105 102 102 103 102 102 101 99 97 98 98 96 97 97 95 93 91 89 85 81 77 72 69 66 63 59 58 58
53 61 68 73 77 79 82 87 91 94 99 103 106 105 98 93 93 91 91 89 91 95 96 95 96 99 100 101 98 96 97 96 95 92 91 90 93 94 93 91 89 86 82 80 74 72 69 65 63 61 58 57 55 54
53 58 60 64 67 70 72 76 78 83 87 90 92 91 91 91 89 88 88 91 94 96 94 97 97 95 95 93 92 91 89 88 88 88 88 87 85 85 85 82 78 77 74 70 65 65 62 59 58 57 57 56 54 52
50 54 57 59 61 64 67 70 72 74 76 77 78 79 80 82 83 82 82 87 91 92 89 86 83 81 80 81 81 82 81 81 82 83 83 80 77 74 73 73 70 66 62 64 61 59 57 57 57 56 55 53 52 51
51 53 57 59 60 61 63 64 63 63 63 65 67 69 71 72 71 71 74 79 81 77 73 71 71 72 72 73 73 75 75 74 73 74 74 68 65 68 66 65 62 56 54 57 57 57 56 54 53 52 52 51 51 50
48 51 52 55 58 58 57 54 53 53 54 57 59 59 60 58 59 61 65 69 72 66 65 65 64 62 63 66 67 67 66 64 65 65 65 58 58 60 62 60 56 53 52 54 53 53 52 52 52 53 51 51 50 49
47 48 50 51 49 48 48 49 49 50 52 53 54 54 53 52 55 57 62 62 60 61 60 57 57 58 60 59 59 60 60 59 57 58 59 56 54 53 55 57 56 53 49 49 51 51 50 51 51 51 50 49 48 48
44 46 45 42 42 41 41 41 43 46 48 48 49 48 47 47 51 57 57 55 54 52 50 53 55 55 52 53 54 55 55 53 51 50 52 53 51 51 52 53 53 52 50 48 48 48 49 49 49 49 49 50 49 48
39 37 35 33 35 37 42 46 46 44 43 41 44 47 48 48 50 51 50 48 48 49 50 51 50 48 48 49 50 50 48 47 47 49 49 47 48 49 49 49 49 49 49 48 48 46 45 46 47 48 48 48 47 46
29 31 34 36 37 38 39 38 40 41 41 42 43 45 45 46 46 45 46 47 47 46 47 47 46 45 47 46 45 44 45 46 48 47 45 45 45 46 47 47 48 48 48 47 47 47 48 47 47 46 45 46 47 47
30 30 31 32 35 37 35 35 40 39 38 38 38 42 45 44 40 40 43 44 44 44 43 43 46 46 44 42 42 44 45 45 46 47 46 45 45 45 45 45 45 46 46 47 46 46 46 45 45 46 47 47 47 46
27 29 31 31 31 29 32 35 36 36 35 35 34 35 38 39 37 38 43 44 43 43 45 46 47 46 45 44 43 42 43 45 45 46 47 46 45 44 44 45 44 43 43 44 45 45 45 45 45 44 43 42 42 42
25 25 26 27 27 27 30 32 32 32 32 34 34 34 34 34 36 40 41 38 39 42 45 45 43 43 42 41 41 41 42 43 44 44 44 44 44 44 43 43 43 43 43 43 44 43 42 41 41 41 41 40 40 40
24 25 25 26 26 26 29 30 31 30 29 31 33 34 36 36 36 38 39 37 38 39 41 43 43 42 41 41 41 41 42 42 42 42 41 41 42 42 42 42 42 42 41 40 40 40 40 39 38 38 38 39 39 39

GFSWCAN_250_spd_021.txt.gz
Wind_Speed
79 80 74 67 64 59 54 53 52 53 58 62 61 60 59 60 61 59 58 56 54 52 50 47 46 46 46 49 50 51 50 52 51 52 50 48 42 43 46 47 51 52 50 50 53 61 63 67 70 74 75 74 79 84
86 82 77 71 67 64 59 56 55 53 53 57 60 62 62 61 60 62 62 59 58 57 55 52 50 50 49 50 52 53 53 52 52 54 51 48 46 47 48 49 53 54 56 58 61 68 72 73 75 76 78 81 85 92
88 84 82 75 70 67 63 58 57 56 55 56 57 61 61 60 61 61 63 64 64 62 59 56 54 54 55 54 54 53 55 54 58 56 52 50 52 51 48 51 54 61 65 63 67 75 76 78 79 81 85 91 95 100
89 87 85 78 75 71 66 63 60 58 58 57 57 58 60 62 63 63 65 64 64 64 62 60 59 58 57 56 56 57 59 60 59 55 51 55 56 53 52 56 60 68 70 72 73 77 77 83 85 92 95 99 102 105
89 87 86 86 80 76 70 65 62 61 60 59 57 57 58 59 62 66 67 66 67 68 66 66 62 61 59 60 61 60 59 60 63 59 56 58 60 60 60 62 67 72 77 79 79 83 84 88 92 98 102 106 110 114
94 89 87 88 87 83 77 74 69 64 62 59 57 56 57 60 60 62 61 62 66 66 63 65 62 62 61 62 59 59 62 64 65 61 60 60 64 67 66 70 74 81 83 85 85 86 91 98 100 106 110 114 114 119
98 93 90 89 90 88 84 81 76 73 69 64 60 59 59 58 57 58 58 61 61 61 58 55 53 59 60 63 62 63 63 62 62 62 61 67 72 76 75 76 82 85 86 89 92 96 101 106 111 115 117 118 121 125
95 98 94 93 91 91 87 85 82 78 74 72 69 68 64 62 61 60 60 62 64 64 61 54 51 55 62 66 68 66 66 67 65 66 69 73 73 77 79 83 86 88 91 97 100 103 107 113 118 121 122 124 126 126
92 99 98 95 92 93 89 88 84 82 79 77 77 75 73 68 64 64 68 68 68 68 63 57 56 59 60 68 70 71 72 73 73 75 75 77 80 83 85 87 91 97 102 103 107 112 115 118 122 126 125 125 124 126
91 97 100 94 95 93 93 90 88 86 84 82 83 83 80 76 75 72 75 74 72 71 67 67 68 70 73 75 76 79 80 82 82 82 85 87 87 90 95 99 101 105 109 111 112 116 120 123 125 127 127 125 123 119
92 94 96 97 96 99 97 95 94 92 90 92 90 87 85 85 85 83 83 83 82 80 76 75 78 80 82 83 84 83 83 85 85 86 90 91 91 99 101 105 109 109 113 117 121 120 120 121 121 121 120 119 117 113
91 94 93 97 101 99 96 95 95 95 95 93 91 92 92 92 93 92 92 89 86 86 84 86 88 90 90 91 93 93 94 96 96 96 99 100 104 108 109 110 115 118 118 119 121 118 119 119 119 118 116 114 108 108
83 88 95 98 99 101 102 101 100 99 97 97 98 97 97 96 98 96 94 94 93 93 93 93 95 96 97 98 100 101 103 104 106 107 109 111 113 112 114 117 119 118 120 118 121 119 116 116 113 114 113 110 106 106
89 83 87 89 96 99 97 98 101 103 103 104 103 104 101 99 98 97 98 98 98 97 98 99 101 102 101 105 106 108 108 109 112 111 113 115 113 111 109 114 118 115 116 116 115 114 114 110 109 109 109 107 104 105
88 86 87 90 93 98 99 99 100 99 102 106 102 103 100 100 99 100 103 103 104 104 105 105 104 104 105 106 108 110 113 115 116 116 113 112 113 115 118 114 113 117 114 114 114 113 111 109 107 103 104 103 104 100
82 85 89 89 92 97 96 98 98 100 101 101 100 96 97 102 104 104 106 105 104 101 102 103 105 105 108 107 104 105 108 110 110 108 109 111 115 117 113 116 117 112 111 113 112 110 107 104 101 99 99 100 97 92
78 85 92 91 95 91 91 93 97 100 102 107 104 105 104 105 110 105 100 105 106 104 106 107 106 106 102 104 110 112 110 108 110 109 113 118 116 116 114 110 110 110 110 111 106 103 101 99 98 96 93 91 88 83
79 84 89 95 97 95 95 96 98 99 99 100 104 105 104 103 106 108 109 109 110 108 104 105 110 114 117 113 109 110 108 105 104 107 108 109 109 108 108 106 106 108 106 102 99 98 97 95 94 90 84 80 79 75
72 78 85 91 91 92 97 99 100 98 96 99 101 103 105 110 113 111 112 112 114 113 108 109 111 113 112 107 104 106 104 102 101 101 101 104 105 105 106 106 102 96 94 95 94 92 90 90 86 78 76 71 70 68
65 70 74 78 82 87 91 92 93 94 102 105 98 99 105 107 103 100 102 104 105 102 104 109 108 100 98 101 101 99 97 96 96 97 102 106 107 106 100 91 90 90 90 89 88 86 84 80 76 72 69 66 65 63
60 63 66 69 73 75 76 79 82 85 88 91 96 98 91 89 91 94 97 98 98 101 98 95 96 97 96 94 95 95 97 96 98 99 99 96 93 91 90 89 87 86 82 82 83 83 78 72 69 67 66 62 60 57
56 57 59 60 63 66 69 71 74 78 81 83 86 86 87 89 90 91 92 95 99 97 90 91 90 91 94 96 94 93 91 90 91 89 87 85 84 85 85 83 80 80 80 80 77 72 70 67 65 62 60 59 58 56
46 47 49 51 54 57 61 66 68 69 69 72 73 76 80 82 84 84 85 89 87 84 86 86 87 88 88 89 88 86 84 84 84 83 82 81 79 78 77 76 74 72 73 73 67 66 65 62 60 60 58 56 54 52
39 41 45 49 53 56 59 60 61 62 65 68 70 72 73 74 73 73 76 81 82 80 79 78 78 79 80 79 77 77 77 77 76 76 76 74 71 71 71 70 68 66 63 63 62 62 60 59 58 57 55 53 51 49
42 45 48 52 55 56 57 58 59 61 63 63 62 60 61 59 61 63 67 73 70 68 68 67 69 69 67 66 68 70 72 71 68 68 73 65 63 64 66 63 62 60 58 58 59 59 58 57 55 53 51 51 51 49
42 45 47 49 49 51 51 50 49 49 49 50 51 51 51 52 54 56 60 60 60 62 62 62 61 58 56 58 60 64 65 63 61 61 62 61 58 56 58 59 58 56 54 54 56 56 55 53 52 51 50 50 48 49
40 41 41 40 39 39 38 39 41 42 42 43 45 46 45 46 49 51 51 52 53 53 54 54 53 52 53 56 58 57 55 55 55 54 55 55 55 55 54 54 54 54 53 51 51 50 50 49 49 49 48 47 47 47
34 33 32 32 33 35 37 39 40 40 39 40 43 44 43 44 45 45 47 48 48 49 50 50 49 49 51 52 51 51 51 49 47 48 49 50 51 51 51 50 49 48 48 47 47 47 46 47 47 47 46 46 46 46
27 29 33 34 36 36 35 34 36 38 40 40 40 41 41 40 41 44 45 45 44 44 45 46 47 45 46 47 47 47 46 44 44 46 47 48 48 48 47 46 46 46 46 46 46 46 46 46 45 45 45 46 47 47
26 27 28 30 31 32 32 35 36 35 36 36 36 39 37 36 41 41 42 41 41 42 42 43 44 44 44 43 41 43 44 43 43 44 45 46 45 44 44 44 44 44 45 46 45 44 45 45 45 46 46 46 44 44
19 22 25 27 27 26 29 31 33 33 32 33 33 36 36 35 37 38 38 39 40 42 42 44 45 46 46 45 43 42 42 41 42 43 44 45 45 45 44 44 43 43 43 44 44 45 45 44 44 43 43 43 42 41
21 22 24 25 23 24 28 31 31 30 29 30 31 32 33 34 36 38 38 38 38 39 40 40 41 42 43 43 42 41 41 41 42 43 44 44 44 44 43 43 44 44 44 44 44 44 43 42 42 42 41 40 40 39
20 21 21 21 22 23 27 29 28 29 29 30 31 32 33 34 35 36 37 37 36 36 36 37 38 39 40 41 41 41 40 40 40 40 41 42 42 42 43 43 43 43 43 42 41 41 41 41 40 39 38 38 37 36

GFSWCAN_250_spd_024.txt.gz
Wind_Speed
87 80 75 69 64 59 55 52 59 71 70 65 62 60 59 58 58 60 59 59 57 55 54 52 50 50 49 47 46 46 45 45 43 46 48 49 50 49 49 50 51 49 48 51 50 53 50 55 58 62 67 71 73 77
88 84 78 71 67 63 59 54 50 53 61 68 70 70 63 61 60 61 62 60 61 62 61 57 54 53 52 51 49 46 46 46 48 49 50 50 50 52 54 51 50 52 54 53 52 58 58 60 65 70 73 75 79 82
90 84 81 73 71 67 62 59 54 50 51 54 59 67 69 65 64 64 64 65 66 67 64 62 59 56 56 56 54 53 52 52 53 54 54 53 55 54 58 56 54 59 58 57 57 66 65 70 73 74 79 83 84 91
89 86 82 78 73 72 65 60 58 54 52 51 52 57 62 63 63 65 65 64 64 61 58 61 60 59 60 60 60 59 58 58 58 58 57 57 59 58 57 57 57 64 63 62 64 68 72 74 77 80 85 87 92 98
92 88 86 80 77 74 69 64 59 58 55 53 53 52 53 57 61 63 64 63 62 61 60 60 61 64 64 62 63 64 64 65 65 63 60 61 62 63 61 58 61 66 67 67 68 72 75 79 83 87 88 93 100 105
90 88 88 88 83 77 76 71 64 60 58 56 56 55 56 55 56 58 58 58 60 60 60 60 61 62 63 65 67 68 69 69 68 65 61 62 65 63 59 59 68 70 70 73 75 79 83 87 88 91 98 102 106 109
93 90 88 85 86 80 76 75 70 67 64 60 58 59 58 57 58 57 54 58 59 60 60 60 61 63 67 68 69 69 68 64 60 61 60 60 63 64 63 67 72 74 77 81 82 84 88 92 98 102 104 107 113 116
101 93 92 88 85 83 82 79 77 72 69 68 64 62 60 60 59 58 59 60 59 59 58 53 51 57 64 64 67 64 63 62 60 60 60 63 64 69 70 75 79 80 81 85 89 93 97 101 104 107 111 115 116 118
105 100 92 92 89 88 85 83 79 78 76 74 72 69 66 63 58 59 61 62 63 61 57 54 54 58 60 67 68 69 68 66 64 65 68 69 71 75 79 82 85 88 90 94 98 101 104 106 109 112 116 120 119 124
91 101 102 93 90 87 84 82 81 80 81 80 78 76 73 71 70 70 71 70 69 68 63 59 60 62 64 69 71 71 70 72 69 72 77 77 78 85 89 91 92 94 98 101 105 107 110 114 117 120 123 124 123 124
89 94 96 99 95 91 90 88 84 84 85 86 85 84 81 79 79 80 80 80 78 73 69 67 68 70 71 73 75 77 77 78 79 79 84 83 85 93 96 96 98 102 104 107 111 114 117 119 118 118 117 119 121 122
82 85 94 98 98 96 94 93 91 86 87 87 84 86 89 89 88 90 90 87 82 76 71 74 77 79 79 82 84 85 87 87 87 87 89 89 93 97 98 100 103 105 108 111 111 110 113 114 117 119 119 119 118 118
86 83 82 85 94 97 95 93 91 90 89 90 91 92 93 94 96 96 92 86 85 82 80 81 84 86 87 88 89 92 94 93 93 94 95 97 100 101 103 104 107 109 111 111 112 115 114 112 113 114 116 117 115 114
85 87 89 87 85 90 92 93 94 97 95 96 97 97 96 97 97 96 95 92 90 90 88 88 90 91 91 92 93 94 97 98 98 98 100 102 101 101 103 105 108 111 109 111 112 112 111 110 111 113 115 111 111 110
83 87 92 93 86 85 86 89 89 97 95 97 100 100 99 99 99 98 98 97 95 95 93 94 94 94 96 96 98 99 102 102 98 99 101 101 103 105 107 108 108 108 109 110 109 109 109 110 110 110 111 109 106 105
80 82 84 87 90 92 91 91 93 91 94 97 100 103 103 100 100 100 100 100 99 99 99 100 102 102 103 102 102 105 103 101 100 101 102 103 107 108 103 103 106 105 104 104 105 106 108 108 106 106 104 102 101 97
72 74 78 81 85 92 93 92 90 94 92 92 96 102 106 106 107 105 106 107 105 106 104 101 102 103 101 103 105 103 101 101 103 104 108 109 105 107 105 106 104 102 104 106 107 107 105 104 103 99 96 96 92 86
67 70 73 77 80 83 91 94 90 90 97 99 100 100 101 106 108 109 107 106 106 104 103 106 105 106 106 106 104 102 100 101 102 102 105 108 107 104 101 100 103 104 104 105 104 101 100 99 97 93 91 87 84 80
65 69 72 74 77 81 86 89 88 89 92 96 98 97 98 101 104 105 105 105 106 108 110 108 107 107 105 101 101 101 100 99 99 98 98 101 100 99 101 102 102 102 100 100 98 96 94 93 90 87 83 78 76 74
61 63 68 72 77 79 81 83 85 84 87 90 90 93 97 102 101 99 99 100 103 103 102 103 103 101 101 100 98 98 97 96 95 96 100 99 100 99 100 99 99 98 95 92 90 88 87 86 83 79 76 72 70 69
60 63 66 69 69 73 76 77 78 80 80 82 82 85 89 89 92 96 99 101 102 106 105 103 103 100 98 98 98 98 97 95 96 96 98 99 98 100 100 98 92 89 87 85 84 83 82 80 77 74 72 68 66 63
59 60 62 65 65 64 65 68 72 75 77 78 79 79 83 85 87 89 90 92 94 92 92 94 94 95 95 96 98 98 96 96 96 94 93 93 94 92 90 87 85 83 83 81 78 79 78 74 70 68 66 64 61 59
49 55 58 58 58 57 60 62 64 66 70 72 73 76 79 81 81 81 86 91 90 89 92 93 95 98 96 94 93 91 88 87 88 87 85 84 85 84 82 81 78 77 74 73 75 74 71 67 65 63 60 58 57 55
44 46 48 52 55 57 58 58 59 61 63 66 68 70 72 75 76 79 83 89 83 82 83 83 84 84 86 86 87 84 80 78 79 80 80 80 79 78 76 74 73 71 69 70 69 67 65 62 61 58 56 55 53 52
41 43 43 46 49 51 51 53 54 57 60 62 65 66 68 69 69 70 73 76 71 70 71 71 72 73 73 74 74 74 74 74 74 73 76 73 71 70 70 69 69 66 64 63 60 59 58 57 56 55 52 51 51 50
39 41 43 46 48 50 53 55 57 58 59 58 57 55 54 55 56 58 62 60 62 62 62 63 64 65 67 68 68 68 66 66 66 67 69 68 65 63 63 64 62 59 56 54 55 54 53 53 52 51 49 48 48 49
41 43 46 48 50 51 51 51 49 48 47 47 48 49 51 52 54 53 54 57 59 59 59 59 59 59 60 61 61 60 60 60 61 61 60 59 57 55 55 55 55 53 51 51 51 49 49 49 48 47 46 46 46 45
33 34 35 36 36 38 39 41 41 42 44 47 48 46 45 46 47 50 52 52 53 52 53 53 53 53 53 54 54 55 55 54 52 51 49 49 48 49 51 51 51 49 47 46 45 46 46 46 46 45 44 44 44 44
27 29 31 34 35 37 37 37 39 39 40 41 41 41 42 42 44 46 46 45 46 47 48 48 47 47 48 49 49 49 49 49 48 45 46 46 45 47 48 48 48 47 46 44 44 44 45 44 43 44 43 43 43 43
28 30 30 31 31 31 31 33 34 36 37 37 35 36 36 38 41 40 40 41 42 43 43 44 45 45 46 46 45 44 44 44 45 46 46 45 44 44 45 46 46 45 44 43 42 42 42 42 43 43 43 42 42 42
23 24 25 26 27 30 31 31 32 32 32 32 33 35 35 37 38 38 38 38 40 40 40 41 42 43 45 46 47 47 47 46 45 45 45 45 45 45 45 44 43 42 42 42 42 42 42 41 41 41 41 42 42 42
20 22 25 26 25 26 28 30 32 32 30 29 31 32 32 33 36 38 37 39 40 39 40 42 42 42 43 44 45 46 46 45 44 43 43 43 43 43 43 43 42 41 41 42 42 42 41 40 40 41 41 41 40 39
20 21 21 20 20 21 24 28 29 29 28 29 30 29 30 33 36 37 37 37 38 38 38 38 39 40 42 43 42 42 42 43 43 43 42 41 40 40 41 41 41 40 40 39 38 38 38 39 39 39 37 37 37 36

GFSWCAN_250_spd_027.txt.gz
Wind_Speed
81 75 69 63 60 61 69 67 67 65 64 65 63 66 63 59 53 50 50 49 46 45 45 43 44 44 42 42 42 44 43 45 47 47 46 47 47 47 49 50 53 56 55 57 59 58 52 52 53 55 59 62 64 69
86 78 73 68 61 60 63 66 68 67 64 64 63 64 64 62 62 59 55 56 55 53 52 51 48 48 50 49 50 50 51 52 53 53 50 48 49 51 52 54 58 62 61 62 65 63 60 59 59 61 64 64 70 75
90 83 78 74 67 60 58 64 66 65 67 64 64 63 62 62 60 59 60 60 61 60 58 56 57 56 56 58 58 58 60 59 58 57 56 54 55 56 57 59 64 70 68 66 64 67 65 64 67 67 71 74 78 81
90 88 82 77 71 68 61 56 60 65 66 68 68 65 64 62 60 60 60 60 60 59 58 59 61 61 62 63 64 65 66 66 66 63 61 59 60 60 61 65 69 76 69 66 65 67 67 68 72 74 77 80 84 88
95 90 85 80 77 72 67 61 57 58 61 63 67 70 65 65 65 63 63 64 63 61 60 61 60 63 65 66 68 71 67 64 65 64 62 63 63 66 63 66 66 70 69 68 66 69 71 73 75 79 85 89 91 96
96 91 90 82 79 74 69 65 61 57 56 58 60 62 68 71 72 73 75 74 73 73 67 65 65 66 67 68 67 65 63 64 64 63 62 65 69 71 65 62 69 72 70 70 70 72 75 78 82 87 90 93 99 103
89 94 89 87 83 81 74 71 67 64 60 59 57 55 55 57 58 59 58 64 66 67 68 67 65 66 68 69 68 67 65 64 65 63 63 67 68 67 63 65 73 71 73 73 75 78 81 86 90 93 96 100 103 106
84 85 86 92 86 85 81 75 71 68 68 65 63 59 57 54 53 53 53 56 58 59 59 55 54 61 64 62 62 64 64 62 62 63 63 66 66 68 67 74 75 75 78 79 82 85 89 92 96 99 102 104 107 110
83 84 85 87 91 87 83 79 76 73 73 71 68 65 62 58 56 58 59 60 59 57 56 52 53 58 60 62 61 63 65 67 65 64 66 66 64 68 74 75 78 81 82 85 88 91 95 100 101 104 105 108 111 116
81 84 85 86 89 91 90 84 83 79 77 77 74 72 66 64 63 67 65 64 64 64 58 56 59 59 61 66 71 73 71 71 68 65 69 69 69 76 82 83 84 85 87 91 95 98 102 102 104 105 109 112 116 119
79 82 86 86 90 90 87 83 86 87 86 82 80 77 74 74 74 74 74 71 68 66 62 59 61 65 69 72 75 76 75 75 74 71 76 75 75 84 88 89 90 91 93 95 98 101 103 105 108 111 114 117 119 120
81 82 84 85 85 90 91 90 89 88 88 87 86 84 81 78 81 84 83 79 75 73 66 67 69 74 77 78 79 79 81 82 82 80 81 82 84 91 92 92 93 93 95 98 102 106 107 109 111 112 113 117 120 125
89 83 84 85 85 87 90 92 88 88 90 86 88 90 89 89 90 90 85 81 81 79 77 78 80 82 84 85 87 89 90 89 88 87 87 89 93 94 94 94 98 100 103 105 109 111 113 114 116 117 119 122 123 121
91 85 83 84 87 88 89 94 95 91 92 94 92 93 96 97 96 93 88 86 87 87 85 83 85 87 89 91 94 95 97 96 93 93 93 96 97 99 101 104 106 109 109 111 112 111 112 113 114 114 118 121 117 115
85 83 85 86 84 87 89 92 97 99 96 96 96 98 98 98 96 94 94 93 92 93 91 91 92 91 92 94 95 96 98 99 99 100 101 102 103 106 109 110 109 110 108 111 113 112 111 111 113 114 115 114 114 112
79 79 82 83 88 85 89 91 94 98 104 105 101 99 101 101 102 101 101 99 99 99 100 101 100 99 100 99 99 101 100 100 102 104 104 106 108 111 110 109 109 107 107 107 106 106 110 112 110 108 109 110 108 104
77 76 77 79 85 85 85 90 93 99 98 101 102 103 103 106 109 107 105 104 104 105 106 104 104 105 105 105 103 102 103 104 104 106 107 109 107 105 103 103 104 104 105 106 107 108 107 105 105 105 103 104 100 98
74 74 74 75 77 82 85 88 92 96 94 94 99 103 102 104 103 102 104 104 104 106 108 107 108 108 107 105 105 106 107 106 105 105 106 106 104 103 104 103 104 108 108 106 106 106 104 104 102 102 101 97 95 93
71 70 71 73 75 78 80 83 86 90 90 95 99 99 98 100 103 105 105 105 106 107 106 107 108 108 107 106 106 107 108 109 109 110 110 110 110 107 107 108 106 104 104 105 103 103 102 101 100 95 93 90 87 83
68 68 70 73 74 76 78 81 84 85 88 92 94 99 102 106 108 106 104 104 104 106 108 110 109 110 110 110 111 111 110 110 111 111 111 107 107 108 108 104 103 102 103 102 100 98 95 93 92 87 84 82 77 75
65 66 68 71 74 75 77 79 80 82 84 86 89 93 98 101 104 106 108 108 107 108 108 109 110 110 113 115 115 115 115 113 111 108 107 104 104 101 102 103 103 100 97 95 91 91 90 85 82 80 77 75 72 70
60 63 67 68 70 72 75 78 79 80 81 82 84 88 91 95 98 101 104 105 106 107 109 108 107 107 107 107 107 107 107 107 105 104 102 99 99 98 97 95 93 91 90 89 86 84 82 80 77 74 72 70 68 66
56 58 61 64 67 69 73 75 76 77 78 78 79 81 85 88 90 93 96 99 100 100 102 102 103 103 103 103 103 103 102 101 98 95 92 91 90 90 87 87 87 86 85 83 79 77 76 74 71 69 68 65 63 61
51 55 60 63 64 65 67 67 68 69 74 76 78 80 82 84 86 88 91 94 93 94 94 95 96 96 96 95 93 91 88 86 85 85 86 84 82 81 81 83 83 81 77 72 71 73 71 68 67 65 63 61 60 59
47 48 49 52 54 57 58 58 58 60 63 67 70 72 74 77 80 82 86 85 83 83 84 84 85 84 82 80 80 79 79 79 79 77 80 78 76 74 75 77 75 74 73 70 69 69 67 65 62 61 61 59 59 56
40 42 44 47 50 52 53 54 54 56 57 59 63 66 68 69 71 71 72 70 70 71 72 71 70 70 72 72 73 74 74 73 72 72 74 74 73 71 70 69 69 69 68 67 64 63 62 61 60 59 58 56 56 55
39 42 44 46 46 47 50 52 54 57 59 60 60 60 61 61 61 61 63 65 66 66 65 64 64 65 65 67 68 67 68 69 69 68 69 70 68 68 67 64 63 61 61 62 60 58 57 57 56 55 54 54 53 52
37 40 42 44 47 50 51 52 52 52 51 50 50 50 50 52 54 57 59 59 59 59 58 58 59 61 62 61 62 64 65 65 65 64 64 63 62 62 59 58 58 57 57 58 58 56 54 53 52 52 52 51 50 48
34 36 37 39 40 42 42 43 44 46 48 48 48 47 47 49 51 52 52 52 52 53 54 56 57 58 58 58 59 60 61 61 62 61 59 57 55 55 55 54 54 55 55 55 54 54 53 52 51 50 49 48 48 48
29 31 32 34 35 37 38 40 41 42 42 41 42 43 43 46 47 47 48 49 50 51 53 55 55 54 54 54 55 54 55 54 54 55 56 55 53 52 51 53 54 54 53 53 53 52 51 51 50 50 49 48 47 46
29 30 30 31 32 33 33 34 36 37 38 38 39 39 40 43 45 45 45 46 46 48 48 49 49 49 49 50 50 50 50 50 49 49 49 51 52 52 52 51 51 51 51 51 50 49 48 48 48 48 48 46 44 44
25 26 27 29 31 32 33 33 33 33 33 33 34 35 36 37 40 43 41 42 43 44 45 45 45 46 47 47 47 47 48 48 47 48 48 48 49 52 53 52 51 49 48 48 47 46 45 44 43 43 42 42 42 41
25 26 27 27 27 27 27 29 32 33 33 33 33 32 33 35 38 39 40 41 41 42 43 43 43 43 43 45 45 46 46 47 48 49 50 48 48 47 47 47 47 46 45 44 43 42 41 40 40 40 40 39 38 38

GFSWCAN_250_spd_030.txt.gz
Wind_Speed
81 74 71 66 59 59 55 59 61 63 62 65 65 65 63 58 55 54 53 46 40 40 34 33 34 32 33 31 32 33 35 37 38 38 41 43 44 48 52 54 54 54 55 56 57 60 61 61 63 63 63 64 63 63
82 78 73 67 60 57 59 59 62 62 63 63 60 64 66 60 56 54 53 54 48 39 41 39 40 38 38 39 37 41 39 45 44 47 49 52 55 57 59 61 63 61 63 63 62 65 67 68 64 63 64 65 64 67
83 81 75 71 65 57 59 61 61 64 60 61 61 62 65 64 60 57 55 52 50 49 46 44 43 43 44 45 46 47 48 50 52 54 57 59 61 64 65 67 68 67 69 67 64 67 71 70 69 68 67 67 71 75
85 82 77 71 67 60 57 62 63 64 64 60 59 63 64 64 62 59 59 58 55 55 51 51 51 53 53 55 56 54 54 56 56 61 62 64 66 66 70 67 63 69 69 69 69 70 73 69 71 71 72 73 76 81
87 84 79 72 68 61 58 59 63 65 64 62 60 60 60 63 65 61 61 63 63 60 57 59 57 60 62 60 60 60 60 63 64 66 67 69 68 70 65 62 65 70 69 71 70 69 71 72 73 76 77 81 84 88
89 86 81 76 70 65 61 58 60 65 65 64 62 61 59 60 63 61 59 59 64 65 61 60 60 59 60 61 61 61 62 64 66 66 68 70 71 72 65 62 68 70 72 73 72 69 70 72 74 77 81 85 88 92
92 87 84 80 74 70 66 62 59 58 63 66 66 65 67 66 64 63 61 63 63 63 61 61 60 61 62 64 67 69 70 70 71 72 69 73 74 69 63 61 73 76 73 72 72 74 74 77 79 83 88 90 92 95
96 93 88 84 79 74 72 67 62 59 57 59 58 62 66 64 65 66 68 68 67 66 66 62 62 67 71 71 74 73 73 73 71 71 68 69 67 66 61 73 76 76 75 74 74 77 81 84 87 90 92 92 97 101
93 95 92 88 83 79 77 73 70 65 62 59 58 58 59 58 61 68 69 70 71 70 70 69 70 67 66 65 65 66 67 68 66 64 64 64 62 66 75 79 77 75 77 79 82 85 87 90 92 95 98 101 103 107
87 91 94 90 88 85 81 78 74 72 70 67 64 60 58 59 64 65 63 61 58 57 56 55 56 57 58 61 64 66 66 67 65 65 69 67 65 75 82 80 80 81 82 86 88 90 94 95 97 99 103 105 110 115
79 84 87 91 91 89 87 84 81 78 77 75 70 66 65 67 68 69 67 63 62 60 57 56 58 61 64 67 72 74 72 73 71 69 74 71 69 76 84 85 87 89 90 93 96 97 98 99 102 106 110 112 116 121
76 79 78 82 85 91 93 90 86 84 84 81 78 76 75 76 77 76 72 69 66 64 59 59 64 70 71 73 76 74 75 77 75 73 76 76 78 82 86 90 93 96 98 100 101 102 105 108 109 112 115 117 123 125
77 75 77 79 78 80 85 90 93 91 89 87 87 86 87 86 87 84 77 76 74 70 72 75 77 78 78 79 82 81 82 83 84 84 83 84 87 91 94 96 98 99 102 103 104 107 110 111 114 117 118 122 124 123
80 74 77 78 79 82 83 85 88 90 91 92 93 95 93 93 92 90 84 83 83 82 81 80 83 84 83 86 88 89 92 93 94 94 94 96 98 97 98 100 102 104 106 108 110 113 114 115 117 119 120 119 117 116
84 80 79 80 80 80 80 80 81 85 89 90 92 94 96 97 96 94 93 91 90 90 90 90 90 91 91 94 92 94 97 100 100 100 100 100 101 103 105 108 111 113 114 115 115 116 116 118 117 115 115 113 113 114
86 86 85 83 83 84 83 83 81 82 87 91 92 94 95 97 99 97 96 95 96 96 94 93 94 95 96 97 99 101 101 101 104 104 105 107 110 110 113 115 115 116 114 112 113 112 110 112 112 111 113 115 115 114
86 88 88 87 87 88 85 81 86 88 86 87 89 91 95 93 94 100 103 101 101 99 98 97 98 100 101 103 104 104 104 105 109 112 111 111 115 116 112 112 111 109 107 107 109 113 115 114 115 115 115 114 111 107
78 81 84 86 88 88 89 87 83 82 87 93 92 93 95 97 100 100 102 103 105 106 104 103 101 103 105 106 107 108 111 115 116 117 115 115 115 114 113 113 112 111 113 114 115 115 115 114 113 114 112 107 102 97
76 76 77 79 81 84 86 88 87 87 88 90 94 96 97 99 101 101 102 101 101 106 109 111 111 112 112 114 115 115 116 115 115 116 117 115 114 113 113 113 113 114 115 113 110 113 114 113 111 106 104 96 92 87
71 71 72 75 78 79 80 80 82 83 84 88 90 94 96 96 101 103 103 105 106 106 107 108 108 108 112 114 116 117 119 119 117 116 117 116 115 115 114 113 113 111 111 111 111 112 111 110 107 100 93 87 84 82
68 68 69 71 72 74 75 76 80 81 83 84 87 90 92 95 100 102 104 105 106 107 107 109 112 113 113 114 115 115 117 117 116 115 115 113 114 112 110 110 110 110 110 111 110 107 104 101 93 88 83 81 80 80
66 67 68 68 70 72 73 75 78 79 80 82 83 85 87 89 94 99 101 102 106 109 110 111 112 115 116 117 116 116 115 114 113 113 112 110 108 108 108 109 108 107 106 103 100 96 90 88 86 82 78 77 76 74
62 63 64 65 67 68 70 72 74 76 77 79 81 83 85 88 90 93 95 97 99 100 104 107 110 111 112 111 111 111 110 110 109 108 107 105 104 104 104 102 100 99 96 91 89 87 84 81 79 77 76 74 71 68
56 58 60 61 62 65 68 70 72 73 75 77 79 80 81 83 85 87 89 91 93 96 100 102 103 104 104 104 103 102 101 101 101 99 99 98 96 95 94 91 90 88 85 82 81 80 78 76 77 75 74 71 69 68
50 53 53 53 57 62 64 66 69 70 72 73 75 76 79 81 82 83 85 86 89 91 92 93 94 95 95 95 95 93 92 91 90 89 90 90 87 84 83 83 82 81 78 75 74 74 73 71 70 70 70 69 68 67
43 43 46 52 55 56 58 59 60 62 64 65 66 69 71 74 76 77 80 82 82 83 83 82 81 80 81 81 81 81 81 81 80 80 82 81 78 76 75 76 75 76 76 74 72 71 69 67 66 66 65 64 64 63
39 43 47 49 49 50 51 54 56 56 56 57 58 60 62 64 66 69 70 71 71 70 69 68 70 72 73 73 73 73 73 73 74 74 74 73 73 71 71 70 70 70 70 69 68 68 68 67 64 61 60 60 59 60
40 41 43 44 45 46 47 49 50 51 52 53 54 54 54 55 56 56 58 59 60 61 62 63 63 63 64 65 65 66 68 68 68 68 68 67 67 68 67 66 66 65 64 64 64 63 64 63 61 59 58 58 58 57
36 37 40 42 43 45 46 47 49 50 49 48 47 47 48 50 52 53 54 56 57 57 56 57 58 59 60 60 61 61 62 63 64 64 63 64 64 62 61 61 62 62 62 61 59 57 57 57 58 59 59 58 56 55
33 35 35 37 38 39 39 39 41 43 43 44 45 44 46 49 47 49 50 50 50 51 52 54 55 55 56 57 58 57 57 60 59 60 61 61 61 61 61 60 58 57 57 58 58 57 56 56 56 56 56 56 54 52
29 30 31 32 34 36 38 39 40 40 41 41 40 41 44 45 47 47 46 48 49 50 50 51 51 52 53 55 55 55 54 54 55 56 56 57 58 58 58 58 57 56 55 55 55 55 56 54 53 52 52 52 53 51
29 30 30 31 32 32 34 35 36 37 38 37 39 39 39 40 44 46 45 45 46 47 47 47 48 48 49 50 51 51 52 52 52 52 52 52 52 52 53 54 54 54 53 51 49 48 49 49 49 47 46 46 46 46
27 28 28 29 30 30 30 31 32 33 34 35 37 38 38 37 40 41 41 43 44 44 45 45 46 47 48 48 49 49 49 49 50 50 51 51 51 50 50 48 46 45 46 45 45 45 45 45 44 43 42 42 41 41

GFSWCAN_250_spd_033.txt.gz
Wind_Speed
82 77 74 71 65 59 60 61 59 62 59 60 67 63 59 55 52 51 49 46 43 41 35 32 30 36 39 38 36 32 29 27 26 27 30 33 35 39 41 43 49 53 57 60 62 63 60 55 56 63 67 65 65 66
85 80 73 70 64 60 59 62 60 59 63 60 60 68 62 58 53 52 53 49 47 45 40 33 30 27 30 32 32 30 29 33 31 34 37 38 40 45 48 51 55 57 63 66 67 68 60 59 60 64 68 67 67 66
84 80 74 72 66 63 60 60 58 60 58 62 61 60 66 63 58 54 52 53 50 47 46 43 38 35 32 33 34 37 37 37 37 40 42 45 49 51 52 55 60 65 69 69 68 69 68 64 63 66 68 67 66 68
83 78 75 73 67 62 58 57 55 55 59 59 62 61 64 64 63 62 56 53 52 51 49 50 47 40 37 39 41 41 41 43 45 48 52 54 57 57 60 63 65 70 70 72 72 75 72 68 71 72 69 68 70 73
83 81 77 73 68 64 56 55 55 55 56 58 59 62 59 62 64 63 62 58 55 53 51 50 50 48 46 45 45 47 50 54 57 60 62 63 63 62 59 61 65 70 73 73 73 76 74 72 76 76 74 74 76 80
81 82 79 75 69 63 61 56 51 52 58 58 57 59 60 59 59 60 61 62 60 56 56 52 52 54 55 55 57 58 60 62 62 63 62 61 66 65 62 65 68 76 75 76 75 72 72 75 78 78 77 79 82 88
81 82 82 76 72 67 61 59 54 49 51 58 58 57 57 60 60 60 60 65 64 61 59 57 53 55 61 62 61 62 64 65 64 64 63 65 68 70 72 69 76 77 74 74 74 74 76 79 82 81 82 86 91 96
84 83 83 80 75 71 66 60 56 53 51 54 58 61 59 57 57 58 59 61 62 62 60 58 56 59 61 62 65 68 68 69 67 67 66 72 75 76 69 71 70 71 72 74 75 77 80 84 84 85 89 94 99 103
86 83 82 82 77 74 70 64 59 57 55 54 55 59 59 59 57 57 58 59 60 57 56 57 57 60 61 63 66 70 73 74 72 71 74 76 71 68 68 67 70 72 76 77 80 82 83 86 89 92 96 100 105 107
86 87 81 82 80 75 72 67 64 59 57 56 55 55 59 62 62 62 61 59 57 58 56 58 60 61 67 71 73 75 74 75 74 77 80 69 62 67 72 72 75 78 78 79 82 85 87 91 94 98 103 106 107 110
85 86 88 83 81 81 78 73 68 64 60 57 55 56 58 63 64 64 62 61 61 60 61 61 65 71 75 78 82 84 82 82 77 71 73 68 66 72 78 78 79 81 83 86 89 93 96 99 103 105 108 110 114 118
80 84 84 86 84 82 81 78 74 71 68 65 64 64 62 63 62 61 58 58 57 59 58 63 70 74 75 78 77 74 75 75 73 72 74 71 72 76 79 82 84 87 90 93 96 99 102 106 106 109 112 117 118 122
74 77 82 84 86 87 83 82 81 79 75 74 73 73 73 73 72 66 62 59 60 60 61 66 68 70 72 75 78 79 79 78 80 79 79 81 83 84 86 89 92 94 95 96 99 104 106 108 110 113 117 120 122 122
70 73 73 75 80 85 89 88 86 85 84 83 83 83 83 82 79 74 72 71 72 72 72 73 75 77 77 81 83 86 88 88 89 89 90 93 92 92 94 96 98 101 103 105 107 110 112 114 114 119 122 121 119 117
72 73 72 73 74 76 80 85 92 93 93 92 92 92 91 89 87 85 84 82 81 81 81 81 83 84 85 89 90 91 93 95 96 98 99 99 100 101 103 104 106 108 109 111 113 115 116 115 119 118 119 116 114 112
73 70 71 73 74 73 75 77 81 87 91 94 97 97 97 96 96 96 95 94 92 91 90 91 92 93 93 96 98 100 102 104 106 107 109 110 110 111 113 114 112 112 113 115 118 118 118 118 114 115 114 112 110 108
77 79 75 73 73 74 74 75 76 82 84 86 92 96 98 97 99 102 104 105 104 102 101 99 99 100 102 104 105 104 107 106 108 110 112 113 114 115 115 116 117 118 117 119 118 118 114 113 114 113 109 108 108 105
80 81 81 81 80 79 77 76 76 78 80 86 90 92 94 95 95 95 96 97 97 99 102 103 103 104 104 104 106 108 112 114 115 117 119 120 119 119 119 117 117 116 116 116 114 115 117 117 114 111 107 105 104 102
83 85 85 86 86 85 84 84 83 83 84 85 87 89 90 90 91 92 94 93 93 94 94 96 98 99 102 105 108 108 110 111 112 114 117 118 119 119 118 115 114 114 115 117 117 117 114 110 106 103 102 101 99 96
80 82 85 87 88 90 92 91 90 89 88 89 90 92 92 92 93 93 94 96 99 98 97 99 99 101 104 107 108 109 111 111 112 113 116 116 115 116 116 115 116 116 117 117 113 108 105 102 102 100 98 96 92 88
75 77 79 81 81 82 83 85 86 86 87 88 88 89 90 92 92 93 96 96 96 96 96 100 102 102 106 109 112 113 111 111 112 114 115 116 115 115 116 117 117 115 111 110 107 104 101 100 97 94 91 89 86 83
70 71 72 73 74 75 76 76 77 78 79 80 81 83 85 87 89 90 90 93 95 96 97 98 99 100 102 104 106 108 110 112 114 114 113 112 113 113 111 108 107 105 103 102 99 95 94 92 90 87 85 83 81 79
63 66 67 68 69 68 69 72 73 74 75 76 78 80 81 83 85 86 87 89 89 91 93 95 96 97 98 99 100 102 104 104 104 104 104 105 104 103 101 101 100 98 95 94 90 88 87 85 82 80 78 76 74 74
57 60 59 58 56 58 67 70 70 73 74 76 77 78 80 81 82 83 84 85 88 90 90 92 93 95 95 94 96 97 96 96 97 97 96 96 95 95 94 93 92 89 87 84 83 82 80 79 76 74 73 72 70 69
53 53 53 52 53 57 60 63 65 66 68 70 71 73 75 76 77 77 79 82 85 84 86 87 88 89 90 89 89 89 88 87 87 88 88 86 84 84 84 83 83 82 78 76 76 74 72 72 71 70 69 67 66 66
45 43 46 49 53 55 58 59 60 61 61 62 64 65 66 68 69 70 73 75 74 76 77 78 78 78 78 77 75 74 76 78 78 79 78 76 77 76 75 75 76 77 74 71 69 68 68 68 67 66 66 65 64 64
36 39 45 48 48 49 51 52 54 55 55 56 58 58 59 59 61 63 63 64 66 67 68 67 67 65 65 66 67 69 70 70 71 71 70 68 70 68 67 66 66 67 68 68 67 65 63 63 64 62 61 61 61 61
37 39 40 41 43 45 46 47 47 47 49 51 51 52 53 53 54 55 56 56 56 56 55 56 57 58 60 61 61 62 63 63 64 64 63 62 63 63 63 63 62 61 62 62 62 63 62 61 60 59 58 60 59 59
34 35 36 38 39 39 40 42 42 42 44 45 45 45 46 47 48 48 48 49 50 51 52 53 54 55 55 56 56 57 58 58 58 59 60 59 58 57 55 56 57 57 58 59 58 56 58 57 57 58 59 58 56 56
30 31 33 35 36 37 37 38 37 38 38 39 40 42 44 45 45 45 46 46 45 45 46 48 49 50 51 52 51 51 52 54 55 55 56 57 57 58 58 57 56 54 53 53 53 54 55 54 53 52 54 53 51 50
25 27 29 30 30 31 32 33 34 35 37 38 39 41 41 41 41 42 42 42 42 43 45 46 46 46 47 48 49 50 49 50 51 52 53 53 53 54 54 54 54 54 55 54 53 52 51 49 45 41 42 42 44 44
26 28 29 30 31 32 33 33 33 34 34 35 37 39 38 39 40 41 40 40 41 42 43 43 43 44 45 45 47 48 48 48 48 48 48 48 49 50 51 51 50 49 48 47 46 45 44 43 43 42 42 42 42 42
25 25 26 26 27 27 27 29 30 31 31 33 35 36 35 35 37 36 37 40 40 41 41 42 42 43 44 44 44 44 45 45 46 46 47 47 47 47 46 45 44 43 42 42 42 42 42 41 41 41 40 39 39 38

GFSWCAN_250_spd_036.txt.gz
Wind_Speed
77 77 78 79 75 71 63 58 56 58 63 62 62 59 54 51 44 44 47 47 44 42 39 34 31 28 26 28 29 31 32 34 32 30 28 29 26 26 31 33 36 38 44 49 52 56 56 61 64 63 63 67 70 69
79 78 79 77 73 69 61 57 56 59 64 63 62 57 56 53 46 46 47 46 45 43 40 37 35 31 32 29 31 32 35 35 33 34 31 29 32 34 34 36 41 46 54 56 59 62 64 64 64 67 69 72 72 71
77 77 77 74 70 67 60 58 56 60 66 62 62 56 58 54 50 47 48 49 46 43 40 39 36 35 36 32 30 31 35 36 35 34 36 38 38 39 41 43 50 55 59 63 65 65 66 67 71 75 74 73 73 73
77 78 77 73 69 65 59 56 57 58 60 67 66 61 61 55 54 50 47 47 48 49 47 45 42 39 40 40 36 31 33 35 36 37 39 40 42 44 48 54 59 65 66 66 65 69 69 74 78 77 75 75 75 75
82 81 78 74 69 65 60 56 57 57 56 60 60 62 62 64 58 55 52 50 50 49 51 52 47 46 45 44 44 45 41 42 45 45 45 47 52 54 56 58 63 70 71 70 70 74 76 78 79 76 74 75 76 77
81 81 78 75 69 66 63 58 57 58 56 55 58 56 56 59 65 61 56 56 54 54 52 51 52 52 50 50 50 54 56 55 54 52 55 58 61 62 59 60 69 73 72 74 76 79 83 84 79 77 77 77 80 82
78 80 78 75 71 68 64 59 57 57 58 55 55 55 56 57 58 59 63 63 60 59 56 53 53 54 54 57 59 58 58 60 60 63 63 65 67 66 63 64 73 73 76 79 80 84 83 79 77 79 80 82 84 86
80 79 78 77 73 69 63 59 58 54 51 49 51 53 53 54 55 59 58 62 65 64 62 58 59 61 60 61 63 65 65 63 62 61 63 68 69 68 65 71 74 77 79 79 84 84 80 79 81 83 84 87 90 93
80 81 78 75 73 70 66 60 59 58 56 54 50 45 50 56 56 54 56 57 60 59 60 59 59 62 65 69 70 71 71 70 68 67 67 65 63 64 73 75 77 79 81 86 85 82 82 84 85 87 90 94 96 100
81 83 82 80 75 72 69 65 62 60 56 54 51 47 44 46 55 58 56 55 54 54 53 57 62 63 68 72 75 76 75 73 70 71 72 70 68 73 79 79 82 86 87 81 81 83 85 87 90 92 95 98 102 106
77 81 80 77 75 72 70 68 64 59 55 53 52 52 51 51 51 51 53 53 55 53 53 55 58 62 67 70 72 72 70 70 70 72 75 71 70 77 84 86 83 79 81 84 86 88 90 94 97 100 104 106 109 113
76 79 77 77 77 74 72 69 66 62 60 59 56 55 54 54 54 53 51 52 54 56 56 62 67 69 69 71 72 72 74 74 73 74 76 76 78 79 80 80 82 84 85 88 91 95 99 102 106 109 112 116 117 119
68 70 74 74 76 78 75 74 71 68 67 66 64 63 61 58 56 52 50 50 54 58 62 67 70 72 71 73 75 76 78 78 80 78 76 76 78 79 80 83 86 89 92 95 99 102 106 109 112 116 119 120 123 123
67 63 65 73 73 74 77 79 76 75 73 72 71 70 70 66 60 56 56 57 58 60 62 65 68 69 70 72 74 75 77 78 78 79 79 82 85 87 90 92 94 97 101 104 108 111 113 117 122 124 125 125 126 126
68 66 64 66 71 77 76 77 78 79 79 78 74 75 74 72 70 68 67 67 67 67 68 68 70 73 74 77 79 82 85 87 88 88 90 92 94 96 98 101 104 107 110 114 117 120 122 123 125 126 126 124 121 116
61 63 65 67 67 67 74 80 81 82 83 83 84 84 83 83 81 80 78 78 78 79 80 81 82 83 85 87 89 92 95 96 97 98 100 103 105 108 110 112 115 118 119 121 123 123 124 124 124 122 117 114 111 110
62 63 62 62 65 67 70 75 78 82 85 85 86 88 90 90 91 90 89 87 88 88 89 90 91 93 95 97 98 100 103 106 108 109 111 113 116 117 119 122 124 125 126 125 123 122 120 116 115 115 111 110 104 102
70 68 64 64 65 64 65 67 69 72 76 80 83 85 87 90 92 95 97 100 100 99 100 100 101 103 105 106 107 107 109 111 113 116 118 120 122 125 126 126 123 120 120 119 115 115 118 117 113 106 100 100 98 96
73 72 72 73 71 68 66 68 70 72 75 78 81 85 88 89 91 94 96 98 99 101 104 106 107 108 108 108 110 112 112 112 112 112 113 115 116 116 116 114 113 114 115 115 112 109 106 104 103 99 96 94 92 90
74 74 75 75 74 73 73 73 72 72 74 76 79 82 82 84 85 87 90 92 93 94 96 97 99 101 102 104 105 104 104 106 107 109 110 111 112 112 113 113 113 113 111 108 106 103 101 98 98 93 88 88 85 83
77 77 78 79 79 76 76 77 77 77 78 79 80 82 83 84 85 84 85 86 87 87 89 92 95 100 101 103 103 104 107 109 110 111 113 114 114 115 116 114 110 107 105 103 100 100 99 96 92 90 86 84 80 78
77 77 77 78 79 78 78 80 81 82 82 82 83 84 85 85 86 85 86 86 87 89 92 95 96 98 99 101 104 106 106 106 106 104 103 103 103 102 100 98 98 98 97 97 94 90 89 88 86 82 79 77 76 74
71 73 75 76 77 76 78 79 80 79 80 80 81 81 81 82 82 83 84 86 87 89 90 91 90 90 92 93 94 94 94 95 95 95 94 93 92 93 94 94 92 90 89 87 86 84 82 80 78 77 75 74 72 71
61 63 65 65 68 69 72 73 75 77 77 79 79 79 79 79 81 81 82 84 86 85 84 85 86 87 88 90 90 90 90 91 89 87 87 87 86 86 86 84 83 80 78 77 77 76 75 74 73 72 71 70 68 67
53 55 56 57 58 60 63 65 67 68 70 70 72 73 74 75 75 75 78 82 80 79 80 82 82 81 82 82 83 83 83 81 80 79 77 78 78 77 78 77 76 74 72 73 72 71 71 69 68 67 67 65 65 63
53 53 54 56 56 56 57 59 60 61 62 63 63 63 64 65 66 69 71 69 69 70 70 71 71 71 71 72 73 72 70 69 68 68 68 70 70 70 70 71 72 73 71 68 66 66 67 67 66 64 63 62 60 60
45 45 45 46 48 50 51 52 53 54 56 57 57 57 58 59 60 61 61 62 63 62 60 60 61 61 59 59 60 61 63 63 64 64 64 66 66 65 65 65 64 65 65 65 63 61 61 62 60 58 57 56 56 58
36 37 42 44 45 44 45 44 45 46 47 48 48 49 50 52 53 54 54 54 54 54 53 52 52 52 53 55 58 59 60 61 61 60 60 60 59 60 60 59 58 58 58 58 59 59 59 59 59 59 59 58 58 58
36 36 36 36 37 37 38 38 38 38 40 41 42 43 45 45 45 44 45 45 46 47 48 50 50 51 53 54 55 56 56 55 55 56 55 54 54 52 52 53 54 54 53 54 53 52 53 54 54 54 55 56 54 53
29 30 31 32 33 34 35 36 36 35 36 36 37 38 39 39 40 41 43 43 43 43 44 46 47 48 49 49 49 49 51 51 51 52 52 52 52 52 52 51 51 51 50 50 51 52 50 49 48 46 45 46 48 48
25 26 26 27 28 29 30 30 31 32 34 35 37 38 38 38 38 39 39 38 39 41 43 44 44 45 45 45 45 44 45 47 48 49 49 50 50 51 51 51 51 50 50 50 50 50 48 47 46 45 43 41 39 39
25 26 27 28 29 30 31 31 32 32 32 33 35 35 36 36 35 35 35 35 37 38 39 40 41 41 42 42 42 43 43 44 44 45 45 46 47 47 47 48 48 47 46 43 43 44 44 43 42 41 40 39 37 37
24 24 24 24 25 26 27 28 29 30 31 33 33 32 31 31 32 33 35 36 37 37 37 38 39 40 40 40 41 41 42 42 43 43 44 44 44 44 43 42 42 42 42 43 43 42 40 40 40 39 38 37 36 35

GFSWCAN_250_spd_039.txt.gz
Wind_Speed
66 65 67 72 73 77 74 69 62 59 60 62 65 66 61 58 52 47 47 46 46 41 38 39 36 36 37 31 30 31 30 33 33 33 32 33 31 31 31 33 36 35 37 40 40 43 48 55 56 59 64 64 67 69
66 68 73 72 74 75 73 66 61 60 62 62 66 66 57 53 50 47 46 46 46 46 43 42 40 36 35 32 28 31 34 32 33 35 36 36 34 35 34 34 38 40 44 43 46 49 55 58 62 64 66 67 69 74
68 70 69 74 76 75 69 63 60 61 64 61 64 67 60 55 49 47 44 47 45 46 45 43 41 39 37 35 33 31 32 32 34 37 38 38 37 39 39 40 42 46 49 48 52 58 63 64 67 68 69 71 74 77
68 69 73 77 73 72 68 60 57 57 65 63 63 61 63 59 52 45 42 42 45 47 49 47 44 42 41 39 37 37 37 34 32 37 40 40 39 39 39 40 43 53 55 56 59 64 66 69 70 71 73 76 79 79
68 70 76 77 74 68 66 59 55 55 61 65 60 59 62 62 55 49 46 44 44 48 49 49 47 47 46 45 44 42 43 44 43 41 38 38 40 41 43 46 53 63 62 62 64 69 71 73 76 77 77 79 80 84
69 73 77 75 72 69 65 59 54 55 58 65 65 61 61 60 56 52 51 47 45 47 48 50 50 48 49 50 51 50 50 50 50 49 49 50 54 52 49 55 65 69 69 71 71 74 76 77 77 77 80 81 86 84
69 73 76 74 68 66 65 59 54 53 56 64 64 60 60 60 60 56 54 54 52 50 48 48 49 52 57 58 59 59 59 57 55 55 56 57 58 58 56 62 70 69 71 73 75 74 78 78 79 82 84 88 87 85
72 72 74 75 70 64 64 59 55 52 57 61 64 62 61 61 58 58 57 53 53 52 51 49 50 55 57 58 60 62 63 62 61 61 63 63 61 62 62 70 70 73 75 77 78 79 79 82 84 84 89 90 87 90
74 71 72 74 71 67 65 62 57 55 56 60 61 63 64 64 63 62 62 61 60 57 56 55 57 59 59 62 64 65 65 64 63 63 64 64 63 66 74 76 77 78 81 81 80 81 84 85 88 90 89 90 92 94
71 69 71 73 72 70 67 64 60 56 57 57 60 61 62 63 64 61 57 55 56 57 59 63 68 69 70 72 74 73 72 70 68 70 72 70 69 76 81 81 82 80 78 79 82 83 86 90 90 91 92 95 97 100
73 71 72 75 73 70 67 64 60 54 51 52 53 50 52 53 55 56 55 57 59 56 56 59 65 69 71 73 77 78 75 75 71 70 73 70 68 73 76 77 77 80 82 84 86 88 89 90 92 94 97 101 105 109
71 70 70 72 74 73 70 67 63 60 56 53 54 54 53 50 50 47 42 40 43 50 58 66 69 70 70 70 71 69 71 71 70 70 70 66 68 74 77 78 81 84 86 87 88 90 91 94 97 101 104 109 113 117
69 70 70 69 70 72 71 67 65 62 58 57 56 56 56 56 53 49 46 46 52 55 58 62 64 65 64 66 69 70 71 71 71 70 70 73 77 80 80 81 82 84 85 88 90 94 98 102 105 109 113 116 121 125
64 67 66 68 70 70 69 69 68 66 65 63 61 60 61 57 52 51 53 55 56 56 58 59 61 62 63 66 68 70 72 72 72 74 75 79 81 82 83 83 84 87 90 95 99 103 106 110 114 118 122 125 128 130
56 58 62 65 71 73 73 71 70 70 69 68 68 66 64 62 61 60 60 60 61 61 62 64 65 66 67 69 71 73 75 75 75 76 79 81 83 84 87 90 94 97 100 104 108 112 115 118 121 124 127 128 128 122
58 57 58 59 61 65 72 74 73 73 74 75 75 73 70 70 69 69 69 69 69 69 69 70 71 72 74 76 77 79 81 82 84 87 88 91 94 95 98 101 104 107 110 114 117 120 123 126 126 128 124 119 118 118
59 59 57 54 56 58 62 66 70 73 75 76 77 78 76 77 78 78 78 78 78 78 78 79 80 82 83 84 85 88 91 93 95 98 100 103 105 107 108 111 114 116 119 122 126 126 123 120 115 114 114 118 116 110
57 58 60 59 59 58 60 62 64 66 71 75 77 79 80 83 84 84 84 84 84 86 86 87 88 90 92 94 96 98 100 103 105 106 108 110 113 115 118 121 124 125 122 114 110 111 112 112 112 116 111 102 98 100
58 59 60 59 59 62 62 61 63 66 69 72 77 81 83 85 87 89 89 90 91 93 95 97 98 98 101 103 105 106 107 110 113 115 116 117 119 119 118 117 113 111 113 113 114 114 113 113 109 102 100 97 93 93
64 60 60 59 61 62 63 63 64 66 67 69 71 75 78 81 83 86 88 91 91 92 94 95 97 99 101 104 105 106 107 107 108 107 107 108 111 112 113 113 113 112 112 112 110 107 103 101 101 98 96 93 89 86
69 68 67 65 65 63 63 62 64 66 67 69 71 73 75 77 79 82 83 84 86 87 89 93 95 96 97 98 99 101 102 102 104 105 104 105 106 107 107 105 103 100 99 98 98 99 100 97 94 92 90 88 85 81
69 69 75 74 74 74 70 69 68 69 69 69 68 68 72 73 73 75 76 77 79 81 82 83 84 85 87 90 93 95 96 97 98 98 97 96 95 95 94 94 94 93 91 91 90 89 89 88 85 83 80 79 78 76
69 70 72 72 74 74 75 74 74 73 72 73 73 75 76 75 74 75 75 76 78 79 78 79 81 82 84 86 88 88 88 88 88 88 88 89 90 90 89 88 87 86 86 85 84 83 82 81 79 77 75 74 72 70
67 69 71 71 71 71 72 72 72 73 74 73 73 74 75 75 75 75 77 80 83 80 79 81 83 84 85 86 84 84 84 84 85 86 86 85 84 83 82 81 81 80 79 79 78 76 75 75 75 73 71 69 69 67
67 67 67 68 69 69 69 69 70 69 71 71 72 74 75 75 75 75 78 81 78 77 77 76 77 78 77 78 80 80 79 79 77 77 78 77 77 76 76 75 74 74 72 72 72 72 72 70 69 67 67 65 64 65
60 59 61 63 63 64 65 67 67 67 67 67 68 69 68 69 69 71 74 72 70 70 70 70 70 70 69 69 69 70 70 70 69 69 70 71 72 72 71 70 70 69 67 65 65 66 66 65 65 65 66 65 63 61
56 56 58 58 58 58 59 60 61 61 60 61 62 62 62 63 65 66 65 65 65 65 64 64 63 63 63 62 63 63 63 63 64 65 66 66 65 66 65 64 64 65 65 63 62 61 62 62 62 62 62 62 61 60
50 50 52 52 52 54 56 56 56 56 56 57 57 57 57 58 59 59 60 60 58 57 56 55 55 55 55 57 58 59 59 59 61 62 61 61 60 60 60 60 59 60 60 59 59 59 59 59 59 60 61 61 61 60
38 39 40 41 43 44 45 46 47 48 49 49 49 50 51 51 52 52 52 51 50 50 49 49 51 53 54 54 55 57 57 57 56 56 57 57 57 56 55 56 56 56 56 57 55 54 55 56 56 55 56 55 54 54
33 34 35 36 37 38 40 41 42 42 43 43 44 44 44 43 44 45 45 47 48 49 49 49 50 50 50 51 51 52 52 53 53 52 51 51 51 51 51 51 51 51 51 52 53 52 51 51 50 48 48 48 49 48
29 29 30 31 32 32 33 34 34 35 36 37 38 40 41 42 42 42 42 43 44 46 46 47 47 47 48 48 49 49 49 50 50 50 50 50 50 50 50 50 50 50 50 50 50 50 50 48 47 46 44 42 41 41
28 28 29 30 31 32 33 34 35 35 36 36 37 37 37 38 38 39 38 40 42 43 43 43 44 45 45 45 46 46 47 48 48 48 47 48 48 48 49 50 50 49 48 47 46 46 46 46 44 42 41 40 40 39
25 26 26 27 28 28 29 30 31 33 34 35 35 34 33 33 35 36 38 39 38 38 39 41 42 42 43 44 44 44 44 45 44 44 45 47 47 47 46 45 45 44 44 44 45 45 44 44 42 41 40 39 39 38

GFSWCAN_250_spd_042.txt.gz
Wind_Speed
58 58 57 58 58 55 56 61 64 67 67 66 60 60 60 60 63 65 69 61 51 48 47 44 41 40 40 39 38 36 34 33 32 32 33 34 34 34 35 36 37 38 37 39 41 42 41 45 48 50 55 58 63 65
55 56 53 54 57 58 61 65 69 69 65 60 61 63 62 61 61 67 63 57 53 48 47 47 44 40 39 38 37 36 36 35 34 34 35 35 37 38 39 38 41 40 42 42 45 47 47 47 51 54 60 64 66 70
57 59 60 60 63 64 67 70 69 65 63 60 64 64 64 62 63 67 61 55 49 48 50 48 41 41 39 39 39 39 37 34 34 35 36 36 37 39 40 42 43 46 48 49 49 50 52 51 55 62 65 68 72 77
60 59 61 63 65 68 71 69 66 63 60 62 67 68 62 59 61 57 55 50 48 46 46 48 44 42 41 39 39 38 37 37 37 36 34 35 34 38 41 42 45 52 54 49 45 51 57 61 65 68 70 74 77 79
53 54 57 61 67 70 70 69 65 62 60 61 67 67 62 57 59 55 52 52 48 46 46 48 49 45 45 44 43 42 41 40 41 40 38 37 38 38 36 38 46 52 51 53 57 62 64 68 72 74 76 78 80 83
55 56 59 63 67 69 68 66 64 57 59 64 62 63 60 58 58 51 51 49 47 47 47 46 46 48 49 49 48 47 46 46 45 43 43 43 47 46 45 50 61 61 61 62 63 66 69 72 74 77 80 84 86 87
55 57 60 64 69 70 68 64 62 54 56 62 65 65 63 61 58 53 51 48 46 44 42 42 46 48 51 53 54 53 52 52 50 51 52 53 54 53 52 57 65 65 67 68 69 72 75 77 80 83 87 88 89 88
53 57 63 67 71 70 65 63 59 54 51 60 61 63 66 62 58 56 53 47 45 43 41 42 45 49 52 56 56 56 58 59 58 57 58 58 58 60 61 69 69 71 72 73 75 77 81 83 87 88 89 89 89 92
58 61 67 68 68 68 62 60 56 53 49 54 62 61 64 65 60 57 59 53 50 48 47 47 51 53 52 55 57 59 59 58 59 60 63 63 61 63 67 70 71 73 75 77 81 83 84 86 87 86 87 90 94 96
58 64 70 69 69 65 65 58 54 52 51 52 57 64 62 63 63 64 62 60 58 55 52 53 55 56 59 62 62 60 59 58 58 61 64 63 63 71 75 77 79 80 81 81 82 84 85 86 87 88 93 95 98 99
59 68 73 72 70 66 64 61 57 54 51 51 52 57 65 67 65 63 61 61 60 58 57 57 59 61 62 64 66 65 63 65 64 66 70 69 71 77 80 82 83 82 81 82 84 85 86 89 92 94 97 99 100 100
63 70 71 71 70 68 64 64 61 59 55 52 50 51 58 63 63 60 58 58 57 57 57 63 67 68 70 73 72 70 72 73 74 75 77 76 76 77 78 78 79 81 83 85 88 90 92 94 96 97 99 100 103 107
61 66 69 71 70 68 67 64 60 57 54 51 49 46 43 45 53 56 60 60 63 66 69 70 71 71 70 71 72 73 74 73 73 70 69 72 76 78 80 81 82 84 87 89 90 91 93 95 97 99 103 107 111 116
60 62 64 65 68 67 67 63 60 57 56 56 54 51 50 49 48 51 55 60 63 63 65 66 67 67 69 68 66 67 67 67 67 69 72 74 75 77 78 80 81 84 86 88 90 94 97 100 103 107 111 115 120 123
59 57 61 64 63 63 64 65 63 60 58 58 58 55 51 49 49 52 56 60 62 62 64 64 65 66 67 67 67 68 68 66 67 70 74 76 77 79 81 83 86 88 91 95 98 101 105 109 113 117 120 122 126 128
58 57 58 63 64 62 63 65 68 68 66 63 61 58 58 58 57 56 57 58 60 62 64 66 67 68 69 70 71 73 75 75 77 78 80 82 84 86 89 91 94 98 101 104 108 112 116 120 122 124 126 125 121 118
56 56 54 57 61 63 63 64 65 68 69 69 68 67 65 64 64 64 64 63 64 66 68 69 71 74 75 75 78 80 83 85 86 88 90 93 95 96 98 101 104 107 110 114 117 121 123 123 121 117 115 115 116 119
54 54 55 55 55 56 59 62 65 65 66 70 71 71 72 73 72 72 72 72 73 75 77 80 81 83 84 86 87 88 90 92 94 97 100 102 104 107 110 113 116 118 119 119 119 116 113 110 111 112 114 115 110 106
51 52 54 55 56 55 56 58 59 61 63 65 69 72 74 76 76 76 78 79 80 82 84 85 87 88 91 93 95 96 98 101 103 106 108 109 110 113 115 118 118 115 113 113 112 113 114 113 111 109 103 100 99 99
53 52 53 53 54 56 55 55 56 58 60 61 63 65 69 73 76 79 82 85 88 92 94 95 97 98 99 99 100 102 103 104 106 108 110 112 112 113 111 109 110 112 113 112 111 110 108 103 99 98 96 96 93 91
54 56 56 56 56 57 56 57 59 60 62 63 65 67 69 72 75 77 80 82 84 85 86 88 90 92 92 94 96 97 98 99 100 100 102 105 107 109 107 105 104 105 104 101 100 99 96 94 93 93 92 91 89 86
58 56 57 57 58 57 58 59 61 64 64 66 68 70 70 70 71 74 77 79 80 82 84 86 86 88 91 92 93 92 91 91 92 94 95 97 98 98 98 97 96 95 94 93 92 91 89 89 88 87 84 83 81 80
64 64 63 64 63 62 64 62 61 61 63 65 67 68 69 70 70 70 70 73 75 76 78 77 77 77 78 79 80 82 84 85 86 88 89 90 89 89 88 88 88 87 86 85 85 85 84 83 82 80 78 77 74 73
65 65 65 65 65 67 67 67 66 66 67 67 67 66 65 66 67 67 67 72 73 71 72 74 75 77 78 79 80 80 81 83 84 83 83 83 83 83 83 82 82 82 82 82 81 81 79 77 76 75 73 71 70 68
64 65 66 66 67 67 66 67 68 69 71 72 71 70 70 68 67 67 71 75 74 72 72 74 76 76 77 76 76 76 77 78 78 77 77 78 78 79 79 78 78 77 76 76 75 74 73 72 70 69 68 66 65 66
62 63 64 64 64 65 65 66 67 67 67 67 66 67 67 65 66 67 72 71 70 70 70 70 70 71 71 72 72 73 73 73 74 74 74 74 74 74 74 74 73 71 69 68 68 69 68 67 66 66 65 65 64 64
60 60 60 59 60 61 61 61 61 61 62 62 62 63 61 60 62 64 65 65 66 67 68 69 70 71 71 70 69 69 69 69 69 69 70 70 70 69 69 68 68 67 65 64 64 63 64 64 64 64 64 62 62 62
57 57 58 58 59 58 59 57 58 58 60 60 61 59 59 59 61 63 64 65 66 66 66 66 66 65 65 65 65 65 65 65 65 65 65 65 65 64 63 62 62 62 62 61 61 60 61 60 61 61 61 62 62 61
51 53 55 56 56 55 55 56 56 57 58 59 58 58 57 57 58 59 59 59 59 59 59 59 59 60 61 61 61 61 61 62 62 61 61 60 60 59 59 59 58 59 59 58 57 57 57 58 59 58 59 59 59 58
44 46 48 49 49 48 48 48 50 52 53 53 52 52 52 51 51 52 52 53 53 54 56 57 57 58 57 57 57 58 57 57 57 56 56 55 55 55 55 55 55 55 55 55 55 54 54 54 53 54 53 52 52 54
38 39 41 41 41 41 41 42 43 44 45 45 45 45 46 46 47 48 49 50 51 51 52 53 53 53 54 54 54 54 54 53 53 53 53 52 53 53 52 52 53 53 53 54 53 52 52 51 50 49 49 49 48 47
34 35 36 36 37 38 39 40 41 41 42 43 43 44 43 43 43 45 45 47 48 48 49 49 49 49 50 51 51 51 51 52 52 52 51 52 52 51 52 52 53 53 52 51 50 50 49 49 49 49 48 48 46 45
30 31 32 33 34 35 35 36 37 38 38 40 40 40 40 40 41 42 43 44 44 44 45 45 46 46 47 48 49 49 49 49 49 49 49 50 50 50 51 50 49 50 50 49 48 48 48 49 49 48 47 45 44 43

GFSWCAN_250_spd_045.txt.gz
Wind_Speed
45 47 52 59 61 62 61 60 60 61 60 57 57 60 63 64 63 61 66 68 67 63 61 57 50 48 48 43 39 37 38 39 36 34 33 31 30 32 33 33 34 34 34 38 39 41 39 44 46 48 50 53 54 56
51 56 58 59 64 66 64 64 61 59 57 57 60 62 62 64 60 63 66 66 65 61 56 54 51 50 49 44 37 35 35 39 39 37 34 32 34 33 34 37 39 39 40 42 45 46 46 45 49 53 54 55 56 60
53 56 57 56 54 55 54 53 55 57 56 57 62 63 63 59 59 64 66 67 66 58 53 53 50 49 48 44 38 38 39 41 41 37 36 36 36 36 36 38 41 42 45 46 46 48 49 50 53 55 58 60 63 69
53 54 56 56 54 54 55 54 54 54 56 62 62 61 60 59 61 66 69 76 69 57 55 52 50 48 47 42 40 40 40 40 40 38 37 37 37 39 39 39 42 47 47 45 46 49 49 53 56 60 64 67 70 72
51 51 51 51 51 50 50 52 54 56 62 63 60 59 58 61 63 65 67 67 65 59 53 52 50 49 48 46 42 41 40 40 40 41 40 40 41 42 41 42 47 49 48 46 49 54 58 62 65 68 71 72 74 78
48 47 48 52 51 50 52 53 58 62 63 61 59 58 60 66 67 64 65 66 62 57 52 49 49 50 49 47 44 43 42 42 43 42 42 42 45 43 41 44 52 51 53 55 58 61 63 66 68 71 75 78 80 83
47 47 47 50 51 53 56 60 62 62 60 56 58 58 59 61 60 58 57 58 57 56 54 52 50 50 51 50 48 47 47 47 45 46 46 47 48 49 49 53 58 60 61 63 65 67 70 73 75 78 80 83 86 90
45 44 46 48 54 60 64 63 60 59 55 53 56 59 60 60 56 53 54 57 56 55 52 49 48 48 49 50 51 50 50 49 49 51 51 52 52 55 57 64 67 68 69 71 73 75 76 78 79 82 86 90 93 93
44 42 44 52 57 65 64 61 59 58 53 52 57 60 60 58 54 54 56 55 54 51 48 50 52 52 51 51 50 50 51 50 50 52 54 55 57 60 64 67 69 70 73 74 75 76 79 83 87 90 92 92 92 92
41 43 51 55 61 65 63 59 57 55 52 50 56 63 64 59 57 58 56 54 54 51 50 52 53 52 52 52 52 51 52 52 51 54 56 58 61 67 68 69 69 70 73 76 80 83 86 88 90 90 90 92 95 98
44 47 51 54 61 65 63 58 56 53 52 49 51 60 65 63 61 60 58 56 54 53 52 52 53 53 53 54 54 53 54 56 55 57 60 58 60 67 70 73 76 79 82 85 86 87 88 88 90 92 94 96 97 97
47 50 53 58 63 65 61 56 56 55 52 49 52 57 59 62 63 57 58 59 60 58 57 58 58 57 57 58 59 57 56 55 54 57 61 62 70 74 77 80 83 86 87 88 89 90 91 92 93 94 95 97 100 102
51 51 57 65 65 63 60 57 57 55 54 51 48 49 49 48 51 57 64 63 64 64 63 63 64 64 64 64 64 64 65 66 68 67 67 72 78 80 80 82 83 85 88 88 89 89 90 92 94 96 99 102 106 109
54 54 60 65 63 64 63 60 56 56 56 51 46 44 41 39 40 50 58 64 69 71 71 71 71 69 69 69 69 70 70 70 69 71 74 78 81 81 81 81 81 82 84 86 88 90 93 95 99 102 105 109 113 117
53 56 62 64 64 62 60 59 60 57 57 54 50 42 39 41 44 44 47 55 63 68 68 66 66 66 68 69 71 73 74 75 78 79 78 77 77 79 81 82 84 86 88 91 94 97 100 103 106 110 113 117 121 124
53 56 58 62 64 64 62 61 62 60 58 59 53 50 50 49 50 51 51 52 54 57 62 66 68 70 72 72 72 75 76 76 76 76 77 80 81 83 85 87 89 92 96 99 102 105 107 110 115 119 121 121 121 120
52 56 57 59 63 65 66 63 63 63 64 59 57 58 56 54 53 53 53 54 55 56 59 61 64 68 68 69 72 75 76 77 79 81 83 84 85 89 92 95 98 102 105 108 109 113 116 119 121 120 118 115 113 116
51 53 55 56 60 63 65 65 66 65 62 60 61 61 59 59 58 58 58 60 61 62 64 66 67 69 71 72 73 75 77 78 81 85 90 94 96 99 102 104 106 108 111 115 117 117 116 114 115 112 112 114 115 113
52 51 52 52 52 55 60 64 65 65 65 64 62 63 66 67 67 67 67 68 69 71 72 73 74 75 77 78 80 82 84 87 90 94 97 100 104 107 109 112 114 115 116 115 114 113 111 111 113 114 112 110 108 105
49 50 49 48 49 51 53 55 59 63 65 65 66 65 66 68 70 71 73 75 77 79 80 81 82 84 86 88 90 92 94 96 100 103 104 106 109 112 112 112 112 113 111 110 112 113 112 110 107 105 104 101 97 95
49 49 49 49 49 50 51 54 56 58 59 60 61 64 65 67 69 71 73 73 73 75 78 81 85 88 91 93 96 97 99 102 104 103 104 105 106 108 107 107 107 109 110 109 107 105 103 101 98 96 95 93 90 88
50 49 49 49 49 49 49 51 54 55 58 60 61 62 63 64 66 69 71 73 75 78 81 82 85 87 89 91 92 94 96 98 99 99 99 100 103 103 102 102 102 102 101 99 98 95 93 92 91 90 88 85 82 80
50 52 51 52 52 52 54 55 56 56 58 60 61 62 63 64 66 68 70 73 76 77 77 79 82 84 86 87 89 90 92 91 92 92 92 92 93 93 93 94 94 92 90 89 88 88 88 87 84 80 78 76 75 74
52 53 55 56 57 58 59 59 60 61 62 64 64 64 66 68 70 71 72 74 76 77 78 79 79 80 80 80 81 82 83 84 85 86 86 87 86 85 83 83 83 83 84 83 83 81 79 76 74 73 72 71 69 68
54 56 56 56 56 57 58 59 59 60 60 61 62 62 63 64 64 65 67 71 70 70 70 69 70 71 72 74 76 77 79 80 80 80 79 79 79 79 79 79 78 77 78 77 75 73 72 71 70 68 67 66 66 66
53 54 54 54 56 57 58 59 60 61 61 61 62 63 65 66 65 65 69 69 68 67 67 68 69 71 71 71 71 73 75 76 76 76 76 75 74 73 73 74 73 71 70 70 71 70 69 68 67 66 65 63 63 63
54 54 55 56 58 59 60 60 60 61 61 61 63 64 63 62 61 63 66 66 66 66 67 67 65 66 68 69 71 72 73 72 71 70 70 70 69 69 68 68 67 67 66 64 64 64 64 64 64 63 62 61 59 59
51 52 54 54 57 57 59 58 58 59 59 56 57 58 58 58 58 60 61 63 65 64 62 63 65 67 67 67 67 67 66 66 66 67 66 66 65 64 64 64 63 63 62 61 61 60 60 60 60 59 60 61 61 60
46 47 49 50 50 50 50 52 52 51 51 52 54 56 58 58 59 59 59 60 59 59 60 61 62 62 62 61 62 62 62 61 62 61 61 61 61 60 60 59 58 58 58 57 57 57 57 57 58 59 59 59 58 58
40 41 44 46 48 49 49 48 49 49 48 48 49 51 52 53 54 54 53 53 54 56 57 57 58 58 58 58 57 57 57 58 58 57 57 57 56 56 56 56 56 56 56 55 54 54 55 55 54 54 54 53 52 52
37 38 40 41 42 43 45 45 45 45 45 45 45 47 49 50 50 50 50 50 51 52 53 53 53 54 54 54 54 54 54 54 54 54 54 54 55 55 54 54 53 53 53 53 53 52 51 49 48 47 47 48 48 49
34 35 35 36 37 38 40 41 41 42 42 42 43 43 44 45 45 45 46 47 48 49 50 50 51 51 51 51 51 52 52 52 52 52 53 53 53 52 52 52 52 52 52 50 49 48 47 47 47 47 47 47 46 44
32 32 33 34 34 35 36 37 38 39 41 41 41 41 42 43 44 45 45 46 46 46 46 47 47 48 48 49 50 50 50 51 51 51 51 51 51 51 51 51 49 49 49 49 48 47 47 47 46 46 45 44 42 41

GFSWCAN_250_spd_048.txt.gz
Wind_Speed
39 42 45 48 52 56 57 57 58 59 57 56 50 52 57 59 58 60 60 60 60 58 62 63 66 62 57 53 48 47 43 39 40 40 37 36 36 36 36 36 35 34 34 36 36 38 38 41 42 45 48 51 53 54
42 45 47 50 54 54 55 58 58 58 54 53 57 60 61 60 61 63 62 59 59 62 65 66 66 62 60 54 49 47 43 38 38 40 41 37 37 37 37 37 35 37 38 41 41 42 43 44 45 48 52 54 57 57
46 48 50 53 54 57 55 54 53 52 56 59 60 62 62 62 63 63 62 61 61 66 68 68 65 62 59 51 47 44 41 42 42 43 42 40 40 40 39 40 39 40 42 42 43 46 46 48 50 52 51 52 54 59
52 54 55 56 57 57 56 57 58 60 61 62 62 58 57 60 63 61 60 59 65 68 69 68 63 63 57 50 47 45 43 42 41 41 41 42 42 41 41 41 42 43 44 44 45 47 48 49 50 52 54 58 63 67
60 60 60 59 59 60 60 60 61 62 60 56 54 54 55 60 61 60 59 61 67 67 65 65 65 59 57 52 49 47 45 42 41 40 40 42 43 44 44 43 44 46 46 47 47 49 51 53 55 58 62 65 69 72
58 57 57 56 57 56 55 55 58 55 54 53 53 54 56 60 59 57 55 61 65 69 64 58 61 61 57 52 52 51 48 46 42 41 41 42 44 45 44 46 48 50 52 52 53 55 57 58 61 65 69 72 75 79
49 53 49 51 51 49 45 44 48 49 51 50 52 55 58 57 57 54 59 68 71 72 67 60 59 59 56 53 51 52 50 47 43 42 43 45 48 48 50 52 55 57 58 59 61 61 63 66 70 73 76 77 80 84
44 44 43 43 42 42 42 46 50 50 50 53 56 60 58 58 57 56 57 62 68 66 67 59 56 52 53 52 50 51 51 50 47 44 45 47 48 50 52 57 58 60 62 64 65 69 71 72 74 77 79 83 85 88
37 38 39 42 42 44 45 47 47 47 52 55 54 55 55 51 53 54 54 60 63 60 63 56 52 53 52 53 52 52 54 52 51 49 51 50 51 53 58 60 62 65 67 70 73 73 75 77 79 82 84 88 92 95
34 34 35 38 41 43 47 50 49 52 56 52 50 53 49 50 51 55 57 56 55 56 59 57 54 51 50 51 53 53 54 56 55 56 55 54 57 61 64 65 66 69 72 74 75 76 78 80 83 86 90 94 96 94
33 32 36 38 40 47 48 50 50 50 53 50 49 51 52 51 52 55 56 53 52 52 56 59 57 55 56 57 57 55 54 54 53 54 55 56 61 66 68 70 72 73 73 74 76 79 81 84 88 91 93 94 93 93
33 35 36 39 42 45 47 50 52 52 53 51 48 52 54 52 52 54 57 57 56 57 59 61 61 59 58 58 56 55 56 57 56 59 60 59 65 70 72 72 70 70 73 77 82 85 88 91 93 95 94 95 97 99
31 34 38 44 47 50 50 50 52 51 51 50 48 49 51 52 52 56 55 55 57 60 60 60 61 62 62 62 61 61 60 60 62 61 61 66 72 71 70 72 75 78 82 84 88 91 93 95 95 94 97 100 103 106
32 34 39 45 49 51 52 53 52 52 52 50 47 45 44 49 55 60 59 58 58 59 61 61 61 62 64 65 65 66 65 66 65 65 67 70 71 74 78 81 84 85 88 91 94 96 96 96 97 100 103 105 107 111
37 39 41 46 50 53 56 56 54 53 54 51 46 44 43 44 53 60 64 61 61 61 62 63 64 64 65 65 66 69 70 69 70 72 75 77 80 82 84 84 86 90 92 94 95 97 99 100 102 105 107 110 115 119
42 42 44 46 48 54 56 56 56 54 51 50 47 47 46 46 48 52 56 60 64 64 65 66 66 67 70 71 72 75 77 77 79 80 80 81 81 83 86 89 90 92 94 96 98 100 102 103 106 110 115 118 121 122
45 44 46 47 51 54 58 59 56 59 53 51 51 51 52 50 48 50 51 53 54 56 57 58 59 61 63 65 68 72 75 76 78 79 81 81 82 83 86 89 90 92 95 97 100 103 107 110 113 117 120 121 120 118
48 48 47 51 53 57 59 63 63 59 58 58 58 58 56 56 56 55 53 52 53 54 55 57 59 60 61 62 64 65 67 69 72 74 77 79 81 85 88 92 95 98 101 103 108 111 113 115 118 118 116 116 114 113
46 48 50 52 53 55 61 66 65 61 61 64 63 63 62 61 61 62 62 60 61 61 61 62 62 63 65 67 68 70 73 75 78 81 84 87 91 95 98 100 102 106 108 109 111 114 115 113 112 114 113 114 115 112
40 47 47 49 54 56 57 62 62 58 60 61 62 62 63 64 65 66 66 67 68 68 70 71 71 72 74 75 78 80 82 84 87 90 93 97 100 102 103 104 105 106 108 109 109 109 112 112 112 113 112 110 108 103
42 41 42 45 50 55 58 59 61 61 59 60 62 64 65 67 67 68 69 70 71 72 73 74 76 78 79 81 84 87 89 90 92 95 96 97 99 100 101 103 105 107 109 109 109 109 110 110 109 105 101 97 95 94
44 43 44 45 46 49 52 55 58 58 58 60 62 64 65 66 68 70 72 72 73 75 76 77 78 80 81 82 85 87 89 90 91 93 94 97 100 101 103 105 105 106 107 107 107 106 103 101 97 93 92 90 86 82
45 46 47 47 48 49 52 53 55 57 58 58 59 60 62 63 63 65 68 70 72 74 75 76 77 79 80 82 84 87 90 92 94 95 97 98 98 100 101 101 101 102 101 99 97 94 91 90 88 85 82 78 76 75
48 49 50 49 50 52 52 53 54 56 57 58 59 61 62 64 65 66 68 70 72 73 74 76 78 80 81 84 86 88 89 89 90 90 90 91 93 93 92 92 92 91 89 87 87 85 83 80 77 74 73 72 70 68
50 50 50 50 51 53 54 55 56 57 59 60 60 61 63 64 65 66 66 69 71 73 75 77 78 79 82 83 84 83 82 81 82 83 84 85 85 85 84 84 84 83 82 80 78 75 73 72 71 69 68 67 65 64
46 49 52 54 55 57 57 58 60 61 61 62 64 66 66 66 67 66 70 72 72 72 72 73 74 74 74 74 74 75 76 78 78 77 77 78 79 80 80 78 76 76 74 73 72 70 69 67 66 65 64 63 62 61
44 46 49 50 51 53 55 56 57 59 59 61 61 62 62 63 62 64 65 66 67 66 67 67 67 68 69 70 70 70 71 72 74 75 76 75 73 72 72 72 70 68 68 67 67 66 65 64 63 62 61 59 58 58
45 46 46 46 47 48 50 52 52 53 53 54 55 56 55 55 56 58 60 61 62 64 63 63 65 66 67 67 68 69 69 70 69 68 68 68 67 67 66 66 65 64 63 62 61 60 60 60 59 57 57 57 57 56
40 39 42 43 45 45 47 48 49 50 51 52 53 54 55 56 57 58 58 60 61 61 62 63 63 63 63 62 61 61 62 62 62 61 60 60 61 61 61 61 60 59 58 57 57 57 56 56 56 56 56 56 55 55
41 40 43 44 45 45 47 46 49 49 51 50 50 51 52 54 56 56 56 57 57 57 57 57 56 56 56 56 55 56 56 57 57 58 58 58 57 57 57 56 56 56 56 55 53 52 53 54 54 53 53 52 51 50
33 34 36 38 40 41 41 42 42 43 44 44 44 44 44 44 45 46 47 48 49 49 49 50 50 51 52 52 53 53 54 54 54 54 54 54 54 54 54 54 53 53 53 52 52 51 50 49 48 47 47 47 47 47
30 31 32 33 34 36 37 37 38 39 39 40 40 40 40 40 41 42 43 45 46 46 47 47 47 48 49 49 50 51 51 52 52 52 52 52 51 51 51 50 50 50 51 50 49 48 47 47 47 46 45 45 44 44
28 29 29 30 31 32 33 34 36 36 37 37 37 37 38 39 40 41 41 42 43 44 44 45 45 46 47 47 47 48 48 48 49 49 48 49 49 49 48 48 48 48 47 47 47 47 47 46 45 45 45 44 43 41

GFSWCAN_250_spd_051.txt.gz
Wind_Speed
33 34 37 41 45 47 52 59 64 66 65 68 70 71 68 64 64 60 58 60 62 65 66 64 57 57 54 57 61 61 58 52 49 47 46 44 41 39 39 38 37 36 37 39 39 39 38 40 40 43 45 47 51 53
34 33 32 35 39 44 50 56 60 64 66 65 64 63 61 58 57 59 59 62 63 60 63 56 56 55 56 61 66 64 60 58 54 47 45 45 43 40 40 40 39 40 40 42 41 40 40 42 43 46 49 52 54 57
38 40 39 40 41 47 52 56 61 64 61 58 58 58 56 55 55 56 59 59 61 59 57 57 57 58 60 62 65 63 58 57 50 49 48 44 42 42 41 41 41 42 43 42 44 43 43 44 46 48 51 54 56 57
40 42 44 44 46 51 56 59 59 58 56 53 50 51 52 53 54 55 56 56 53 54 56 57 59 58 62 63 63 57 58 54 51 49 45 45 44 44 44 43 43 44 46 45 46 47 47 45 49 49 51 53 56 60
44 46 47 49 50 55 57 57 58 57 56 56 54 52 52 54 54 56 55 54 55 54 55 57 59 62 64 64 61 58 58 53 50 49 47 47 46 46 47 47 47 49 48 49 48 49 48 47 52 56 59 61 63 66
51 53 53 53 53 54 56 56 55 54 56 56 54 52 51 53 54 54 54 56 59 56 58 58 58 61 62 63 60 57 56 51 50 49 47 46 47 46 46 48 48 49 49 49 50 53 55 58 60 63 65 66 68 73
55 54 54 52 52 53 53 53 53 52 51 50 51 53 53 53 54 56 56 58 58 59 56 58 62 64 63 61 60 59 57 52 52 51 46 46 47 46 45 46 49 50 52 55 58 61 61 62 64 67 70 74 77 80
53 53 53 52 49 48 48 49 51 52 54 55 51 48 49 51 54 55 55 54 54 53 57 62 63 64 63 62 61 60 57 54 53 51 50 50 50 49 48 50 53 55 57 59 60 61 61 65 69 72 76 79 82 85
48 48 48 47 47 49 48 49 49 48 46 43 44 47 46 49 47 47 52 55 52 54 57 61 63 64 65 62 59 60 60 58 54 52 53 54 54 54 55 56 56 56 56 57 59 63 68 72 75 79 82 83 85 87
43 45 44 43 43 42 43 45 43 41 43 45 45 43 47 49 50 53 53 55 49 49 53 59 63 62 60 61 62 61 58 56 53 55 59 58 59 61 62 62 63 62 63 65 69 72 75 78 81 84 85 85 86 88
34 34 36 37 38 35 36 39 41 42 44 42 43 44 47 49 51 51 52 43 42 45 50 55 59 60 54 51 53 56 59 59 58 56 58 60 63 67 67 68 69 69 70 71 74 76 79 83 85 84 85 88 92 97
27 27 28 30 32 32 34 37 40 42 42 44 47 50 52 52 48 46 47 43 43 44 50 58 59 62 63 57 55 55 57 57 56 58 59 57 63 68 69 69 68 70 74 77 80 83 84 85 87 89 92 96 99 102
26 28 30 34 32 36 38 39 42 42 43 46 47 46 47 48 47 46 45 49 48 45 45 47 54 60 62 67 63 58 56 56 56 56 57 59 68 69 69 71 74 78 81 83 84 84 85 89 92 95 98 101 103 106
24 23 29 32 31 31 33 37 43 46 49 52 51 47 43 44 45 46 49 51 50 47 45 46 49 54 57 60 63 65 63 61 59 61 65 73 75 76 77 80 82 82 83 84 86 88 91 95 98 101 102 104 108 109
25 25 30 30 33 35 39 41 42 45 52 53 51 47 44 47 49 48 49 51 51 51 51 52 52 55 58 60 63 66 67 67 69 72 74 74 75 77 78 81 83 84 86 88 91 95 99 100 101 104 106 107 108 110
30 29 29 33 33 36 40 44 44 45 48 52 49 47 46 45 47 50 52 52 55 56 55 56 57 60 64 64 65 66 67 65 68 70 71 74 76 78 81 83 87 90 93 96 98 100 101 102 103 104 106 109 112 117
33 34 33 34 39 42 44 44 45 46 47 46 47 49 48 46 45 45 49 53 57 58 58 58 61 62 62 63 65 67 69 71 73 75 77 81 84 87 89 92 94 94 94 94 95 95 98 101 103 108 113 117 120 120
39 36 36 38 40 45 47 47 46 43 46 50 50 51 51 49 46 47 49 51 51 53 57 61 65 68 69 69 72 73 75 77 78 79 79 80 79 79 80 82 85 87 90 93 97 100 103 108 112 117 118 115 112 112
44 45 42 41 44 47 49 50 53 52 52 54 55 54 54 55 57 55 54 55 55 55 56 56 57 60 63 65 67 69 71 72 74 76 78 80 82 85 87 89 91 94 97 100 104 108 110 112 112 111 111 112 111 112
45 45 49 47 47 48 50 52 53 55 57 58 58 60 60 60 60 59 61 60 60 60 61 61 62 63 65 67 68 70 73 75 78 80 83 86 88 91 94 97 99 101 102 103 104 106 105 106 108 109 110 112 113 111
45 44 44 49 52 52 52 53 54 53 55 58 59 61 61 62 65 65 64 64 65 66 68 69 71 72 73 75 78 80 82 84 87 88 88 89 91 92 93 95 96 99 101 102 102 104 106 106 107 109 109 107 105 104
44 45 40 48 56 58 56 56 55 54 55 57 60 62 64 65 65 66 68 69 70 72 74 75 75 76 77 78 80 80 81 82 84 87 89 91 92 94 95 96 96 98 100 101 104 106 106 106 106 104 102 100 97 95
45 46 47 46 51 54 59 56 55 53 55 56 57 60 62 65 66 65 66 66 67 69 71 73 74 75 75 76 78 80 83 85 86 88 90 91 93 94 95 97 98 101 103 104 104 103 102 101 99 97 95 91 87 83
47 48 49 50 51 52 52 54 56 56 57 57 58 60 62 63 64 65 66 67 68 70 71 72 73 75 76 78 79 82 83 85 87 89 90 92 94 96 97 98 99 100 100 99 98 97 95 94 92 88 85 81 80 78
47 49 51 51 52 53 54 54 55 55 57 58 58 59 60 62 63 65 67 69 71 72 73 74 75 77 78 80 81 83 86 87 89 91 92 93 93 93 92 92 93 93 93 92 91 90 88 85 81 78 77 75 74 71
48 50 51 52 52 53 54 53 53 54 55 57 58 59 61 63 65 66 68 70 71 72 73 75 77 79 80 82 84 85 87 87 88 88 87 87 87 87 88 88 87 88 87 84 82 80 77 75 74 73 71 69 68 67
47 49 50 51 52 52 52 52 53 54 55 57 58 60 60 62 64 66 68 70 71 72 74 75 77 79 81 81 81 80 80 81 81 82 82 82 82 82 82 81 80 78 77 76 74 73 72 71 69 67 66 65 64 63
41 43 46 47 49 51 53 54 56 58 58 59 60 60 62 63 64 66 68 70 71 73 74 74 74 74 74 75 76 76 77 77 77 77 77 77 75 74 73 72 71 70 70 69 68 67 66 65 64 63 62 61 60 60
37 38 40 41 42 43 45 47 49 50 52 52 53 55 57 57 59 60 62 64 65 67 68 69 71 72 72 71 71 71 72 71 71 69 68 67 67 67 66 66 66 65 64 63 62 61 61 60 59 59 58 58 57 56
40 39 40 40 41 42 44 45 47 48 49 51 52 54 56 57 59 59 61 62 64 64 64 65 65 65 66 65 64 64 64 64 63 63 63 62 62 61 61 60 59 59 59 58 57 57 57 57 57 56 56 55 54 53
41 41 42 42 43 44 44 45 46 48 49 50 51 51 52 52 52 53 53 54 55 56 58 58 59 59 60 60 60 60 60 59 59 58 58 57 56 55 55 55 55 54 55 56 56 55 54 54 53 52 52 52 52 50
33 34 35 36 37 38 38 39 40 41 42 43 44 44 44 45 46 47 48 49 50 51 52 52 53 53 54 54 54 54 54 54 53 52 52 51 51 51 51 52 53 53 53 53 53 52 51 51 50 50 49 48 47 47
30 31 32 33 33 34 35 35 37 37 38 40 40 40 41 42 44 44 44 44 45 46 46 47 48 48 49 48 48 48 48 48 49 49 49 50 51 51 51 50 50 50 50 49 49 49 49 49 48 47 47 47 46 45

GFSWCAN_250_spd_054.txt.gz
Wind_Speed
29 33 36 40 44 47 49 51 54 59 67 73 74 77 78 69 73 77 82 87 86 82 81 73 74 75 72 64 57 61 56 55 52 57 52 48 49 48 48 45 41 40 40 39 37 37 36 39 38 42 43 44 47 48
30 33 35 36 37 40 43 47 51 55 63 66 65 72 69 64 66 71 71 74 77 80 80 73 72 64 62 57 57 57 56 57 60 61 55 50 51 51 49 46 43 40 41 42 40 39 40 40 41 45 47 48 48 52
32 33 35 37 39 40 42 45 47 51 58 60 57 58 63 65 66 66 69 67 67 55 61 58 56 53 54 55 53 56 54 57 59 58 55 53 52 51 49 48 44 43 42 43 44 44 43 44 45 47 48 51 51 53
34 33 33 34 35 37 39 42 45 50 54 55 54 60 63 61 62 64 60 60 61 59 53 53 54 56 57 56 55 56 57 59 62 64 58 53 52 51 50 48 46 44 45 44 45 46 46 43 50 49 51 53 53 53
37 35 34 34 35 38 43 48 52 55 56 56 57 60 60 60 59 59 57 52 48 54 49 54 60 57 56 57 55 60 60 59 60 59 55 53 53 54 53 48 48 46 47 47 47 49 49 47 51 54 54 53 58 63
41 40 38 37 39 42 44 48 50 50 51 54 56 57 56 56 57 57 57 58 56 55 50 55 57 58 52 54 58 60 58 57 55 57 57 57 59 56 52 50 49 49 50 49 48 53 53 51 52 55 59 63 67 69
46 43 40 42 44 45 47 49 50 50 51 51 50 51 50 52 53 52 52 55 59 59 54 50 52 51 53 57 58 55 55 56 59 59 57 57 58 56 51 51 49 53 51 51 50 51 54 56 58 62 64 66 67 68
47 48 48 47 45 49 49 50 51 50 48 49 50 51 52 53 54 56 56 57 56 56 55 50 49 53 51 51 51 52 54 56 58 55 56 56 56 54 51 49 51 53 53 53 54 56 57 60 61 62 64 66 71 75
48 45 45 48 48 47 47 49 50 50 51 52 53 53 53 53 51 52 54 55 52 51 50 46 46 46 51 52 52 53 55 56 57 55 56 56 53 52 52 56 55 55 56 57 60 62 63 64 66 68 71 75 79 83
40 40 40 39 39 40 40 40 41 43 44 42 42 42 46 47 49 51 50 44 42 46 48 47 47 47 49 49 49 53 56 56 58 57 57 55 52 53 56 60 61 63 63 63 64 67 70 72 74 76 79 84 88 92
40 39 39 39 38 37 34 32 34 36 34 32 31 32 36 38 35 32 34 37 41 42 41 42 44 44 46 48 52 56 58 58 57 58 58 54 51 57 60 63 66 67 67 68 71 74 75 77 79 83 87 90 93 94
34 34 34 33 34 35 36 36 35 36 34 36 39 38 37 32 31 32 32 36 40 40 39 38 39 40 43 49 53 57 58 57 56 56 58 54 56 63 65 66 66 67 68 71 73 74 76 79 83 86 90 93 96 98
28 28 29 29 29 28 29 29 30 29 32 32 33 34 33 31 29 29 33 35 36 40 40 39 38 39 43 50 54 57 58 59 59 59 59 60 67 69 70 71 70 69 69 70 74 78 82 85 89 93 94 97 99 100
24 25 26 26 27 27 29 31 32 32 32 33 36 37 36 35 35 37 38 39 42 43 41 38 38 37 39 45 51 57 58 56 54 55 56 62 63 66 67 67 68 71 74 77 80 83 86 89 92 94 95 98 101 105
23 23 25 26 26 26 28 33 35 36 37 37 37 35 35 38 40 43 45 44 44 42 40 40 41 42 41 41 42 47 54 58 63 68 70 71 71 71 72 73 74 76 79 82 86 88 90 91 93 96 100 105 109 111
21 23 26 25 23 26 27 29 33 37 38 40 40 42 43 43 44 45 46 44 41 40 43 46 47 46 46 42 44 45 47 52 61 67 69 70 71 73 75 77 79 81 84 86 87 89 92 95 99 104 106 106 105 107
25 24 27 31 29 29 30 30 33 36 37 39 43 46 46 45 43 44 46 47 47 46 46 47 50 52 51 47 47 50 54 57 59 62 65 67 69 71 75 78 82 84 86 87 91 95 100 103 104 103 103 107 109 113
32 31 30 32 33 33 34 35 34 36 38 40 41 43 45 45 44 42 41 42 46 49 51 52 55 56 56 57 59 59 60 62 65 67 70 72 75 78 80 83 85 88 91 93 97 99 100 100 102 105 108 112 114 115
35 34 36 35 33 34 36 37 38 39 41 42 44 47 48 48 49 47 47 49 48 49 51 53 55 58 61 62 64 66 68 69 70 71 73 75 77 80 83 87 89 91 92 92 94 96 99 103 108 110 111 112 113 112
41 40 39 41 40 38 40 41 43 45 46 47 47 48 52 55 55 54 53 53 56 59 59 59 59 59 60 60 62 62 64 65 67 69 71 73 76 79 82 84 87 88 91 94 99 104 107 108 109 109 108 108 109 108
43 46 46 45 43 44 46 47 47 48 50 52 53 54 55 58 60 61 61 62 62 63 62 63 63 64 64 65 66 67 68 70 72 74 76 79 81 84 86 89 92 97 100 102 103 103 105 104 105 105 105 107 107 108
50 47 50 50 48 47 48 49 50 53 54 54 56 57 58 59 59 60 62 63 65 65 65 66 67 67 69 71 72 74 75 77 79 81 83 85 88 91 94 95 96 98 98 99 99 100 103 104 104 104 105 107 108 106
53 50 52 52 49 50 49 50 52 53 55 57 58 59 60 60 61 62 65 66 68 69 71 73 74 75 76 77 78 79 80 82 84 86 88 89 90 91 92 93 94 95 96 98 99 100 101 103 105 106 107 105 104 102
51 51 45 47 48 51 53 54 52 52 55 57 58 59 61 62 63 65 66 66 67 69 71 73 74 76 77 77 77 78 79 81 83 85 87 88 89 90 92 93 94 95 97 98 100 101 103 104 103 102 101 99 97 93
50 50 49 49 50 52 53 54 56 53 54 56 57 59 62 62 62 63 65 67 68 69 69 70 71 73 75 76 78 80 82 83 85 86 87 88 89 90 91 93 95 96 97 100 101 101 100 99 98 96 93 90 87 84
47 48 49 50 51 52 53 55 57 57 57 57 57 58 60 62 64 64 66 67 68 70 71 72 74 75 76 78 79 80 82 83 85 86 87 88 89 91 93 94 95 96 95 95 94 94 93 90 87 85 83 81 79 78
44 47 49 50 50 51 52 53 55 56 56 57 57 58 59 60 61 62 65 67 69 70 70 71 73 74 75 77 79 80 81 82 84 86 87 88 89 89 89 90 90 90 89 88 85 83 81 80 79 78 77 75 74 72
41 43 44 46 47 50 51 52 53 54 55 57 58 59 61 62 63 64 65 65 66 67 69 70 72 73 75 77 79 80 81 83 83 83 83 83 84 85 84 83 81 79 77 76 76 75 75 74 73 73 71 70 69 67
39 39 41 43 45 47 48 50 51 51 52 54 56 57 59 59 61 61 62 63 65 67 68 70 72 74 75 75 76 77 78 79 80 80 79 78 77 76 74 73 72 72 72 71 70 70 69 68 68 67 66 65 64 63
41 42 43 43 44 45 46 47 47 48 50 52 54 56 57 58 59 60 61 62 64 65 67 69 70 71 73 74 74 73 73 72 70 70 69 68 68 68 68 68 68 67 66 66 65 64 64 64 64 63 61 61 59 58
41 42 43 44 45 46 47 47 48 49 50 52 53 55 56 57 58 59 60 61 62 63 64 64 65 65 65 65 65 65 65 65 66 65 65 65 64 64 63 62 62 62 62 62 63 63 62 60 59 58 57 56 56 56
37 38 39 40 41 42 43 44 45 47 48 49 50 51 51 51 52 53 54 55 55 55 55 56 57 57 58 58 59 59 59 60 60 60 59 59 59 59 59 59 59 60 60 58 57 57 57 56 56 55 55 54 52 51
32 33 34 35 35 36 37 38 39 40 41 42 43 44 44 46 46 47 47 48 48 49 50 50 51 51 52 53 53 54 54 54 55 55 55 55 55 55 55 55 54 54 54 54 53 53 53 53 51 51 50 50 48 47

GFSWCAN_250_spd_060.txt.gz
Wind_Speed
19 24 28 31 33 37 41 43 46 50 53 55 57 58 62 68 72 77 77 80 83 78 75 74 74 71 74 73 66 63 63 62 58 56 56 54 55 54 58 59 61 55 42 39 40 43 43 44 43 43 43 43 44 45
18 23 25 28 32 35 40 42 45 47 47 49 51 55 61 67 68 72 73 74 76 77 71 73 75 71 67 69 67 64 59 59 55 54 51 56 54 57 60 58 59 57 48 39 43 43 42 45 46 46 44 46 48 50
20 25 27 29 33 34 37 39 42 42 43 46 51 56 60 61 64 67 71 71 70 74 74 73 72 69 66 58 57 60 60 60 57 51 52 55 60 55 54 54 56 54 48 40 44 47 45 49 50 48 48 49 50 51
22 26 28 29 32 35 37 39 41 42 45 49 52 58 62 65 67 70 70 69 68 72 74 73 71 66 60 53 50 49 50 48 47 47 52 56 56 57 54 55 52 50 47 44 43 51 49 47 49 51 52 51 52 53
23 23 27 31 35 37 38 39 41 44 49 53 56 58 63 66 66 68 69 66 64 67 69 72 67 63 60 56 55 52 50 50 52 55 56 56 57 56 58 57 51 44 43 46 45 50 52 50 51 53 53 52 52 55
25 27 28 30 35 38 40 42 43 47 52 55 57 60 64 65 65 65 62 60 59 62 65 65 65 64 61 59 58 54 57 55 52 53 55 59 57 53 54 55 51 45 41 43 48 50 53 52 53 55 54 55 56 58
27 28 30 33 35 41 46 49 51 50 53 57 60 61 60 60 59 56 55 58 56 58 60 63 66 64 63 61 61 58 56 52 47 51 56 58 59 58 53 46 46 44 44 42 47 53 55 54 52 54 56 58 60 61
30 31 33 37 41 44 48 52 56 59 54 56 58 59 60 60 59 60 59 57 56 54 59 63 63 62 62 59 59 60 58 57 49 50 50 55 56 67 59 54 50 51 50 49 50 54 57 58 54 53 57 61 63 62
34 30 30 34 39 44 48 54 59 60 59 57 59 62 62 61 60 60 58 57 55 55 56 55 54 53 57 55 56 58 59 57 56 62 66 70 75 75 68 62 62 61 59 56 55 56 58 60 57 57 58 60 62 66
41 40 35 36 39 43 48 52 55 58 60 61 63 65 66 65 59 56 53 54 58 59 57 59 55 55 58 56 55 58 60 59 60 61 68 75 77 78 77 75 70 66 59 58 57 57 59 61 64 63 62 64 66 68
44 45 44 41 42 46 45 48 56 60 63 64 67 68 67 65 66 66 55 60 54 53 52 49 50 51 51 52 54 54 55 56 56 56 60 61 63 67 64 62 61 58 57 57 57 58 60 64 65 65 68 68 69 73
40 41 44 43 44 45 47 46 43 46 53 56 57 59 58 57 56 58 55 48 50 48 44 47 50 50 54 55 54 49 44 44 41 43 45 47 52 52 53 54 53 53 55 55 55 57 60 62 67 69 71 73 75 78
32 35 39 42 40 38 42 44 48 47 49 57 62 62 61 62 64 60 43 48 52 53 53 55 53 51 52 53 48 42 38 37 38 37 39 40 43 45 47 50 50 50 54 57 57 59 61 64 67 70 73 77 81 84
26 31 34 36 39 39 37 40 43 39 38 40 45 51 51 47 43 44 48 49 48 47 48 49 48 46 46 46 42 37 36 39 35 30 35 39 41 45 48 50 51 52 55 58 61 64 66 68 71 74 77 80 84 88
23 24 26 29 33 36 39 40 39 41 42 43 42 40 37 36 40 40 38 38 42 40 39 41 43 43 41 42 41 37 34 34 34 39 40 41 43 45 45 46 48 51 56 61 66 69 72 74 77 81 84 87 89 91
13 15 17 22 24 31 38 40 39 37 36 36 36 35 31 27 29 27 33 37 37 38 37 39 40 41 41 39 37 35 35 38 40 42 42 43 46 50 53 54 56 57 60 63 66 69 73 76 79 81 83 84 85 85
13 14 14 15 15 19 24 27 32 37 40 40 42 45 45 44 41 37 34 34 37 37 38 38 40 42 42 41 42 44 45 45 45 46 47 47 48 49 50 52 54 56 59 61 63 64 68 71 74 76 79 81 85 89
16 17 19 19 19 19 18 20 23 23 25 27 30 32 34 37 35 33 36 40 45 45 45 44 45 45 45 44 43 43 43 45 47 48 50 51 53 54 56 57 60 63 65 66 68 71 73 75 78 82 86 88 89 90
17 17 19 22 25 26 26 25 25 28 29 30 32 33 35 36 39 42 43 44 44 43 43 44 45 44 45 46 46 47 48 49 50 52 54 57 59 61 63 64 67 68 70 71 73 76 79 82 85 86 87 90 93 96
25 24 22 23 26 28 27 28 29 30 31 34 36 39 41 43 42 42 42 40 39 40 41 42 43 45 47 49 52 54 56 57 58 59 61 63 64 66 67 69 71 73 74 76 79 81 83 85 88 91 93 95 98 101
29 30 30 29 29 28 29 30 30 33 34 35 37 38 39 40 42 43 44 46 46 46 47 48 49 49 51 54 56 59 60 62 64 66 67 68 69 70 72 73 74 76 79 82 84 87 90 92 94 96 98 100 101 101
35 34 34 34 36 37 35 36 37 38 39 41 43 45 47 48 48 49 50 51 51 52 54 56 58 60 61 62 63 64 66 68 69 70 71 72 73 75 77 79 82 84 86 89 91 93 95 96 97 99 100 100 101 101
41 41 40 40 40 39 39 42 43 44 44 45 47 49 49 50 51 52 54 56 58 59 61 62 63 64 65 66 66 68 69 71 73 75 76 78 80 82 84 86 88 90 91 93 93 94 95 95 97 97 98 98 98 98
47 47 48 46 46 46 47 47 47 49 51 52 53 53 53 54 54 55 57 59 61 63 65 67 68 69 70 71 73 74 76 77 78 79 80 82 83 84 85 87 88 89 90 91 92 93 93 93 92 92 91 91 91 92
56 56 54 54 54 52 52 51 52 53 54 55 54 55 57 57 59 58 58 58 59 60 62 64 66 68 71 72 73 75 77 79 80 82 82 82 82 82 83 84 85 86 86 86 86 88 88 87 87 88 88 87 87 86
52 54 56 57 58 59 59 59 58 59 58 59 60 59 58 58 58 58 59 59 60 61 61 62 63 64 65 67 69 70 71 72 73 74 75 76 77 78 79 79 80 81 82 83 82 83 84 83 83 83 83 81 80 79
50 53 55 56 58 57 58 58 58 59 61 61 61 62 63 63 64 64 64 65 66 66 66 66 67 69 69 68 68 68 69 70 71 71 72 73 74 76 77 77 78 79 79 79 79 79 78 78 77 76 76 75 74 73
43 45 47 49 50 51 53 54 55 55 55 56 58 60 61 61 63 64 65 65 65 66 66 67 68 68 68 68 68 69 70 70 70 71 72 72 73 73 74 75 75 76 75 75 74 72 71 71 71 71 70 70 70 68
37 39 41 43 45 47 47 48 49 50 51 52 53 54 56 58 59 60 61 62 62 62 62 63 63 64 64 65 65 66 67 68 69 69 69 69 68 69 70 70 69 68 68 69 68 68 68 68 67 66 66 65 65 64
35 36 37 38 40 41 43 44 45 47 47 48 49 49 51 52 54 55 56 56 57 58 59 59 60 61 62 62 62 61 62 63 63 64 65 65 64 65 64 64 64 64 64 64 64 63 63 62 62 62 62 62 62 62
31 32 33 34 35 36 36 37 38 40 41 43 44 45 45 47 47 48 49 50 52 53 55 55 55 55 56 56 57 57 58 58 58 58 59 59 60 60 60 61 61 60 61 60 60 61 61 60 60 59 59 58 57 57
30 31 32 33 33 33 33 34 35 35 36 37 38 40 41 42 43 45 46 47 48 49 49 50 50 51 51 51 52 52 52 53 53 53 54 55 55 56 56 57 56 57 57 58 58 58 57 57 57 56 55 55 53 53
26 28 29 29 30 32 33 33 34 35 37 37 38 39 40 40 40 41 41 42 42 43 43 44 45 46 46 47 48 49 49 50 50 50 51 51 52 52 53 53 53 53 53 52 52 52 53 53 52 52 51 51 50 49

GFSWCAN_250_spd_063.txt.gz
Wind_Speed
15 21 26 31 34 38 40 43 45 49 52 54 55 58 62 63 63 68 74 76 79 86 84 86 89 86 84 78 76 74 78 75 70 65 64 61 56 54 53 51 49 52 54 49 51 50 46 43 40 40 46 47 44 44
14 19 24 29 32 35 37 41 44 48 50 51 52 55 58 57 61 69 72 73 76 83 82 77 77 81 79 80 82 77 67 64 60 59 57 58 59 58 52 48 53 53 51 48 52 51 48 43 42 43 46 48 47 47
15 20 23 27 31 33 36 38 42 44 45 46 49 52 54 56 62 67 67 70 73 77 81 78 79 81 80 79 76 72 68 66 62 60 60 64 64 61 56 53 50 51 49 50 51 47 51 48 45 46 49 51 50 50
16 20 24 28 31 34 37 39 40 40 42 45 48 52 53 57 62 64 65 67 72 70 72 77 75 76 76 77 71 65 62 58 55 55 58 61 56 54 55 50 49 51 49 47 47 52 56 50 50 49 50 54 53 52
17 18 20 25 28 32 34 36 39 41 43 45 48 51 54 57 61 65 69 71 71 72 72 74 73 73 71 70 66 63 57 54 55 58 60 60 57 52 51 48 48 53 47 49 51 58 55 52 51 52 52 54 56 55
18 20 22 26 29 32 36 39 40 40 42 46 49 51 54 57 61 66 67 65 67 64 67 74 73 70 66 67 63 63 57 52 52 54 53 51 46 49 49 53 58 53 49 52 56 59 57 53 49 50 53 54 56 57
16 21 23 27 30 33 36 39 42 45 49 52 55 56 56 59 59 58 57 61 62 61 63 66 70 67 65 65 63 64 58 55 55 54 52 49 49 55 55 57 54 53 56 58 62 61 56 50 44 47 52 57 59 58
20 21 25 28 31 35 39 41 44 46 50 54 56 59 62 64 64 66 65 62 60 60 59 61 64 66 64 63 62 62 59 57 54 52 51 53 60 55 56 59 58 59 61 63 64 63 61 54 54 52 54 59 62 64
23 24 26 31 34 38 41 44 48 52 56 57 59 61 62 64 64 63 63 62 62 59 56 59 61 65 64 64 61 60 60 60 57 54 52 59 54 54 59 68 61 64 70 70 65 64 62 64 65 69 68 60 61 65
23 25 26 30 34 39 41 43 47 53 56 58 60 62 64 64 64 61 63 65 63 60 56 53 56 58 61 63 62 63 63 61 62 59 63 59 55 58 63 67 68 67 69 73 71 70 70 72 74 76 71 63 62 63
27 29 31 33 36 43 48 49 49 50 55 58 60 60 59 59 61 61 60 58 56 54 52 54 57 62 59 57 64 67 65 63 60 59 59 57 54 56 63 67 68 70 72 74 76 76 75 80 82 77 70 65 64 64
26 31 35 38 43 47 52 52 53 55 56 56 57 60 62 61 58 57 55 55 56 56 59 60 61 62 54 60 61 61 63 64 63 61 59 52 53 59 64 68 72 76 80 82 84 85 85 81 75 70 65 67 68 69
33 32 36 39 40 44 47 49 53 53 52 54 55 55 55 57 57 58 59 56 54 49 44 45 50 54 58 60 62 59 55 55 54 56 58 57 62 65 66 64 64 66 69 73 76 77 73 65 64 65 67 69 71 73
40 33 35 39 39 37 39 44 45 46 51 53 54 54 53 51 50 49 45 48 50 50 46 46 48 52 53 52 53 56 57 59 59 55 55 55 54 56 56 56 55 55 55 55 56 57 59 63 66 65 66 68 71 74
38 35 32 31 32 32 33 32 35 36 38 42 46 52 51 55 56 53 51 46 45 47 48 49 49 49 49 50 53 53 53 52 50 50 52 54 57 55 52 54 54 52 53 54 56 59 61 63 64 65 66 67 70 73
28 35 31 30 31 30 25 25 27 29 28 26 44 46 47 45 44 41 41 39 40 40 42 45 45 45 45 46 48 50 49 48 48 48 52 54 54 53 56 56 55 55 55 58 60 61 62 64 66 68 69 70 71 74
26 27 31 32 30 28 30 30 20 17 17 16 18 29 33 33 33 30 30 28 33 35 40 44 43 45 43 45 49 51 52 52 51 50 50 52 56 58 58 56 57 58 59 60 61 62 64 66 67 69 71 74 76 77
21 25 25 29 32 35 33 31 29 29 28 26 24 23 25 29 29 27 23 27 32 39 46 48 46 49 50 51 50 49 49 49 50 51 52 54 58 58 59 59 61 63 65 66 67 68 70 71 73 74 76 77 80 83
14 16 23 26 25 25 27 32 36 37 37 37 37 37 35 32 34 35 38 40 39 41 44 47 46 46 48 48 47 47 48 50 52 53 56 58 59 61 63 65 66 67 69 70 70 71 72 74 77 79 81 84 86 89
18 17 19 23 26 27 29 30 31 31 31 32 32 35 36 38 40 43 45 47 47 45 46 45 43 45 47 49 50 52 55 57 58 59 60 61 63 64 65 67 68 69 71 73 75 76 78 80 81 83 86 89 92 94
23 25 25 25 28 31 32 32 34 34 36 36 37 38 40 44 47 47 48 51 52 51 48 47 46 47 51 55 57 59 61 62 63 64 65 66 68 70 71 72 74 76 77 78 79 80 83 86 88 90 93 96 98 99
31 29 29 29 31 31 32 34 36 38 39 41 42 43 43 44 44 45 46 48 50 51 51 52 53 54 55 57 59 60 61 62 63 64 66 68 71 72 73 74 75 78 80 83 85 87 90 91 92 93 94 95 96 96
39 37 36 36 35 34 37 39 40 41 42 43 45 46 46 48 50 51 51 52 53 55 57 57 57 58 59 60 61 61 63 64 65 67 69 71 73 74 75 77 79 81 83 85 86 87 88 89 90 91 91 91 91 92
44 44 43 43 42 41 41 40 41 42 42 45 46 48 50 51 53 54 55 55 56 58 59 60 61 63 64 65 66 67 67 68 70 71 72 74 74 75 77 78 79 80 82 83 83 84 84 85 86 86 87 88 88 89
48 47 47 47 46 46 48 48 47 48 48 49 49 50 52 54 55 56 58 58 60 61 63 64 66 67 68 69 70 70 71 71 72 72 73 74 75 76 77 78 79 79 80 80 81 82 82 82 83 83 83 84 84 84
56 54 53 52 52 52 51 51 51 53 52 51 52 53 54 54 54 56 59 61 62 63 65 67 68 69 69 70 70 70 70 70 70 71 73 73 74 74 75 74 74 75 77 78 78 79 79 80 80 80 80 80 79 80
57 58 60 61 61 60 60 60 60 60 61 60 60 60 60 61 61 61 62 63 62 62 62 63 64 65 65 66 65 65 65 66 67 68 69 70 72 72 72 72 73 74 75 75 75 75 76 76 76 76 76 75 74 73
51 52 54 56 56 56 58 59 60 61 62 62 62 63 63 63 64 65 66 66 66 67 68 68 67 67 68 68 68 68 68 69 69 70 70 69 70 70 71 71 70 70 71 72 73 72 72 72 71 70 69 68 68 67
43 43 44 46 47 47 48 50 52 53 53 54 55 55 55 54 55 56 57 58 59 59 60 60 61 62 62 63 63 64 65 64 65 65 65 64 64 65 66 68 68 68 69 69 68 68 67 67 66 65 65 64 64 63
36 37 38 38 39 40 41 42 42 42 44 45 46 46 47 47 49 50 51 51 52 53 53 54 54 55 56 57 58 57 57 58 58 59 60 61 62 63 63 63 63 64 64 63 63 62 61 61 60 60 60 59 59 59
32 32 33 34 35 35 35 36 36 36 37 39 39 40 40 41 42 43 44 45 46 46 47 48 49 50 51 52 53 54 55 56 57 58 58 58 58 58 58 58 58 58 57 58 58 58 58 57 56 56 56 56 55 55
30 30 31 31 31 31 31 32 32 33 34 35 36 38 39 39 40 40 42 43 44 45 45 46 47 48 49 50 50 52 52 52 52 53 53 54 54 54 54 53 54 54 55 55 55 54 54 55 55 55 54 53 52 51
27 28 29 29 30 31 32 33 33 34 34 35 36 37 38 39 39 40 40 41 42 42 43 43 43 43 44 44 45 46 46 47 47 47 47 47 48 48 49 49 50 50 50 51 51 52 52 51 51 50 50 50 49 48

GFSWCAN_250_spd_069.txt.gz
Wind_Speed
20 16 16 18 22 26 29 33 37 40 43 46 48 52 53 55 58 55 57 60 68 75 78 79 84 91 97 88 88 88 91 86 79 72 65 60 56 55 54 51 50 50 51 49 49 44 39 46 46 46 48 48 50 49
13 10 11 14 18 24 28 33 36 39 43 45 48 50 50 54 54 53 54 60 67 71 77 81 84 89 92 95 96 92 88 86 80 78 69 64 60 62 59 55 56 54 54 55 54 49 49 49 49 49 51 52 52 51
7 6 7 13 18 25 29 32 35 39 41 43 45 46 50 50 48 48 54 58 62 73 79 79 79 89 99 99 97 95 90 87 80 77 76 73 67 66 64 62 64 61 59 59 57 56 56 53 51 54 55 53 52 53
8 1 7 12 17 22 27 31 33 36 38 40 42 44 46 46 46 49 53 57 64 72 75 78 86 89 96 101 98 95 90 87 83 79 76 72 69 69 67 65 63 63 63 62 60 58 61 58 58 58 55 55 55 55
9 4 9 15 19 23 26 28 31 32 34 37 39 42 43 42 44 46 51 57 64 71 76 77 79 87 94 100 98 96 92 85 83 77 71 66 65 65 66 65 62 61 61 60 57 62 60 55 61 58 59 58 57 57
10 7 11 17 20 22 26 28 30 33 35 37 39 39 40 42 44 47 52 56 63 71 73 79 81 86 91 101 102 99 94 86 81 76 73 70 69 69 67 64 61 60 60 59 57 56 58 59 60 62 62 61 61 61
9 9 11 17 21 24 26 29 31 33 34 35 36 39 41 42 45 50 58 64 66 68 70 71 75 84 89 101 103 97 90 83 78 73 68 66 65 62 58 54 55 57 58 57 55 56 61 64 63 62 61 62 65 64
10 10 11 15 20 24 27 30 32 33 35 37 39 40 42 46 47 51 55 59 64 71 76 82 87 89 85 89 90 91 87 84 79 74 69 66 65 60 54 55 57 59 60 59 57 61 63 62 62 63 65 66 66 64
12 12 13 14 18 23 26 29 31 32 34 36 37 40 44 45 47 51 54 57 64 69 75 77 77 79 77 81 80 80 81 78 74 71 69 66 62 58 57 61 63 63 59 61 64 62 64 64 65 65 66 65 66 67
15 15 15 16 18 21 24 28 31 33 34 36 38 41 42 45 49 52 58 62 68 70 70 71 72 80 86 85 82 77 74 70 67 65 64 59 56 60 62 64 63 62 59 62 62 63 66 66 63 62 62 66 65 68
18 17 18 20 20 22 24 25 26 29 32 34 36 38 39 43 43 40 42 43 56 66 68 68 71 75 82 78 69 68 68 67 64 61 60 56 56 62 65 63 63 62 61 65 67 66 64 64 65 66 68 69 71 76
20 17 18 20 21 21 22 26 28 30 31 32 34 38 39 39 45 49 50 48 50 57 60 63 65 71 75 70 67 69 69 60 56 58 55 54 59 64 64 63 65 63 62 63 66 66 67 67 68 69 72 73 76 80
26 21 19 18 18 21 25 26 26 29 32 34 32 34 38 44 49 53 52 52 51 52 54 57 62 64 65 64 64 64 64 62 57 59 58 60 63 64 63 63 65 65 67 67 68 69 69 70 71 73 74 76 79 81
33 29 26 24 24 25 27 31 32 34 39 44 43 42 43 44 46 48 45 46 48 50 50 51 53 55 56 58 59 60 59 60 61 58 58 59 59 59 60 62 65 66 69 70 71 72 73 74 74 76 79 81 81 83
39 36 33 30 30 33 32 34 37 38 34 43 51 52 51 50 49 49 50 50 51 51 49 48 50 51 50 50 51 53 55 56 56 57 55 56 57 59 61 62 65 66 67 69 70 72 74 75 78 80 82 82 84 88
38 36 33 31 33 35 37 33 38 45 45 46 46 47 47 46 46 44 43 43 44 45 47 47 46 46 48 49 51 48 50 52 49 50 52 54 55 57 60 64 68 70 71 72 74 76 78 79 81 81 81 83 86 89
35 34 34 31 31 33 35 36 39 44 44 44 43 43 44 42 43 43 42 44 47 48 48 48 50 52 51 48 46 49 49 51 55 57 57 57 59 63 64 65 66 67 70 71 73 74 76 79 82 83 84 86 84 83
26 26 25 25 24 25 27 23 31 36 39 41 41 40 40 43 43 43 43 46 46 46 47 50 52 54 53 54 55 55 55 55 56 57 57 64 62 58 58 60 62 64 66 67 70 73 77 80 82 80 79 81 82 83
23 22 21 20 18 21 18 26 23 16 21 29 36 40 41 42 42 45 45 45 44 46 46 47 50 52 54 54 55 56 58 60 61 63 66 64 63 64 66 67 67 68 70 72 75 75 76 75 76 77 78 79 81 83
11 16 17 15 13 14 18 18 15 13 14 14 17 27 21 27 37 36 40 38 42 44 44 46 50 55 54 55 57 58 59 62 62 62 65 69 71 72 72 71 71 71 71 73 74 73 73 75 77 79 81 82 84 86
10 8 7 8 10 8 7 9 9 12 15 13 15 16 21 18 20 33 32 26 27 32 38 38 41 44 51 56 58 59 61 61 60 61 61 61 63 62 63 64 65 66 67 69 72 74 77 79 81 82 83 85 86 87
17 17 16 15 14 13 14 14 13 17 13 15 18 22 22 22 23 25 23 29 34 33 34 37 38 41 42 44 46 51 55 58 59 59 60 60 60 62 64 64 65 67 70 74 77 79 80 80 81 82 83 85 88 90
22 23 21 20 20 21 22 23 24 25 26 26 25 26 27 28 30 32 36 38 39 39 41 43 45 48 50 53 55 57 57 57 58 59 61 62 63 64 65 67 70 73 75 74 75 76 78 80 82 83 84 86 86 87
30 31 30 29 29 30 30 32 31 31 32 33 33 34 34 35 36 37 39 40 41 42 44 46 48 50 52 53 55 56 58 59 60 62 63 64 66 69 71 72 72 73 73 75 77 78 78 80 82 83 85 87 89 89
41 40 41 40 40 41 40 39 39 39 39 41 43 44 46 46 46 45 46 47 48 49 51 53 54 56 56 57 57 58 59 60 62 63 65 66 68 69 70 71 72 74 74 75 77 79 81 83 85 86 85 85 85 84
52 50 49 48 50 50 50 51 50 50 50 49 49 49 49 49 49 51 52 53 54 55 56 57 58 59 59 60 60 60 61 63 64 65 66 67 68 70 72 74 76 78 79 79 80 80 80 80 80 80 79 78 78 78
57 56 56 56 56 55 54 54 55 55 55 56 56 57 57 57 56 56 56 57 58 59 60 61 61 62 64 64 65 66 68 68 69 69 70 71 73 74 75 75 74 74 76 76 75 75 75 75 75 74 74 73 74 73
61 61 60 60 59 60 60 60 60 61 61 61 60 61 61 62 63 63 64 64 65 65 65 66 66 66 67 68 69 69 69 70 70 71 70 70 70 70 71 72 72 72 71 71 71 70 70 71 70 70 70 69 68 67
56 58 58 59 60 59 59 59 60 60 60 61 61 62 63 64 66 66 65 65 65 66 66 67 67 68 68 67 66 65 64 64 64 64 64 64 66 67 68 69 68 67 66 66 66 66 66 66 65 65 65 64 65 65
52 52 53 53 53 53 53 54 54 56 57 58 58 57 56 58 59 59 60 60 60 60 61 60 59 59 59 59 59 60 61 61 62 62 62 62 63 63 63 63 63 62 62 61 61 61 61 61 62 62 63 63 62 62
41 42 43 43 43 43 44 44 45 45 46 47 47 47 48 49 49 50 50 51 52 52 51 51 52 53 53 54 54 55 55 56 57 57 58 58 58 57 57 58 58 58 58 57 57 57 58 58 58 58 58 58 57 57
35 36 37 37 38 39 39 40 40 41 41 42 42 42 43 44 45 45 46 46 46 46 47 48 49 50 50 51 52 52 53 54 54 54 54 53 53 54 54 55 55 55 55 55 55 55 55 55 54 54 54 53 52 52
31 31 32 33 35 36 37 37 37 38 38 39 39 39 40 41 42 43 43 43 44 45 46 47 47 48 48 49 49 50 50 49 49 50 50 51 50 51 52 52 52 52 52 52 52 52 52 51 51 50 50 49 48 47

GFSWCAN_250_spd_072.txt.gz
Wind_Speed
28 24 21 21 23 25 28 28 30 32 37 40 41 43 49 51 55 55 53 58 63 68 71 75 81 85 94 100 102 96 100 95 90 86 77 68 64 62 58 55 53 50 46 42 40 38 37 50 47 42 43 43 45 48
21 17 14 15 16 19 23 24 26 31 35 38 41 45 46 50 51 51 52 58 61 64 70 74 78 84 91 97 107 100 90 93 86 82 78 70 67 66 61 58 56 50 47 47 44 42 45 48 49 47 47 48 48 49
15 9 5 6 10 16 21 25 29 33 36 39 42 44 47 47 46 47 52 58 61 65 71 76 82 89 95 97 99 97 97 92 86 83 79 81 73 69 63 59 60 54 53 48 48 47 50 52 54 53 52 53 52 54
11 7 2 3 7 14 19 25 30 35 37 39 40 43 43 42 43 47 52 55 57 62 70 77 77 84 93 97 95 94 97 94 89 87 79 76 71 67 63 61 58 55 53 52 50 53 57 57 58 56 56 56 54 56
12 8 3 7 11 15 19 23 28 31 34 37 39 39 39 40 43 49 51 51 55 62 69 73 77 85 86 90 94 96 94 91 87 83 76 70 69 66 66 63 56 55 57 57 56 60 61 59 58 57 58 57 55 57
12 8 6 12 17 19 21 24 26 29 31 33 34 36 38 40 44 45 47 51 57 63 67 70 76 76 80 82 94 99 94 88 84 79 75 72 67 67 65 59 61 61 60 60 59 61 62 62 61 60 59 59 57 58
13 10 9 14 17 21 24 26 28 29 30 32 34 37 42 44 45 47 55 59 62 63 67 73 75 75 76 81 87 99 99 90 85 80 74 72 69 67 65 63 66 65 64 63 63 63 62 62 62 62 60 58 58 60
14 12 11 13 18 22 25 27 29 31 33 35 37 38 39 40 42 45 45 49 52 56 61 63 61 64 74 80 85 92 98 90 82 77 72 71 71 69 66 64 64 65 66 66 64 65 65 64 63 62 61 60 62 63
15 15 12 12 16 20 23 25 26 28 29 30 31 33 34 36 36 38 43 47 50 52 56 61 67 77 84 85 84 89 94 83 82 78 76 75 71 65 64 65 67 68 67 66 65 63 62 62 62 63 62 62 64 66
17 18 17 15 15 19 22 25 27 27 28 29 30 31 33 35 39 40 41 44 47 49 53 61 71 75 72 81 85 90 87 81 81 80 81 75 71 70 67 66 68 67 66 65 64 64 64 65 65 66 66 66 67 68
20 21 20 20 19 19 20 22 25 27 27 28 28 29 31 34 36 39 42 45 51 55 62 68 72 68 71 77 81 81 78 77 79 82 81 78 76 73 71 71 71 67 66 65 66 65 66 68 68 69 70 68 67 68
21 21 22 23 21 20 20 20 19 19 22 25 26 27 29 31 35 38 40 42 48 54 55 63 63 65 72 79 78 78 78 80 82 82 84 80 76 75 76 74 70 68 68 67 67 68 67 67 67 68 69 70 71 72
26 24 23 22 23 23 23 25 26 27 27 26 27 28 29 31 32 32 38 41 41 49 60 64 65 70 77 80 81 80 79 78 77 81 79 78 78 76 74 71 70 69 67 67 67 67 68 70 71 73 74 74 75 76
29 29 29 29 28 27 28 30 31 33 35 35 36 38 39 40 36 34 38 42 50 54 59 66 68 73 77 77 75 76 76 74 72 73 70 70 68 67 67 66 65 64 64 64 64 66 68 71 73 74 76 76 78 80
32 30 32 32 31 31 30 30 34 37 38 38 38 39 43 44 45 40 36 43 50 57 61 61 64 67 70 73 72 70 68 65 62 62 56 56 58 60 62 63 62 62 63 64 66 67 69 71 73 74 76 78 81 84
34 34 35 34 33 33 33 32 31 29 36 35 33 32 30 37 44 44 43 42 42 48 53 55 55 59 62 62 61 60 60 62 59 56 58 61 62 62 63 64 64 64 65 66 66 68 69 71 74 77 79 82 84 86
33 35 36 36 34 33 33 35 31 33 37 38 42 41 43 42 41 40 40 41 42 43 45 46 49 52 51 57 59 57 60 62 62 62 63 63 64 64 65 65 66 66 67 66 67 68 71 74 76 77 78 78 79 81
33 31 30 34 33 32 35 38 36 31 39 41 41 41 39 39 39 40 41 42 43 45 46 46 47 47 49 50 50 52 54 57 59 59 59 61 64 66 66 67 67 68 66 68 67 68 66 65 69 73 75 79 82 84
28 29 29 26 28 31 33 35 34 32 31 34 35 34 35 36 36 35 38 39 39 40 42 45 46 47 49 51 51 51 52 54 57 57 58 57 58 59 61 61 62 63 64 66 64 66 71 76 79 82 83 83 84 85
23 25 21 20 21 23 26 22 27 30 32 34 35 34 33 35 34 34 37 39 41 43 43 44 45 46 47 48 50 51 50 53 56 57 59 60 59 60 61 62 63 65 66 68 72 75 79 84 85 84 81 79 79 82
20 14 15 22 21 19 20 22 21 17 17 21 21 25 28 32 35 34 34 41 40 42 43 44 46 48 49 51 52 54 55 56 57 56 56 57 59 61 63 66 68 71 72 74 77 82 84 85 82 80 80 82 83 86
15 17 14 13 15 16 12 14 18 15 15 13 14 15 19 20 20 24 25 33 35 42 43 45 48 50 51 53 55 57 58 59 59 59 59 59 58 60 65 69 72 75 79 79 80 80 77 77 79 80 82 83 84 87
12 14 13 14 14 14 14 15 16 17 17 16 17 20 21 20 19 17 25 25 27 34 34 37 38 42 45 48 52 53 54 57 61 63 65 68 68 68 69 71 72 75 77 77 75 75 76 77 79 81 82 84 85 86
20 19 18 19 20 20 20 20 19 20 22 23 25 25 27 28 29 30 30 31 34 37 36 36 37 39 43 46 49 51 54 57 59 62 64 67 69 71 71 71 70 70 70 72 73 75 77 77 78 79 81 83 84 85
29 27 26 26 26 27 26 26 27 28 29 30 30 31 31 32 34 35 38 39 41 43 46 47 50 53 54 55 56 58 60 63 64 66 66 66 66 68 68 69 69 70 72 73 73 73 75 77 79 80 82 84 85 84
41 39 38 36 36 37 35 35 35 35 35 36 36 37 38 38 39 40 42 43 44 46 48 50 52 54 56 57 58 59 59 60 61 62 63 65 67 67 69 70 71 72 72 73 74 75 76 77 79 80 79 77 76 75
48 48 48 48 47 47 47 47 46 46 46 46 46 46 47 47 47 47 48 49 50 51 52 53 54 55 56 57 58 59 60 62 64 66 67 67 67 68 69 69 71 72 72 72 73 74 75 75 73 71 71 72 72 72
53 53 54 54 54 54 54 54 54 55 54 54 53 54 55 56 56 56 56 56 56 58 59 60 61 62 63 64 65 65 66 67 67 68 67 68 69 70 69 68 68 69 70 70 70 69 67 66 66 67 68 68 68 68
51 52 52 52 52 52 53 53 54 55 55 55 55 56 58 59 60 60 60 61 61 62 63 64 64 64 64 65 66 67 67 67 67 67 65 62 62 64 65 65 65 65 65 63 63 63 64 65 64 64 64 63 62 62
45 45 47 47 49 50 52 53 52 52 52 52 51 51 52 54 56 57 59 60 60 60 60 60 60 60 60 60 59 59 59 59 59 58 58 60 60 60 60 60 60 59 59 60 60 61 60 60 60 59 58 59 59 59
40 42 43 43 43 43 44 44 44 44 44 44 44 45 46 47 49 50 50 50 51 52 52 51 52 52 52 52 53 54 55 55 55 55 55 55 55 55 55 55 55 56 56 55 55 56 56 55 56 56 56 56 56 56
35 35 36 37 37 38 39 38 38 38 37 37 38 38 39 40 41 41 43 43 44 44 45 46 47 47 47 47 48 48 49 49 50 50 51 51 51 52 51 51 51 51 51 52 52 52 52 52 52 52 52 52 51 51
31 30 30 30 31 32 34 35 36 36 37 36 36 36 36 37 38 38 38 39 40 40 41 41 41 42 42 43 43 44 45 46 46 47 47 47 47 47 47 48 48 48 48 48 49 49 49 49 48 49 48 48 48 48

GFSWCAN_250_spd_075.txt.gz
Wind_Speed
42 40 38 36 35 33 32 32 34 37 38 40 41 44 45 44 43 48 53 55 56 56 56 61 72 79 83 86 93 98 104 105 102 103 94 83 79 78 77 70 67 65 61 55 51 48 45 51 56 52 52 46 42 41
32 30 28 26 25 25 25 26 28 31 35 37 38 41 42 42 46 54 55 53 53 56 56 64 73 81 85 89 96 102 95 97 95 96 95 88 77 76 74 72 68 64 57 56 54 50 50 49 53 53 53 48 44 43
24 23 18 17 19 19 20 22 24 29 33 35 37 39 42 45 49 52 49 50 50 52 59 68 75 83 87 88 91 90 101 98 100 96 96 95 82 74 71 69 69 63 60 54 56 51 50 52 53 52 53 47 45 49
18 12 7 6 9 13 16 19 24 30 33 35 38 41 44 47 48 48 49 47 51 59 64 68 70 78 82 83 84 90 97 104 103 100 94 90 87 76 70 69 67 63 59 56 55 54 55 50 56 56 53 51 52 54
9 7 4 2 7 10 14 20 25 29 33 36 39 42 44 44 46 46 49 52 56 56 58 61 67 74 80 81 87 92 93 96 94 91 90 85 86 83 75 66 59 60 59 57 58 60 57 57 58 56 58 57 56 57
6 7 4 6 10 12 15 19 24 29 33 34 37 39 39 41 45 48 49 48 45 53 56 60 66 69 73 75 83 85 84 87 92 90 86 87 86 82 77 69 65 64 62 62 61 61 62 62 62 62 62 60 57 60
9 9 7 10 15 17 19 21 25 28 31 33 34 38 43 48 47 42 43 46 49 53 55 58 62 66 69 71 71 79 83 88 92 91 86 84 82 78 74 69 72 69 65 64 65 66 65 64 63 64 63 62 61 61
11 12 11 13 17 21 23 24 25 28 32 36 39 41 40 38 41 42 41 43 46 49 50 51 57 62 63 65 69 77 83 86 89 87 85 82 78 74 68 68 72 71 71 68 67 66 65 66 65 65 65 65 63 64
13 15 14 15 18 23 26 28 28 28 28 29 29 30 32 34 33 33 35 38 41 45 46 50 54 60 62 64 72 82 86 88 82 79 81 80 76 69 66 70 69 68 70 70 69 71 68 67 68 68 68 67 65 68
15 17 17 17 19 21 24 27 29 29 30 29 29 29 30 29 30 33 35 37 40 44 45 47 53 59 61 64 72 80 83 86 81 77 78 74 72 71 70 69 69 70 70 70 70 69 69 68 69 68 68 66 68 68
17 19 20 21 22 22 22 24 27 27 28 28 28 29 30 31 32 32 34 38 42 41 46 51 53 57 64 69 75 80 85 85 76 78 77 74 71 71 66 69 72 73 70 69 69 69 68 68 69 67 66 70 70 71
22 22 21 22 23 24 24 23 23 23 24 25 25 26 27 29 30 31 34 40 42 47 49 50 52 58 61 62 67 70 74 81 71 77 75 72 70 68 69 70 74 73 71 69 69 69 69 69 69 70 72 73 74 76
23 24 25 24 25 26 27 27 28 29 29 30 30 30 31 31 33 36 38 39 43 45 46 49 53 60 62 63 63 66 68 78 73 74 73 74 75 74 75 77 73 71 71 72 72 72 72 73 73 74 75 77 78 79
26 26 27 27 27 27 29 31 31 30 31 32 34 35 34 37 42 42 40 41 42 43 43 46 51 53 53 54 56 61 64 67 67 66 64 70 75 80 80 78 76 74 74 75 76 76 76 77 78 78 79 80 79 79
26 26 27 28 28 29 29 30 30 31 33 33 32 33 33 33 34 32 34 36 39 40 39 43 45 48 52 53 53 55 56 61 63 67 68 70 73 75 76 77 78 78 78 79 79 79 79 80 82 80 78 78 79 80
28 30 28 27 26 25 25 27 27 28 30 32 32 33 36 33 31 33 35 34 34 40 43 45 49 51 52 52 52 53 56 62 63 64 64 65 67 70 72 75 77 78 79 79 80 79 79 78 76 76 77 78 80 82
31 30 31 31 27 24 24 24 26 26 27 30 35 37 37 36 35 36 38 40 41 43 48 48 47 48 49 50 53 56 58 60 65 66 66 65 67 69 70 71 72 73 75 75 73 73 73 74 76 77 80 82 83 83
30 29 29 33 32 30 28 28 31 31 31 29 36 36 36 36 37 36 37 40 42 45 48 50 50 50 53 54 53 52 53 56 60 63 65 66 66 66 66 64 66 68 68 69 70 74 78 79 82 82 83 84 84 85
21 24 27 31 33 33 31 30 29 30 31 32 33 36 36 37 37 36 35 36 38 42 45 45 47 50 51 50 48 43 42 45 48 51 55 59 61 62 62 65 68 70 71 72 74 76 77 78 79 80 82 83 82 81
24 20 25 28 28 30 28 28 30 31 34 35 34 33 33 36 38 39 39 38 36 36 36 35 36 38 40 40 39 41 45 48 50 53 57 62 63 65 65 67 68 69 70 71 72 75 76 76 74 75 77 79 82 84
20 22 22 22 20 20 19 26 26 28 28 29 30 33 35 36 35 36 37 39 40 40 40 42 44 44 44 44 46 49 51 50 51 54 56 58 59 61 62 62 64 67 68 68 69 71 73 74 76 78 80 81 84 87
19 23 24 22 21 20 20 16 10 9 14 16 16 21 25 27 30 32 35 37 39 41 43 44 45 45 46 48 49 49 50 51 52 53 54 57 60 61 62 61 62 63 66 68 70 73 76 78 78 79 82 85 86 89
14 19 20 19 19 18 15 15 14 14 10 9 11 15 17 21 21 19 25 34 34 35 39 42 44 44 46 47 49 50 52 54 54 55 57 57 57 57 59 61 64 66 69 73 76 77 78 79 81 83 86 88 90 90
15 14 17 16 16 18 20 17 16 16 17 15 13 13 17 18 21 19 21 22 21 24 28 32 39 46 48 48 50 52 53 55 57 59 60 63 64 67 70 71 73 73 74 75 76 77 80 83 85 86 86 87 88 90
21 20 20 19 20 21 20 21 22 25 25 26 26 25 25 26 26 28 30 31 32 34 32 33 35 37 39 43 47 50 52 55 57 60 62 65 67 70 71 72 73 74 76 78 81 81 82 82 83 84 85 85 85 86
30 28 28 27 27 27 26 27 28 28 28 28 29 31 33 34 35 36 37 38 39 41 43 45 46 48 50 51 53 56 59 61 63 65 66 67 69 70 72 74 76 78 78 79 79 80 81 81 81 82 82 81 81 81
39 38 38 37 37 37 37 37 38 38 38 38 37 38 37 39 41 42 44 46 48 49 50 52 53 55 58 59 60 62 63 65 66 68 69 70 71 73 74 75 76 77 78 78 77 77 78 78 77 77 77 76 74 72
47 46 44 43 43 42 42 42 43 43 43 44 44 45 46 47 47 48 49 50 51 53 54 55 56 57 58 59 60 62 63 65 65 67 69 70 71 72 72 73 73 73 73 73 73 72 72 72 72 71 69 68 69 69
50 50 49 49 48 48 48 48 47 47 48 49 50 50 51 51 52 54 55 56 57 57 57 58 59 60 61 62 63 64 65 66 68 68 68 67 68 68 68 67 67 66 66 66 67 66 66 65 64 65 65 65 64 64
45 45 45 45 45 45 45 46 47 47 47 47 47 48 49 50 52 53 54 55 56 57 58 59 59 60 60 60 61 61 61 61 60 59 58 59 60 61 61 62 62 62 61 60 60 60 60 61 61 60 60 60 59 59
39 39 39 38 39 40 41 41 42 43 44 45 45 45 46 46 47 48 49 50 51 52 53 54 55 55 55 55 55 55 56 56 57 57 58 58 57 56 56 55 55 55 55 56 56 57 57 57 57 57 56 55 55 54
38 39 39 39 40 40 39 40 40 40 41 41 42 41 42 43 44 44 46 47 46 47 47 48 48 48 48 49 49 50 50 51 51 51 51 51 51 51 52 52 53 53 53 53 53 53 53 53 53 53 52 51 51 51
31 31 31 32 34 34 35 36 36 37 37 37 37 38 38 39 41 41 42 43 43 43 43 44 44 44 44 44 44 44 45 45 46 47 48 48 48 48 48 49 49 49 48 48 49 49 49 49 48 48 47 48 48 48

GFSWCAN_250_spd_078.txt.gz
Wind_Speed
40 41 41 41 40 39 40 40 40 42 43 45 48 49 48 48 48 43 44 48 50 53 60 52 45 55 60 67 72 77 83 84 90 84 81 92 94 88 86 90 88 82 79 74 74 70 60 59 59 56 54 55 51 49
37 37 37 37 37 37 35 33 33 35 38 40 41 41 41 41 42 41 43 48 52 60 61 49 51 55 64 72 75 73 71 82 81 77 78 91 92 89 83 85 89 87 78 72 71 68 65 64 60 59 58 55 56 53
33 34 33 32 30 28 27 24 25 28 31 34 35 35 37 39 39 43 50 53 57 59 52 50 52 62 68 69 71 72 77 79 81 79 83 95 99 90 86 79 83 86 84 78 72 68 64 62 62 61 59 59 57 54
29 27 25 22 20 20 20 18 20 22 26 30 31 34 37 41 45 47 49 55 54 48 52 53 53 58 64 69 72 73 78 82 81 83 82 90 96 89 84 81 80 78 80 77 72 70 67 65 65 61 58 55 56 56
22 19 16 12 12 12 13 15 17 21 26 28 31 35 41 45 49 53 55 52 52 54 52 47 51 61 64 66 71 73 79 81 83 82 81 84 94 90 87 83 78 77 75 72 69 70 68 66 65 62 59 58 57 56
16 12 8 6 5 7 10 13 16 20 24 28 33 38 42 47 50 51 51 52 50 47 47 48 54 55 58 65 71 75 77 81 82 82 80 85 97 92 86 78 73 72 71 73 71 70 67 65 65 59 58 59 59 60
9 6 3 0 4 9 12 14 17 21 25 29 34 38 43 44 44 43 41 38 38 40 41 42 49 53 57 60 69 74 75 82 80 71 77 85 92 95 83 73 71 72 72 70 66 65 68 68 62 62 61 62 63 63
3 2 3 5 8 12 16 18 20 22 23 26 30 32 33 33 35 37 40 43 43 40 40 44 48 49 51 56 63 68 71 69 65 69 79 82 87 90 86 77 74 72 69 67 67 67 63 63 64 63 62 62 63 65
4 6 8 9 13 16 17 18 19 20 22 24 26 28 30 33 35 35 36 35 35 36 39 41 42 44 46 50 58 62 65 66 68 69 77 80 82 77 82 87 84 78 71 68 66 64 65 63 62 63 64 64 65 67
8 11 13 13 14 18 21 24 25 25 25 25 26 28 30 31 32 34 35 34 35 36 36 37 37 40 43 48 55 61 64 66 66 70 75 76 78 77 77 82 87 83 77 75 73 70 70 69 67 66 67 68 69 72
11 14 16 17 17 18 23 26 29 30 30 29 28 28 28 29 30 31 33 34 32 33 34 35 35 37 39 45 53 57 58 62 62 64 64 69 74 75 73 76 81 80 80 80 76 75 73 71 70 70 73 73 74 76
13 15 18 21 22 22 22 22 25 28 30 31 32 31 30 29 30 30 31 31 30 31 31 32 33 35 40 47 53 51 54 53 58 64 63 65 68 69 71 74 74 75 77 77 74 72 69 69 68 67 69 72 74 76
17 18 19 21 23 24 26 27 27 27 29 29 29 30 31 31 30 30 31 31 30 29 29 31 32 36 39 45 48 50 52 51 57 58 56 59 67 69 71 73 73 75 75 70 67 66 67 68 68 70 72 73 74 76
19 19 19 20 21 23 25 26 29 30 30 32 33 33 33 32 32 31 32 32 29 28 30 32 34 36 41 44 46 48 50 53 55 52 54 62 66 68 70 73 75 76 71 69 68 68 69 70 72 74 76 78 79 81
17 19 22 22 23 23 24 25 25 27 29 30 29 31 32 31 31 31 32 32 31 34 36 35 35 38 41 43 45 48 48 49 49 48 56 62 65 64 67 71 72 70 69 69 68 69 70 72 74 75 77 79 81 83
19 18 18 19 20 20 21 22 23 24 24 25 26 27 26 29 29 29 29 30 30 31 30 31 32 34 37 40 40 41 38 43 48 50 56 60 62 62 64 67 69 71 71 71 72 73 75 76 79 81 83 85 86 89
25 23 19 19 20 21 21 21 23 25 27 28 27 26 25 27 27 26 28 30 28 27 31 31 31 31 32 35 35 34 37 38 44 50 54 61 65 68 68 69 70 73 74 75 76 78 80 81 83 85 86 87 88 89
26 25 25 24 22 22 22 23 23 25 27 28 28 29 28 26 28 31 33 34 34 32 32 32 30 31 30 30 31 32 34 36 38 46 56 60 66 69 71 75 76 76 76 76 76 77 78 78 79 80 82 82 83 83
23 24 24 25 25 26 26 24 22 24 27 30 31 32 30 28 28 30 33 35 36 36 35 33 31 30 28 29 28 28 32 32 35 41 48 58 63 61 61 64 67 68 69 70 70 72 75 78 79 80 83 85 83 85
23 22 24 26 26 24 22 20 20 25 27 30 30 30 30 31 31 32 32 33 38 36 36 36 33 32 32 32 32 35 34 33 35 36 39 43 46 52 61 67 69 71 73 75 76 76 75 74 76 78 81 84 85 86
25 20 19 22 24 25 24 25 26 27 29 33 32 30 29 27 26 28 29 33 38 41 36 37 37 36 33 36 37 37 36 37 38 38 38 38 40 43 46 49 54 56 59 63 68 70 72 74 74 75 76 78 81 84
21 21 18 15 13 16 17 18 20 23 24 24 26 28 27 25 25 26 24 26 31 30 31 32 31 30 29 31 31 32 34 35 35 37 40 44 45 48 52 55 59 62 63 64 67 69 69 70 73 76 78 78 80 84
19 19 21 20 16 16 12 11 11 14 14 12 15 25 26 28 29 30 29 30 31 31 32 34 36 38 38 39 40 41 42 41 42 44 47 50 53 55 57 59 60 62 65 66 67 70 72 74 75 77 81 83 84 84
17 17 18 18 18 18 13 11 15 14 11 7 9 16 19 22 26 30 31 32 34 35 36 37 37 39 40 41 43 44 47 48 50 51 52 54 56 57 58 59 61 63 66 68 71 74 77 78 79 80 82 83 86 89
21 20 20 18 17 16 15 14 14 14 15 17 19 17 16 16 17 20 23 22 22 26 32 34 34 38 40 41 44 46 48 50 53 57 57 60 62 65 67 68 70 71 72 73 74 75 76 78 80 83 84 87 90 91
23 23 23 23 23 22 22 21 21 22 21 23 23 23 24 25 25 26 28 30 32 33 34 37 40 40 42 44 45 48 50 52 55 57 58 60 63 65 67 69 70 72 73 75 77 78 80 82 84 85 87 89 90 91
30 30 29 28 28 28 29 29 30 30 30 30 30 31 32 34 35 35 37 38 39 39 40 43 45 47 49 50 52 53 55 58 60 62 63 65 67 68 69 71 73 75 76 77 79 81 82 84 85 86 87 87 87 85
38 38 38 37 37 37 36 36 37 37 37 37 37 38 38 40 40 42 44 45 47 49 51 52 53 55 57 58 59 60 61 63 64 66 68 69 71 72 74 75 76 77 78 79 80 81 81 82 83 83 82 81 79 77
42 43 42 43 43 44 44 45 46 47 47 47 48 48 48 49 50 50 52 53 54 55 57 59 60 61 62 63 64 65 66 67 69 70 71 73 74 74 75 75 75 76 76 76 76 76 76 75 74 72 71 70 69 69
46 46 47 47 47 48 48 48 48 48 49 51 52 53 54 56 57 58 59 60 61 62 62 63 63 64 64 65 66 67 67 67 67 68 69 70 70 71 71 71 70 70 69 69 68 67 64 63 64 64 65 65 65 64
45 45 45 45 46 44 44 45 46 47 48 50 51 52 53 55 56 57 58 59 59 60 60 60 60 61 62 62 62 63 63 63 64 64 64 64 64 63 63 62 62 61 61 60 59 59 59 60 60 60 60 60 60 60
37 39 39 41 42 43 44 45 46 47 48 49 50 50 52 53 54 55 55 56 56 56 56 56 56 56 56 56 56 55 54 54 54 55 55 55 56 56 57 57 57 57 57 57 57 57 56 56 56 56 56 57 57 56
35 34 33 33 34 35 35 37 38 40 41 42 43 44 45 45 47 47 47 47 48 48 48 48 48 48 48 48 49 49 49 50 51 52 52 52 52 53 53 53 54 54 53 53 53 53 53 53 53 53 53 53 53 52

GFSWCAN_250_spd_081.txt.gz
Wind_Speed
39 38 39 41 43 45 48 49 49 50 50 51 53 55 57 60 59 55 57 52 48 45 53 56 53 56 58 51 43 52 49 58 61 64 64 66 66 60 73 79 81 91 85 76 66 61 61 60 57 56 58 60 61 53
36 37 39 40 42 41 40 40 39 40 41 43 46 49 53 54 54 53 53 51 51 54 56 58 54 56 58 51 43 46 52 58 59 61 62 58 57 56 68 74 81 89 84 78 67 62 64 60 63 62 64 65 62 56
35 35 35 34 32 32 32 32 32 32 32 35 40 43 47 48 48 49 51 53 53 53 57 54 57 58 56 52 47 53 55 58 59 62 62 65 69 67 73 76 82 90 88 83 74 64 65 63 62 62 66 64 61 57
29 29 29 28 27 27 27 27 25 25 26 29 32 36 38 41 42 43 46 53 54 52 52 54 61 56 53 43 46 53 54 56 61 63 68 70 67 66 74 83 84 87 87 87 83 76 69 64 62 65 64 66 63 61
26 25 24 23 21 20 18 18 18 19 21 24 27 29 32 35 40 46 50 48 48 52 51 55 51 49 43 44 50 55 53 57 61 62 63 62 63 68 77 87 84 85 80 82 85 80 77 72 65 64 67 66 65 64
21 20 18 15 13 12 12 12 14 17 21 23 25 27 32 37 42 45 45 49 52 53 54 48 45 45 45 45 53 52 53 56 60 61 63 63 67 69 76 84 83 84 82 79 82 83 81 79 76 71 68 68 67 65
15 14 11 8 7 7 6 8 10 14 18 21 24 28 32 36 36 37 38 39 41 43 43 42 43 43 44 48 50 49 50 56 57 59 62 61 63 73 79 88 83 80 78 75 78 80 77 76 76 74 72 69 67 67
11 9 7 5 2 2 5 8 11 14 17 20 23 25 27 30 33 36 36 38 40 38 36 36 38 38 38 44 47 48 49 54 56 60 59 62 69 69 68 85 84 79 82 82 74 70 73 72 72 73 72 71 68 68
6 5 5 5 5 7 10 13 15 17 17 18 20 23 26 29 30 32 34 34 34 34 36 37 34 37 42 43 42 44 47 52 55 56 59 62 64 63 68 86 87 83 80 76 75 69 66 66 66 66 67 68 68 68
5 6 9 10 12 14 17 19 20 21 20 19 20 19 23 26 28 30 30 31 31 32 32 31 32 34 36 38 40 43 43 49 53 57 56 61 59 60 70 88 89 82 74 69 65 63 66 66 63 63 63 64 65 66
6 8 12 14 16 18 22 26 29 31 31 31 28 27 25 26 28 29 30 29 29 29 28 28 29 30 33 34 37 37 40 45 48 49 49 45 51 55 62 77 86 80 75 72 65 61 62 65 65 64 64 65 67 70
9 9 13 15 17 20 23 25 27 29 31 36 37 31 30 29 28 27 27 27 27 26 26 25 25 26 28 29 32 33 36 40 43 41 38 39 48 54 58 64 76 79 78 77 73 68 66 64 63 64 67 70 72 73
12 12 14 18 19 22 23 25 27 29 30 33 35 34 31 32 30 31 29 28 26 24 22 21 22 24 26 28 29 33 34 38 41 40 39 43 44 47 53 61 68 76 81 81 78 75 72 70 68 69 71 72 74 77
14 14 14 15 18 21 23 25 27 29 30 30 30 33 32 31 29 27 28 27 25 25 24 23 24 24 25 27 28 31 35 37 39 39 41 46 50 56 59 61 64 69 75 79 79 77 77 78 79 80 81 81 80 81
14 16 16 15 18 19 19 18 19 22 24 27 26 26 27 27 29 30 29 27 28 27 26 25 23 24 25 26 30 33 35 36 36 37 41 44 50 56 59 62 64 67 70 69 68 69 70 72 74 77 78 78 78 77
15 15 15 16 17 18 19 20 20 22 22 21 22 23 25 27 27 26 27 25 24 23 22 22 23 23 23 27 30 33 33 34 35 38 41 43 45 50 54 58 61 62 62 62 63 65 67 70 72 73 75 76 77 79
19 17 18 17 16 15 16 18 19 19 21 21 21 22 25 25 26 26 25 23 21 22 21 20 18 21 24 26 27 27 28 28 29 33 37 39 42 46 50 54 58 61 62 63 63 65 67 69 72 74 75 76 78 81
21 19 19 19 19 19 19 19 19 20 20 19 20 21 22 24 24 25 26 27 25 27 24 23 22 23 24 25 26 25 25 25 26 29 32 38 44 49 53 56 56 59 62 64 67 68 70 72 74 75 75 77 80 83
22 21 21 21 21 20 19 20 21 23 24 24 23 23 24 25 25 26 26 26 25 26 26 23 21 20 20 21 24 25 23 24 26 30 36 40 46 53 58 61 63 64 65 67 69 71 72 73 76 79 81 83 85 86
21 21 23 22 23 23 21 21 24 26 29 29 26 25 26 27 27 28 29 27 26 29 28 24 18 16 19 21 20 23 23 23 24 26 31 39 45 50 54 58 61 65 68 72 74 76 79 80 79 81 81 82 81 83
23 22 22 22 21 18 17 17 18 21 25 25 27 25 27 28 28 30 31 30 31 30 26 26 23 21 20 20 21 21 21 20 20 23 27 30 35 42 49 55 59 62 64 64 65 68 70 73 75 78 82 84 83 80
25 24 23 24 21 22 23 24 23 22 22 25 24 21 21 26 28 29 31 33 30 32 32 29 26 25 23 21 19 19 18 20 22 25 26 27 29 31 35 38 41 46 52 56 59 61 62 63 65 68 72 76 78 79
19 20 21 22 23 22 20 16 19 18 22 21 20 20 18 19 22 16 22 25 24 30 28 27 25 24 23 24 26 23 22 22 21 22 24 27 30 33 35 39 43 46 49 52 56 59 63 66 69 72 73 74 77 79
12 16 16 17 15 16 17 18 15 13 13 13 19 20 21 21 21 22 21 20 23 22 21 22 25 27 26 27 29 29 30 31 33 33 34 35 38 41 45 47 49 52 56 59 62 65 67 69 70 72 75 77 80 81
13 13 13 12 12 9 9 11 13 11 12 11 11 15 16 14 18 21 19 21 26 27 26 26 26 26 27 28 31 35 37 38 41 43 45 47 48 49 51 55 57 59 60 63 66 69 71 73 75 76 77 79 82 84
16 17 17 16 16 15 14 14 13 12 10 11 14 17 17 18 17 21 24 24 27 30 29 32 35 35 36 39 39 40 41 42 43 46 48 50 52 54 57 59 61 63 65 66 68 70 72 74 76 79 81 82 84 87
22 23 24 24 23 22 22 22 21 21 22 22 22 22 24 27 28 30 33 34 35 35 36 37 38 38 41 42 44 46 48 49 51 53 55 58 59 59 61 63 66 67 68 69 71 72 75 77 79 81 83 85 87 88
29 29 28 28 29 29 29 29 30 31 31 31 31 32 33 34 35 37 38 39 40 41 43 45 47 49 49 50 51 53 55 57 57 58 60 61 62 63 65 68 69 71 72 73 75 76 78 80 81 82 82 83 83 83
39 39 38 39 39 39 39 39 39 39 39 39 40 41 42 43 44 45 46 47 48 50 51 53 54 55 55 56 57 58 59 61 63 66 67 68 69 70 72 73 74 74 75 75 75 76 76 76 77 77 76 75 72 70
42 41 42 43 44 45 46 47 48 49 49 51 52 53 53 54 54 54 56 56 57 58 60 61 62 63 64 65 66 67 67 68 69 70 71 72 72 71 71 71 71 71 72 72 71 71 70 69 68 66 66 65 65 64
42 42 42 43 43 43 44 45 46 49 51 52 54 56 58 59 61 62 64 64 65 66 66 67 67 67 68 68 68 69 69 68 68 68 68 68 68 68 68 68 67 67 66 64 63 63 62 61 61 61 61 60 60 59
41 41 42 43 44 45 46 48 49 50 51 53 54 55 56 58 59 60 61 62 63 63 63 64 64 64 63 63 64 64 64 64 64 64 64 63 62 62 61 60 60 59 59 59 58 58 58 57 56 55 56 56 56 55
36 37 38 39 40 41 42 42 43 44 46 47 49 50 51 51 52 52 52 53 53 54 54 55 55 56 56 56 56 56 56 56 57 56 56 56 56 56 55 54 54 54 53 52 52 52 52 53 53 53 52 52 52 52

GFSWCAN_250_spd_084.txt.gz
Wind_Speed
33 33 33 35 36 38 39 42 45 48 50 52 54 56 57 58 57 53 52 51 49 46 48 45 45 45 48 49 52 53 43 34 34 40 46 52 58 59 67 70 72 63 62 65 71 68 64 71 73 71 64 59 58 50
30 30 33 36 38 41 44 46 48 50 52 54 56 57 59 59 58 56 55 53 51 46 45 48 47 51 53 52 53 47 42 37 37 38 46 53 61 64 65 69 57 51 64 71 73 67 74 74 72 70 68 64 60 55
30 32 34 37 39 41 42 43 44 44 46 47 49 51 53 55 57 55 57 56 51 45 45 45 44 54 60 54 52 45 43 40 41 41 48 55 63 64 61 61 49 56 62 68 69 70 75 72 71 68 67 69 66 63
30 32 34 36 35 33 33 34 35 36 38 40 42 45 47 48 48 49 50 52 46 44 40 47 57 59 60 56 52 47 45 39 42 41 49 54 60 60 58 57 53 62 65 67 73 77 74 70 68 67 70 71 67 67
30 30 29 27 25 25 24 24 26 27 29 31 34 38 40 44 47 46 47 45 43 38 43 51 63 62 55 52 53 48 43 41 42 42 48 53 57 58 56 55 59 62 64 70 76 83 75 71 64 67 68 68 69 67
24 22 20 19 18 17 17 18 18 21 24 27 30 32 35 38 40 42 40 36 35 41 49 56 53 47 49 54 51 44 37 40 40 42 48 53 56 55 55 46 60 65 69 73 77 82 81 76 68 65 66 65 63 65
17 15 15 12 10 9 8 9 11 15 19 22 26 28 30 29 29 34 40 41 40 45 46 48 48 47 49 46 38 39 39 40 43 43 47 52 54 55 55 55 62 65 70 72 76 80 80 78 72 69 68 68 70 71
11 9 7 4 4 3 3 6 8 11 14 16 20 22 26 29 31 33 34 37 42 42 42 41 39 40 38 32 40 42 39 41 41 43 46 51 53 50 52 62 68 70 71 71 78 82 80 81 77 71 68 68 69 70
6 5 3 3 3 3 5 7 8 11 14 16 17 18 21 24 26 27 31 35 37 37 36 36 36 34 33 42 43 39 39 38 39 41 43 50 49 43 58 66 69 72 71 73 77 81 79 82 81 79 76 71 68 68
6 5 4 5 6 10 12 15 18 19 21 21 20 20 22 24 27 29 29 28 28 30 33 34 36 37 38 35 36 37 35 35 37 41 44 49 47 54 62 64 65 70 72 72 74 73 72 73 76 78 80 79 76 72
8 7 7 8 8 13 18 21 24 27 28 29 28 25 25 26 28 30 32 33 34 33 33 32 32 30 31 32 33 33 35 34 38 41 46 48 50 50 56 63 67 69 73 73 74 72 74 74 77 80 76 74 75 76
9 9 10 11 12 16 20 23 27 30 32 36 38 34 33 32 33 34 33 32 32 31 31 30 29 30 31 33 32 32 32 33 36 38 42 42 45 51 57 60 62 67 70 74 71 70 71 72 72 71 70 72 73 73
12 12 12 14 15 18 20 24 26 28 28 29 35 34 31 33 32 30 31 32 32 31 28 26 26 27 27 26 26 26 25 29 33 31 37 40 38 43 49 50 56 57 62 71 72 69 67 65 63 64 64 65 66 67
14 15 15 16 18 18 20 22 24 27 29 30 33 34 32 32 31 31 29 28 27 26 25 24 23 22 22 23 24 25 27 30 29 30 37 41 40 45 51 56 57 56 60 70 76 70 67 68 66 64 63 63 64 65
16 17 17 18 18 19 20 21 21 23 25 26 26 29 29 28 28 27 26 25 24 23 22 22 21 22 23 23 25 28 28 29 32 37 40 41 43 44 49 51 51 57 60 64 69 71 67 66 68 70 70 70 70 72
16 17 16 17 18 20 21 21 22 22 22 23 25 25 25 24 24 23 22 22 22 21 21 20 20 20 21 22 23 26 28 31 36 42 44 44 45 45 47 48 51 54 56 57 58 61 65 68 69 71 72 74 76 77
17 17 17 18 18 17 18 20 21 22 23 23 23 22 24 25 25 24 24 24 22 20 20 20 19 16 18 21 23 26 30 32 33 38 41 42 41 43 43 44 44 45 46 48 49 52 56 60 62 65 68 71 74 76
18 18 17 17 18 19 18 18 18 19 22 22 23 21 22 25 26 26 28 27 26 23 22 21 22 20 19 19 20 21 25 30 33 33 33 36 38 37 37 38 40 43 45 47 49 51 54 57 60 63 66 68 70 72
20 20 19 19 18 17 18 20 20 21 23 23 23 23 24 26 26 26 26 24 24 24 23 24 22 20 19 19 20 21 22 24 26 29 32 32 33 35 37 39 41 43 45 47 49 52 56 58 61 64 66 69 73 76
21 20 20 20 20 21 22 23 23 23 24 23 23 23 24 25 25 27 27 24 25 24 27 26 24 21 20 20 19 21 23 25 26 28 31 34 34 33 34 36 38 42 47 51 54 57 61 63 65 68 70 73 75 75
22 22 22 21 18 17 17 20 23 25 25 25 24 25 27 27 26 27 24 22 24 28 27 23 22 20 19 21 21 21 21 21 24 26 29 33 34 37 40 43 46 48 52 55 58 61 64 66 68 70 73 75 77 77
23 22 22 20 18 17 17 19 21 23 26 26 25 26 27 25 26 26 23 25 25 26 26 23 23 21 18 17 21 23 23 24 25 26 27 29 32 35 37 40 43 46 50 53 57 59 62 65 67 69 71 75 77 78
24 25 28 27 25 22 21 20 22 24 25 25 24 26 27 27 26 24 23 20 16 24 23 21 20 20 18 15 12 12 13 14 15 16 18 22 25 28 31 35 39 43 46 50 52 55 56 57 57 60 63 67 71 74
17 18 18 20 21 21 21 21 21 22 22 20 18 21 23 22 18 18 18 17 22 20 22 21 17 16 17 16 15 15 16 17 17 17 17 19 22 25 27 29 32 35 38 41 45 49 53 57 61 65 68 71 73 75
13 13 13 14 16 15 15 14 13 14 13 15 16 17 16 15 14 15 14 13 14 13 19 19 18 17 18 18 20 21 23 24 26 28 29 30 31 33 36 38 41 44 47 50 54 58 61 64 67 70 72 72 72 72
9 8 9 10 12 12 11 11 12 10 8 7 10 13 13 12 11 15 19 21 21 20 19 19 20 20 22 24 25 27 29 31 32 33 36 39 41 43 45 47 50 53 55 58 60 62 63 64 66 68 70 72 74 75
15 14 14 14 13 12 14 15 15 15 14 14 14 14 16 18 21 24 24 24 25 27 27 27 28 29 30 32 33 35 37 39 40 41 43 46 49 52 53 55 57 57 59 61 62 64 66 67 69 70 72 74 76 78
21 22 21 22 23 22 22 22 21 22 22 23 24 25 27 28 29 30 31 33 35 36 37 38 40 40 41 45 47 50 50 49 51 53 53 53 54 56 57 58 60 61 64 65 67 67 67 69 70 72 73 75 76 76
29 29 29 29 30 30 31 31 32 32 32 33 33 34 35 37 38 38 40 42 43 44 45 47 48 49 50 52 53 54 55 57 58 59 61 61 62 62 63 64 64 65 66 67 67 68 69 69 69 70 71 71 71 70
39 39 39 40 39 40 40 41 41 42 43 43 44 45 46 47 48 48 49 50 51 52 53 54 55 55 56 57 58 58 59 60 61 62 63 64 64 64 64 65 66 66 67 67 66 66 67 67 67 67 67 66 66 66
42 43 43 44 45 47 48 49 51 52 53 54 54 55 55 57 57 57 58 59 60 60 61 62 62 62 63 63 63 64 64 63 63 63 63 63 63 62 62 62 62 61 62 62 63 63 63 63 63 63 63 62 61 60
43 43 44 45 46 48 49 50 52 54 55 56 58 59 60 61 61 61 59 59 59 59 58 58 58 58 57 57 57 56 56 56 56 57 57 57 58 58 58 58 58 58 58 58 58 58 58 58 58 57 58 57 57 56
41 42 42 44 45 45 46 48 48 49 50 50 50 51 51 51 53 52 52 52 51 51 51 51 51 51 51 52 52 52 52 52 52 52 52 52 52 52 52 53 52 52 53 53 53 53 53 53 53 52 52 51 51 51

GFSWCAN_250_spd_087.txt.gz
Wind_Speed
30 32 34 35 35 36 36 36 36 37 37 38 39 40 40 40 39 36 36 34 37 42 46 42 40 40 40 40 40 45 40 35 32 32 37 41 45 46 51 57 62 63 66 66 63 60 57 66 68 65 58 65 63 66
30 31 31 31 30 31 31 33 35 37 39 41 42 43 44 45 46 44 41 39 40 42 44 45 46 45 45 48 46 40 38 33 31 32 34 40 46 48 54 56 63 63 67 71 64 61 59 64 66 66 60 62 66 70
25 24 25 27 28 31 33 36 39 41 44 46 47 48 49 50 50 46 45 46 43 41 47 44 44 51 53 52 50 46 42 40 34 35 37 38 45 51 55 58 64 66 70 68 55 59 59 64 68 67 64 64 70 72
22 23 26 29 31 34 36 39 40 42 44 46 48 50 50 50 51 50 47 47 42 38 38 50 57 54 59 58 52 48 46 41 37 39 37 39 45 50 54 60 66 67 67 60 57 53 64 65 68 67 65 67 71 69
24 26 28 29 31 31 32 34 36 37 38 40 42 43 45 45 46 46 46 47 43 40 46 54 56 59 59 56 51 49 47 42 37 36 36 38 45 50 53 59 60 64 63 41 50 58 63 66 70 68 65 69 71 71
25 25 25 26 26 27 28 27 28 30 32 34 37 39 40 41 41 38 33 37 40 44 45 41 45 55 56 52 49 51 50 46 39 36 38 40 47 46 49 54 58 56 48 38 52 60 62 67 71 68 67 68 70 71
21 20 20 20 20 21 20 21 22 24 26 28 30 32 35 36 34 36 43 48 45 43 37 38 45 49 55 55 52 52 50 43 36 37 38 41 45 44 45 47 56 49 40 46 62 68 68 70 70 69 70 70 66 66
14 13 14 12 12 13 13 14 16 18 21 23 25 29 31 32 34 36 39 40 38 40 39 42 45 48 48 44 44 46 43 31 29 36 39 41 44 43 45 51 50 44 46 55 56 62 69 72 72 69 73 72 69 66
8 6 5 4 5 6 8 10 13 16 18 19 21 23 27 30 31 32 31 34 34 33 33 32 34 37 37 38 41 35 29 30 39 41 38 41 42 41 45 47 48 47 54 61 66 64 69 73 74 76 77 76 73 66
4 4 3 1 0 5 9 12 14 18 21 21 21 21 21 23 24 27 26 25 26 26 28 31 32 33 37 37 30 30 36 42 44 41 39 37 36 38 41 49 49 55 62 64 64 67 69 73 77 76 78 77 74 69
7 7 6 5 4 7 10 13 16 19 22 25 26 26 26 27 28 26 26 26 26 26 27 29 32 31 31 31 37 40 40 38 38 39 33 29 35 38 43 49 52 55 66 67 68 70 72 74 78 78 77 76 76 73
9 10 9 8 7 7 11 14 18 20 20 24 27 28 29 29 30 32 33 32 33 34 33 30 33 37 39 36 35 33 33 37 39 37 28 27 40 40 46 53 58 61 66 66 67 70 71 73 75 78 79 77 78 77
11 11 11 11 11 12 14 16 19 23 25 28 29 27 28 29 30 31 32 32 30 31 32 34 35 34 35 35 35 35 36 38 37 28 26 35 42 42 50 54 57 61 63 64 65 68 69 70 72 75 79 76 74 72
14 15 15 15 14 15 17 18 19 23 26 28 30 30 27 26 27 29 32 33 33 33 33 33 33 33 30 30 28 27 25 25 23 25 32 39 40 44 51 52 53 53 52 54 60 66 70 70 69 71 75 78 76 74
17 17 15 15 16 16 18 20 21 22 25 27 29 29 29 28 28 28 29 29 28 28 27 25 24 23 23 23 24 26 26 26 27 29 32 37 39 43 46 47 48 48 51 54 60 67 68 67 70 68 69 70 72 73
21 20 19 18 20 21 22 22 24 24 23 25 25 26 26 27 27 27 27 26 24 22 20 19 18 18 18 18 19 19 18 19 25 29 33 36 38 41 44 46 48 50 52 52 62 69 65 60 62 63 64 66 67 67
20 21 21 20 20 21 21 22 22 23 23 23 25 24 25 26 26 26 25 25 24 24 23 21 19 16 13 12 13 16 19 21 23 26 31 37 41 43 44 46 45 47 50 53 55 57 58 56 56 60 65 67 67 69
21 21 21 21 22 21 20 19 19 21 22 23 25 27 28 28 29 28 27 26 24 22 21 22 23 23 20 17 17 17 18 20 24 29 33 34 39 40 40 43 46 49 50 51 51 49 47 50 52 57 61 66 69 72
20 21 22 20 20 22 23 21 20 19 20 23 25 25 27 26 27 29 28 26 23 21 21 19 18 19 22 22 20 19 21 25 25 29 32 35 38 38 40 41 42 43 43 43 43 43 45 48 51 54 56 59 61 64
19 19 20 21 21 21 22 22 21 20 22 24 24 25 25 26 27 26 27 26 26 24 23 22 20 20 19 19 21 23 23 22 23 27 30 31 32 34 37 39 39 39 40 43 44 46 49 51 53 55 57 59 61 64
17 19 18 16 17 19 21 23 23 22 23 23 22 21 24 26 27 26 27 25 23 20 19 19 18 16 16 18 18 20 21 22 23 25 28 31 34 37 39 40 40 40 41 42 45 47 49 53 56 59 61 64 66 67
20 19 18 18 16 16 18 20 22 22 22 22 23 24 25 25 24 25 23 21 20 20 20 21 19 15 13 12 11 15 17 21 23 24 25 28 32 36 40 41 42 43 45 47 49 51 53 56 58 60 62 64 67 70
17 17 17 16 17 17 17 17 19 21 22 23 24 24 23 25 24 19 21 19 19 23 23 24 24 21 17 14 13 15 17 17 18 22 24 26 27 29 32 36 39 42 44 46 48 50 53 55 58 60 63 66 68 70
21 23 19 17 17 18 16 15 18 21 23 26 27 25 26 27 22 21 18 18 12 21 19 16 17 17 16 15 16 15 16 17 18 18 19 20 24 27 31 34 36 39 42 45 48 51 54 57 60 64 66 67 68 69
16 18 20 21 21 20 19 18 18 17 16 18 22 24 24 20 22 21 16 16 13 10 13 19 20 20 18 18 19 19 19 20 20 19 21 22 22 24 26 29 32 35 38 41 44 47 50 53 56 59 62 65 68 71
9 10 13 14 16 18 19 18 15 14 14 14 15 16 17 16 15 16 16 16 16 14 14 11 11 14 17 20 21 23 25 27 28 29 30 32 33 35 37 39 41 43 46 48 51 53 56 59 61 64 65 67 68 68
6 6 6 6 6 8 10 12 14 16 16 14 14 15 16 16 17 19 18 18 19 20 21 22 22 22 23 25 27 29 31 33 33 34 36 38 39 41 43 44 47 49 51 53 55 58 59 61 62 63 64 66 68 69
12 12 13 12 12 13 14 14 16 16 17 16 18 20 22 23 25 26 27 29 28 29 29 30 31 33 34 35 36 36 37 39 41 42 43 44 46 47 48 49 51 53 54 55 56 58 60 62 65 66 67 69 70 71
23 23 23 23 23 23 23 24 24 25 26 26 27 27 28 29 30 31 32 34 35 36 37 39 39 40 41 42 42 43 44 45 46 46 46 47 49 51 53 54 55 56 57 59 60 62 63 66 68 68 67 66 66 67
31 31 31 32 32 33 33 33 34 35 36 37 38 39 39 40 41 42 42 43 44 45 46 47 48 48 49 50 51 52 53 53 54 55 56 57 57 57 57 58 60 61 61 62 62 62 63 62 62 62 62 63 63 63
39 39 39 40 40 40 41 42 43 44 45 46 47 48 49 50 50 51 52 53 54 54 55 56 56 56 56 56 56 56 57 55 56 56 56 56 56 56 55 55 55 55 55 56 57 57 57 57 57 57 57 56 57 57
41 42 43 43 44 45 46 47 48 49 50 51 52 52 53 53 52 52 51 51 51 51 49 49 49 48 48 47 48 48 48 50 51 51 52 52 52 52 52 52 53 52 52 51 51 51 52 52 52 53 53 53 53 52
38 39 39 41 42 42 42 43 42 43 43 44 44 45 44 44 45 44 44 45 45 46 46 46 45 44 44 44 44 45 45 45 45 46 46 46 46 46 46 46 46 47 47 48 48 49 49 49 49 49 49 50 50 50

GFSWCAN_250_spd_090.txt.gz
Wind_Speed
24 23 24 24 25 26 26 27 28 30 32 33 33 33 30 31 32 34 35 31 30 33 36 35 36 36 37 36 38 41 37 38 37 37 40 43 44 42 43 47 49 53 55 57 57 57 51 57 58 59 59 62 61 59
21 22 22 22 23 25 26 28 29 30 31 32 32 31 31 31 32 33 35 34 35 35 34 34 35 35 34 36 37 35 32 30 32 35 37 39 41 41 43 46 49 54 54 58 60 61 56 57 59 59 60 63 61 61
21 21 22 23 24 25 26 27 28 30 30 31 32 33 34 34 34 33 34 41 41 37 39 38 36 39 38 38 38 33 32 34 36 39 39 39 41 44 44 48 50 56 60 61 65 64 59 59 59 55 53 61 60 62
20 20 21 22 24 25 27 29 31 32 33 34 36 37 39 39 38 40 37 39 41 47 47 45 44 41 44 44 41 39 39 37 38 38 38 39 42 43 42 46 48 55 61 62 63 65 58 51 55 54 53 62 63 63
18 19 21 24 26 29 31 33 35 36 37 39 41 42 43 43 43 42 40 40 40 47 51 54 53 52 50 48 45 41 38 35 36 36 35 35 39 42 41 42 47 58 57 59 63 61 53 46 51 52 56 63 67 64
20 22 24 27 28 29 29 30 32 33 36 38 40 41 44 45 45 43 39 40 44 43 43 51 57 64 59 52 47 44 41 36 32 30 35 37 42 41 37 37 51 50 55 61 64 60 55 47 43 54 57 62 61 66
22 21 22 22 23 24 25 26 27 28 31 33 35 37 40 41 38 36 38 46 45 43 45 48 53 55 54 53 51 43 43 40 36 31 33 40 42 37 38 39 54 51 52 58 58 55 49 40 43 56 58 58 62 65
17 17 17 18 18 20 18 19 21 24 26 28 31 34 35 36 34 33 37 41 38 36 36 37 43 48 48 49 51 46 43 43 39 35 37 42 38 32 34 44 51 46 46 53 55 49 37 40 49 52 57 57 60 64
12 12 12 13 14 12 13 14 18 19 21 23 27 29 28 27 28 33 32 30 30 30 31 35 39 43 47 50 50 47 44 41 41 37 38 35 35 32 41 53 41 39 46 52 52 51 37 49 50 52 54 56 61 65
5 5 4 4 5 4 6 10 13 16 18 20 21 22 23 26 29 27 23 24 27 27 26 27 26 30 35 40 42 43 42 40 34 25 23 34 40 39 47 47 38 41 43 47 46 41 45 53 58 59 57 58 61 66
5 4 4 4 2 1 3 7 10 14 17 19 20 22 23 21 20 20 22 24 23 23 25 27 31 33 34 36 37 36 33 32 29 29 39 40 41 44 47 44 38 38 42 47 44 51 56 58 60 60 58 59 61 66
8 9 9 9 7 5 5 8 9 12 16 22 24 23 23 21 21 22 22 24 27 28 30 29 29 31 33 34 33 30 32 35 37 42 41 40 42 43 41 39 38 39 43 48 51 57 59 62 63 57 61 64 66 65
12 13 14 14 13 10 8 9 11 13 15 16 18 22 24 26 28 27 26 26 29 29 30 31 31 32 33 35 36 39 41 41 42 36 34 35 39 38 35 39 38 39 46 53 60 66 67 64 63 60 63 64 66 67
16 17 17 16 17 16 14 14 15 16 19 20 22 22 21 21 22 23 25 26 28 28 29 30 31 32 32 33 32 33 33 33 31 33 37 38 35 30 34 39 37 41 48 57 63 67 68 64 64 63 66 66 67 67
19 18 19 18 17 18 18 17 18 20 22 24 25 23 22 21 20 21 22 22 22 22 24 24 25 26 27 26 24 24 24 24 26 31 30 30 30 30 33 38 35 40 47 56 63 64 64 65 66 64 63 66 72 72
22 21 20 19 18 17 18 19 20 21 24 26 26 25 25 24 24 24 25 25 24 23 23 23 23 23 24 24 25 24 23 24 23 23 24 27 29 30 34 37 36 42 48 56 59 62 63 63 66 69 69 73 74 71
22 22 20 19 19 20 21 21 22 23 23 24 25 24 25 24 24 24 24 24 23 22 22 21 22 22 21 21 22 22 22 22 24 26 27 27 31 31 33 37 39 44 49 51 56 60 60 64 64 62 64 67 67 66
22 23 21 19 17 18 19 21 22 24 25 25 25 24 24 24 24 23 23 23 22 22 22 21 21 22 21 20 18 17 15 17 19 21 21 23 26 27 33 37 41 43 46 48 51 53 54 55 51 52 60 62 63 66
18 20 22 20 19 19 19 20 21 21 21 22 23 23 23 24 24 24 24 22 20 19 17 15 13 11 10 11 13 13 12 14 16 18 17 21 24 27 31 36 38 39 41 42 43 44 47 49 49 51 59 63 65 65
17 17 18 19 18 18 20 20 20 22 23 23 24 25 23 23 26 25 24 22 20 19 17 16 15 14 14 13 12 12 12 13 14 16 16 16 23 27 28 30 32 34 35 38 40 41 45 47 48 50 55 60 63 65
14 15 16 16 17 16 17 18 19 20 21 22 20 21 23 23 23 24 23 22 20 20 20 19 17 17 15 14 13 13 13 13 14 15 18 19 18 21 27 30 30 31 33 35 38 42 45 47 49 51 55 58 62 65
16 16 15 14 16 16 15 16 18 18 19 19 19 21 24 22 21 20 20 20 19 16 15 16 18 17 16 13 11 11 11 12 13 15 16 19 22 24 26 28 30 33 36 38 40 44 46 47 50 55 57 58 60 62
17 18 17 16 15 14 14 15 16 16 18 20 20 21 21 20 17 18 17 15 13 13 17 18 18 18 17 13 13 12 12 12 13 15 18 20 22 25 25 28 30 32 35 38 41 42 46 48 50 52 55 57 59 61
15 16 16 16 15 15 14 15 14 15 16 17 18 19 20 18 15 16 15 11 7 13 13 15 14 12 14 12 12 11 14 16 17 18 21 23 25 27 29 31 32 34 37 39 41 43 46 49 52 54 57 60 63 65
14 15 15 14 14 13 12 14 15 16 17 19 19 19 19 19 18 15 16 12 11 6 12 13 13 14 13 14 14 13 13 16 19 20 21 23 25 27 29 31 34 36 39 42 45 48 50 52 55 57 60 63 67 69
8 8 10 11 13 13 14 14 13 14 15 17 17 15 17 18 18 16 15 13 12 13 12 11 12 11 13 17 18 19 21 21 21 21 22 23 24 26 29 32 35 38 41 44 47 50 53 57 59 62 65 67 69 71
8 7 6 3 3 7 9 11 15 13 11 13 13 14 15 14 14 17 15 19 21 21 20 20 19 19 18 18 20 22 24 25 28 29 31 32 34 35 37 39 41 43 45 47 50 52 54 57 59 62 64 66 68 69
6 6 6 7 7 7 7 8 10 12 14 15 16 18 19 20 23 25 25 26 27 28 28 28 28 29 29 30 30 32 33 34 35 37 38 40 42 43 44 46 47 49 51 53 54 56 57 59 60 61 64 65 67 69
14 14 14 15 15 16 16 17 18 19 21 22 23 24 25 26 27 28 29 29 30 31 31 31 32 33 33 34 35 36 36 38 39 41 44 45 47 48 49 50 51 52 53 54 56 57 59 60 61 64 65 67 67 67
25 26 25 26 26 27 28 29 30 30 31 31 32 33 34 35 36 37 38 39 40 40 40 41 42 42 42 43 43 43 44 45 45 46 47 48 49 49 50 50 52 52 53 54 55 56 57 59 60 62 64 65 66 67
35 36 36 36 37 38 38 39 40 41 42 43 43 44 44 45 45 46 47 47 48 49 49 49 49 48 48 49 48 48 47 45 46 46 47 47 47 47 47 49 50 52 53 54 56 57 58 59 61 61 62 62 62 61
38 39 40 41 41 42 43 43 43 43 43 44 44 44 44 43 43 43 44 45 44 44 43 43 43 44 44 44 44 45 45 46 47 47 48 48 48 48 49 49 50 51 51 52 52 52 53 53 53 54 55 55 55 55
36 37 38 40 40 40 40 40 39 39 39 40 40 40 40 40 40 39 40 40 40 40 40 40 40 40 40 40 40 41 41 41 42 42 43 43 43 43 44 45 45 45 46 46 47 47 48 48 48 48 48 48 49 50

GFSWCAN_250_spd_093.txt.gz
Wind_Speed
26 25 24 23 23 23 23 23 24 25 26 27 27 29 30 29 27 27 25 25 28 28 27 28 29 31 33 35 35 33 34 34 33 34 38 41 42 42 43 41 42 41 44 48 52 54 56 59 58 57 55 62 64 61
23 22 21 21 21 21 21 22 23 24 24 24 26 27 27 26 26 26 23 25 27 21 25 28 32 33 35 34 32 34 35 33 34 36 38 37 38 39 42 41 40 40 44 48 50 56 59 61 58 55 55 59 57 56
23 23 22 22 21 21 21 22 22 23 24 25 25 26 27 27 29 29 30 29 26 24 25 25 28 32 31 32 33 32 34 34 35 36 35 35 35 37 37 36 37 38 42 45 48 54 57 59 58 59 58 56 52 53
22 21 20 19 18 18 18 19 19 20 21 21 22 25 27 28 31 34 34 32 30 29 29 29 30 29 29 31 33 35 36 36 36 36 36 35 36 35 35 35 35 38 41 42 48 53 56 55 54 56 56 54 51 50
16 15 16 16 17 18 18 18 19 20 21 22 23 24 27 28 31 34 36 37 34 36 31 32 32 31 33 31 30 32 35 39 38 36 35 36 36 36 36 34 39 37 41 44 51 52 54 49 45 46 50 46 46 51
18 19 20 21 22 23 23 24 24 25 26 26 27 29 29 31 31 30 31 35 40 42 41 40 38 39 37 35 32 31 32 34 36 35 36 35 38 36 34 32 40 37 40 44 51 50 49 46 43 42 41 41 45 47
19 20 21 23 24 25 26 27 27 27 29 31 32 34 35 36 36 36 36 39 40 43 48 51 50 48 45 40 35 32 27 29 33 37 36 35 36 30 27 31 45 40 38 42 51 49 48 49 48 43 35 43 49 48
17 17 18 20 20 20 20 23 25 28 30 33 35 37 39 40 39 36 38 41 38 35 37 47 56 58 48 41 40 36 32 27 26 33 37 37 38 30 26 37 50 42 39 40 46 49 49 52 50 47 42 39 48 52
12 12 11 11 12 12 15 19 22 24 27 29 33 36 36 30 30 32 34 36 32 31 32 38 46 53 49 53 44 37 33 31 31 30 34 36 29 24 39 47 53 44 36 37 43 48 50 54 52 50 44 48 45 49
7 6 7 6 7 10 12 15 17 17 19 22 25 23 21 23 25 26 26 25 23 25 31 37 40 42 46 49 49 46 38 33 30 34 31 25 29 38 45 52 52 42 32 37 39 43 47 50 49 45 43 44 43 52
1 0 2 4 6 8 9 10 11 14 15 17 17 21 25 27 26 24 21 22 27 30 33 32 32 34 35 39 40 42 37 37 32 32 30 29 36 45 50 53 52 36 32 36 38 39 44 44 44 42 45 44 48 45
5 6 7 9 9 8 9 11 11 11 16 21 22 23 23 23 21 23 26 28 28 28 29 30 30 35 38 40 38 37 36 29 24 29 28 34 42 52 55 56 43 29 31 38 37 37 41 42 43 45 45 48 57 54
13 13 12 13 15 14 12 14 15 12 12 16 19 21 23 26 28 28 27 28 28 28 30 32 33 34 34 30 32 32 30 28 27 30 38 40 56 50 39 32 25 31 35 35 35 37 41 44 46 50 53 54 53 54
16 16 16 16 18 17 15 14 14 13 11 11 12 16 21 23 22 22 22 23 23 24 25 26 28 29 30 30 31 31 31 32 36 41 43 46 31 18 19 25 31 34 34 34 35 37 39 44 50 52 54 58 54 60
18 19 18 18 20 19 18 16 16 17 18 18 18 16 18 18 19 19 18 18 19 20 22 23 24 25 26 26 25 26 28 30 34 36 36 32 24 22 27 30 33 34 33 32 37 40 42 46 52 55 57 58 63 66
20 20 20 20 21 21 19 18 19 20 22 25 24 23 20 20 20 21 21 20 20 20 20 21 21 23 23 22 23 22 22 24 24 25 25 25 27 27 29 33 36 34 31 31 38 42 45 49 54 56 57 57 59 63
19 20 21 21 21 21 22 22 22 22 23 23 24 22 21 19 17 20 21 19 18 18 19 20 21 21 20 19 20 19 19 20 21 22 25 27 28 29 31 35 38 34 32 33 40 42 46 51 54 59 60 61 62 62
18 18 20 20 19 19 19 20 20 20 21 21 21 20 19 18 19 20 20 19 19 18 17 16 15 14 14 14 14 15 16 17 18 20 22 24 26 27 29 36 37 34 32 37 40 41 47 50 52 53 58 60 61 63
16 16 18 19 18 16 15 16 17 18 18 19 19 18 19 19 19 18 18 17 15 14 13 12 12 11 11 11 10 11 12 14 16 18 18 20 24 28 31 32 31 29 33 35 38 39 42 45 48 53 57 58 59 60
16 15 16 17 17 16 14 14 14 15 17 18 17 17 17 17 19 19 19 18 17 16 15 13 11 10 10 10 10 10 10 13 14 14 16 17 20 21 22 23 24 26 30 31 32 32 36 40 43 47 49 49 52 56
13 13 13 14 15 14 14 14 14 15 16 17 17 16 17 18 19 18 18 18 16 14 12 12 10 7 6 5 4 3 4 6 8 9 9 14 18 18 17 19 20 21 24 26 27 28 30 32 37 38 41 45 48 51
12 12 12 11 12 12 13 12 11 10 12 12 14 15 18 16 17 17 16 15 13 13 12 10 13 13 10 9 7 7 5 4 4 6 7 10 12 12 14 18 19 21 23 26 29 31 33 36 39 41 43 44 46 49
12 12 9 8 8 10 11 11 11 10 11 10 11 15 12 13 13 13 14 14 13 11 13 13 15 15 14 13 10 9 9 10 9 8 8 10 11 13 15 17 20 22 25 27 28 28 30 32 36 39 43 46 49 52
12 13 11 10 9 9 10 11 11 11 12 11 10 12 12 11 10 13 12 11 6 2 9 13 13 13 13 11 11 10 10 12 13 13 12 12 15 17 18 20 22 25 27 28 29 31 34 36 38 41 43 46 50 53
13 13 12 11 10 9 9 10 10 11 10 10 11 13 12 10 10 11 12 10 7 4 2 6 5 7 6 8 12 15 15 14 15 15 16 17 19 20 22 23 26 28 29 31 32 34 37 39 41 44 47 50 53 55
13 12 8 9 9 9 9 9 10 10 10 10 11 12 12 13 13 12 12 11 9 8 9 8 8 7 9 10 10 12 14 13 14 17 20 22 24 25 27 28 30 31 33 35 37 40 42 45 47 50 53 56 59 62
9 9 8 8 7 5 6 6 7 8 9 11 13 14 14 14 14 15 15 16 15 16 16 16 16 17 19 20 19 19 20 22 23 24 25 26 27 27 29 30 32 35 37 39 42 45 48 50 53 56 58 61 63 66
3 2 2 2 2 3 4 5 7 10 11 10 11 12 13 15 16 18 20 21 22 23 24 24 24 24 26 27 28 29 28 29 29 31 32 33 34 35 37 38 40 41 43 45 46 48 49 51 53 55 58 60 62 63
9 10 10 11 11 12 13 14 15 15 16 18 19 21 22 22 23 24 25 26 27 29 30 31 32 32 33 33 33 34 34 35 37 38 40 41 42 43 44 45 47 48 49 50 51 52 54 56 57 59 60 62 64 66
20 20 20 21 21 22 23 24 25 26 27 28 29 30 31 32 33 34 34 35 35 36 37 37 38 39 39 40 40 40 41 41 41 42 43 44 46 47 48 49 50 51 52 54 54 55 56 57 58 59 61 63 65 66
30 31 31 32 33 33 34 35 36 37 38 39 40 41 41 42 42 41 42 42 42 42 43 43 43 43 43 42 42 41 40 40 40 41 40 41 41 43 44 45 47 49 50 52 53 55 56 57 58 60 61 63 64 65
36 37 38 38 39 40 40 40 40 40 39 39 39 38 38 39 39 39 39 39 39 39 40 40 40 40 40 40 41 42 42 42 42 43 44 45 46 47 47 49 50 51 52 53 54 55 55 56 56 56 56 56 57 57
34 35 35 36 36 37 36 37 37 37 36 36 36 36 36 36 36 36 37 37 37 37 37 38 38 39 39 40 40 41 41 41 41 42 42 43 43 44 45 46 46 47 48 48 49 49 49 49 49 50 50 51 51 51

GFSWCAN_250_spd_096.txt.gz
Wind_Speed
27 25 25 25 24 22 22 21 20 20 22 25 26 26 28 29 29 30 28 28 29 28 29 29 29 29 30 30 32 33 32 32 32 35 37 39 41 42 45 46 47 49 52 52 50 56 66 69 69 71 75 74 81 81
23 24 25 25 23 21 19 18 18 19 21 23 24 25 26 27 27 27 28 27 28 29 29 28 29 28 27 29 32 32 31 31 32 32 34 36 38 39 40 42 43 46 48 46 49 54 52 55 61 67 70 68 70 72
24 24 24 23 22 20 19 18 18 19 21 23 23 24 25 26 25 28 28 26 25 24 25 26 27 29 30 30 31 31 31 30 31 31 30 32 36 37 39 39 41 42 44 45 46 48 51 56 59 62 60 59 58 63
24 23 23 22 22 21 21 21 20 20 21 23 24 25 26 25 26 26 26 26 25 26 27 24 26 27 29 33 32 32 33 33 32 31 32 33 34 35 37 39 38 41 41 42 43 46 50 55 56 57 56 50 54 58
22 21 19 19 19 19 20 20 21 23 24 25 25 26 26 26 26 26 24 24 24 22 22 24 27 27 28 29 30 31 32 33 33 33 34 35 34 36 35 36 39 39 38 41 42 46 48 51 50 51 50 51 54 53
18 18 19 20 20 20 20 21 21 22 24 25 25 26 26 26 24 21 22 21 21 20 22 23 23 24 26 28 30 32 33 32 33 34 34 35 36 35 32 37 35 37 37 42 40 44 46 47 47 46 45 49 51 49
18 18 19 20 21 21 21 22 23 24 25 26 26 27 27 28 27 24 28 33 30 29 29 25 24 26 27 27 29 31 33 34 35 35 35 35 34 31 30 33 37 35 34 38 40 43 45 45 42 41 43 47 46 48
18 18 19 21 23 25 26 26 26 26 27 29 29 30 32 33 31 32 35 33 30 28 28 28 31 30 25 25 26 28 31 33 36 37 37 37 35 33 31 35 43 36 35 37 39 41 45 42 41 39 41 43 45 44
17 17 18 19 19 21 24 26 27 28 30 32 33 34 36 31 32 36 39 39 38 35 34 37 40 38 28 29 26 23 27 29 34 38 41 39 34 29 37 44 47 35 36 39 40 39 41 40 38 38 40 42 43 45
12 10 11 13 16 20 22 22 23 27 29 30 30 27 24 27 31 32 31 30 28 30 36 44 49 50 43 40 35 31 28 29 28 38 42 35 31 37 41 48 49 38 35 38 39 38 37 38 37 41 43 40 38 42
7 8 9 12 14 15 16 18 20 22 22 24 21 22 27 27 28 26 28 26 26 31 35 41 42 44 48 50 46 35 30 32 33 33 33 40 46 49 48 49 49 41 32 31 37 38 37 38 34 36 39 42 39 39
5 7 9 11 11 11 13 15 18 21 23 24 26 29 29 26 22 24 26 27 28 30 36 38 36 37 40 43 43 40 30 20 25 32 38 45 47 48 50 49 46 43 29 26 31 37 37 38 34 33 38 42 43 40
7 9 11 13 13 13 15 19 21 18 20 22 22 22 23 25 26 28 31 33 32 30 30 33 35 35 34 37 37 33 31 29 29 33 44 52 54 53 51 46 45 45 31 26 28 31 36 37 36 34 33 39 43 45
13 13 14 18 19 19 19 20 21 21 20 22 25 28 31 32 29 27 24 24 27 28 27 26 26 29 30 31 30 30 30 29 30 35 41 47 49 51 49 43 38 37 32 30 29 33 37 36 34 35 37 43 48 50
19 17 18 19 21 21 22 22 20 18 17 16 16 16 20 20 21 22 21 21 21 21 21 21 22 25 26 26 25 25 26 24 26 30 34 38 40 42 43 39 36 30 27 32 35 37 39 37 32 35 38 42 47 51
23 22 21 22 22 20 19 21 22 23 23 21 19 19 19 20 21 20 19 18 18 17 17 18 18 19 19 20 21 19 18 20 22 24 29 34 36 34 28 24 28 31 35 38 37 37 38 37 33 35 37 42 47 51
23 24 23 23 22 22 21 21 20 19 21 23 23 21 18 18 18 18 17 17 16 15 14 15 15 15 15 18 18 17 19 20 22 25 28 34 36 35 34 36 37 38 37 36 35 36 37 35 33 34 38 43 50 52
22 23 23 24 23 22 23 24 24 24 24 25 24 23 22 19 18 19 19 19 18 17 16 16 16 16 16 16 16 17 17 16 18 20 23 27 31 34 35 38 39 39 39 38 38 34 33 34 34 35 38 43 47 51
20 20 21 22 22 22 23 24 23 24 23 22 21 20 20 20 20 19 19 19 18 16 15 15 14 13 12 12 11 11 13 15 16 18 20 22 25 27 31 33 35 36 36 33 31 33 32 32 37 36 37 41 46 49
17 17 18 18 19 20 19 18 18 18 18 17 16 16 16 15 15 15 16 16 16 16 16 15 14 14 14 12 11 10 9 10 12 14 17 20 22 24 26 28 32 33 30 30 31 30 30 31 34 36 36 39 45 48
17 17 16 17 17 18 16 14 14 15 15 15 14 14 15 16 16 15 15 15 14 13 12 12 12 11 9 9 8 9 9 8 8 9 12 14 15 17 21 24 25 24 23 22 20 23 26 28 28 30 33 35 40 46
17 16 16 16 17 17 16 14 12 10 12 13 11 12 13 14 15 16 16 15 14 13 10 9 7 5 4 7 8 8 7 7 8 10 8 8 12 15 16 18 21 22 22 21 21 21 22 21 24 26 27 29 31 33
14 15 16 14 13 14 13 12 11 10 9 8 9 12 10 11 11 11 11 12 11 8 6 6 5 5 6 4 4 4 5 6 6 6 8 9 9 11 13 15 16 17 18 20 20 21 21 23 24 26 29 31 33 36
13 12 14 15 13 12 11 10 9 8 7 7 9 8 9 9 8 11 9 9 6 2 5 9 10 7 7 7 8 8 8 9 8 9 10 11 11 10 12 13 14 16 17 19 20 22 24 26 28 30 32 34 36 38
13 12 11 11 11 11 9 7 6 6 7 7 6 8 8 7 7 10 11 12 9 6 2 4 3 4 4 5 8 9 9 10 11 11 12 13 13 14 15 17 18 19 20 22 24 26 27 29 31 33 36 38 40 42
12 10 8 7 8 8 8 8 7 6 6 7 7 7 7 8 9 10 12 13 12 10 9 8 8 8 8 8 10 11 12 14 15 15 15 16 17 17 18 20 22 23 24 26 28 30 32 34 37 39 41 43 45 48
12 11 9 8 7 8 7 6 5 6 6 7 8 9 9 8 9 12 15 15 15 16 17 16 16 15 16 17 17 18 18 19 20 21 22 23 24 25 27 28 29 30 31 32 34 36 38 40 41 43 46 48 50 52
4 4 4 5 5 4 3 4 5 7 8 9 9 10 11 13 15 17 18 20 20 21 23 24 24 24 25 26 26 26 26 26 26 27 28 28 28 29 31 32 33 35 36 38 40 42 43 45 47 49 51 53 55 57
6 7 7 8 9 10 11 12 12 13 14 15 16 17 18 19 20 21 22 24 25 26 27 28 29 30 30 30 30 31 31 32 33 33 33 35 37 38 39 40 40 41 43 44 46 47 49 50 52 53 55 56 58 59
16 17 17 18 19 19 20 22 23 24 25 26 27 28 28 29 30 30 31 32 33 33 34 34 35 35 36 36 36 36 37 37 38 38 39 40 41 42 43 44 46 48 49 51 52 54 56 58 59 60 61 62 63 64
26 27 27 28 29 29 30 31 32 33 35 36 37 37 37 38 37 36 36 36 36 35 35 34 34 34 35 35 36 36 36 37 38 39 40 41 42 44 45 46 48 50 51 52 54 55 56 57 58 60 61 63 64 65
33 34 34 35 35 36 36 36 35 34 34 34 34 35 35 36 36 36 37 37 37 38 38 39 39 39 39 39 39 39 40 41 41 42 43 43 45 46 47 48 50 51 52 53 54 55 56 57 58 58 57 57 56 56
34 34 35 35 36 36 35 35 34 34 33 34 34 34 35 35 35 34 35 35 35 36 36 37 38 38 39 39 39 40 41 41 41 42 42 42 43 43 43 44 45 46 47 47 48 48 49 49 49 50 50 50 50 51

GFSWCAN_250_spd_099.txt.gz
Wind_Speed
36 33 31 29 28 26 24 23 22 22 22 22 22 22 22 23 24 24 23 23 23 25 26 26 26 24 25 26 26 25 28 29 30 32 33 32 31 32 33 36 38 41 46 53 55 56 64 65 67 72 77 79 79 77
31 29 28 26 24 22 22 22 21 20 19 19 20 19 20 20 20 21 21 22 23 23 23 22 23 23 24 26 26 28 29 29 30 30 30 29 30 31 32 35 36 40 45 47 50 52 52 56 62 62 66 70 75 76
28 27 25 24 23 21 21 20 20 20 18 17 17 17 17 18 19 17 18 19 19 19 21 21 20 23 25 26 27 28 29 29 29 29 28 28 28 30 31 33 36 39 42 43 47 48 47 47 52 59 67 66 64 65
26 24 23 22 22 21 20 20 20 20 19 18 18 17 18 19 17 18 20 19 19 20 21 22 24 25 26 27 27 28 28 27 26 26 26 26 27 29 31 34 36 37 38 42 43 45 43 45 50 53 60 60 61 63
23 22 21 22 23 23 22 23 22 21 20 19 19 20 20 19 18 19 19 19 19 21 22 24 27 26 27 27 27 27 27 27 25 26 27 26 27 29 32 34 35 34 37 37 39 41 42 44 48 52 49 47 50 53
20 21 22 22 22 22 21 21 22 23 22 22 21 21 21 20 20 19 17 18 20 21 23 24 26 27 27 27 28 27 26 26 27 27 27 29 29 29 32 34 36 36 37 36 39 41 40 41 43 45 45 47 49 48
20 20 21 21 22 22 22 22 21 21 23 23 24 24 23 23 22 24 29 29 28 28 28 26 24 24 26 27 27 26 26 27 29 30 31 32 31 32 35 35 36 38 39 38 40 39 39 39 40 41 41 44 44 45
19 19 21 23 24 25 26 26 25 24 24 24 25 26 25 26 26 26 27 26 27 27 24 25 27 26 24 22 22 23 25 27 29 31 32 33 32 33 34 37 39 40 39 40 40 42 39 39 39 38 38 40 42 44
18 20 22 24 26 28 29 29 30 30 29 28 29 29 26 25 27 29 27 25 22 20 20 23 26 25 26 28 28 27 26 26 29 30 33 32 30 31 38 41 40 39 40 40 39 43 39 39 38 38 39 40 40 42
16 18 19 20 22 24 27 29 31 33 34 34 31 24 23 26 27 26 25 22 19 17 19 23 22 22 22 23 28 29 30 31 33 34 31 30 31 40 42 44 39 37 40 40 39 40 38 37 37 36 38 41 43 42
12 13 14 14 16 19 22 24 26 27 30 31 27 26 32 31 31 30 25 22 19 22 28 28 26 22 22 24 24 25 28 32 35 38 38 36 40 37 41 44 43 34 41 38 38 36 35 35 34 34 35 38 42 45
9 11 10 11 12 14 17 20 23 26 27 27 30 35 37 35 31 29 26 25 29 33 37 33 30 29 34 34 31 31 28 31 36 40 42 48 49 50 48 46 46 37 32 36 38 36 35 36 34 32 30 34 38 42
5 6 8 9 10 13 16 19 21 21 25 30 32 32 30 27 28 31 33 35 40 41 34 35 37 40 42 43 40 37 31 29 32 33 38 49 54 49 47 43 42 39 31 28 31 33 33 36 36 34 32 34 37 40
7 8 9 9 11 13 15 19 22 24 21 19 20 21 24 26 28 30 35 30 26 27 30 32 35 37 36 34 31 31 25 23 26 34 40 50 48 51 48 48 44 40 39 34 31 29 29 34 38 37 35 36 35 37
12 11 13 14 15 16 16 19 21 22 22 23 24 25 28 30 33 27 24 25 27 27 26 25 24 23 24 26 24 23 24 25 25 31 35 43 47 50 49 48 47 45 39 36 29 31 35 34 36 36 36 38 36 37
19 17 16 15 17 21 23 22 20 18 15 12 14 15 16 16 17 18 17 17 18 19 20 19 19 20 19 19 19 19 18 19 19 19 21 28 36 45 53 51 46 40 35 31 33 30 31 33 34 36 38 36 38 38
23 24 23 20 18 18 19 21 24 24 22 20 17 17 16 16 17 18 17 17 17 17 18 17 18 17 16 16 17 18 20 21 22 22 24 28 33 37 42 44 44 42 39 32 34 37 36 35 36 39 37 34 36 39
26 27 27 24 24 24 23 22 22 22 22 23 21 21 20 19 19 19 18 18 18 16 15 14 15 13 12 12 13 14 15 16 17 19 22 25 27 30 31 34 34 34 33 32 34 35 36 37 37 35 33 33 34 38
25 27 27 25 26 26 25 24 23 23 24 23 23 23 22 22 21 18 16 15 15 14 13 12 12 12 12 13 13 13 14 15 17 20 22 23 24 26 28 29 31 33 35 36 34 32 32 32 30 30 30 29 31 34
24 24 24 24 26 28 28 28 27 27 26 25 23 22 20 19 18 18 17 16 16 16 16 16 15 15 16 16 16 16 17 18 18 19 19 20 22 23 25 26 27 28 30 31 30 29 26 24 24 27 31 30 30 32
21 21 21 22 23 23 23 23 22 21 21 21 20 19 18 17 17 16 15 13 14 13 13 13 13 12 12 11 11 11 11 12 13 15 16 18 19 21 23 23 23 25 28 27 25 25 26 25 24 27 30 30 28 29
20 19 20 19 19 19 18 18 17 15 15 13 13 13 14 14 14 15 15 15 15 14 13 13 14 13 11 9 8 7 8 9 8 8 9 11 13 16 19 20 21 23 25 25 25 24 25 25 26 27 28 28 29 27
18 19 19 20 18 17 16 15 15 16 14 14 14 14 13 12 13 12 13 13 12 11 10 10 9 5 2 3 3 3 3 5 7 9 8 9 8 9 11 14 16 18 19 23 25 27 27 26 26 28 28 29 29 29
15 15 16 15 15 15 15 15 15 13 12 16 14 13 14 14 13 12 11 10 7 5 5 3 3 3 3 5 5 5 4 5 6 7 6 6 7 8 10 11 14 16 18 21 23 24 25 25 25 26 27 28 29 31
17 16 12 12 12 11 11 11 12 12 11 12 11 11 11 10 10 11 12 12 9 6 5 4 3 4 5 5 6 7 8 9 11 11 11 11 11 12 12 13 15 16 17 19 21 22 23 24 26 27 29 31 33 34
12 12 11 9 8 8 7 7 9 10 10 11 11 11 10 9 8 11 12 12 13 10 10 9 10 10 11 11 12 12 12 13 14 15 15 16 17 18 19 20 20 21 22 23 24 26 28 29 31 32 33 34 36 38
10 8 7 7 8 8 8 7 6 6 6 7 10 11 12 12 13 14 15 16 18 19 18 19 19 20 20 20 21 21 21 21 21 21 21 21 22 23 22 23 25 26 27 28 30 31 33 34 35 37 38 39 40 41
8 7 6 6 6 6 6 7 7 8 8 9 10 11 14 16 17 18 21 22 24 24 25 26 26 27 27 27 28 28 28 28 29 29 29 28 28 28 29 29 30 31 32 34 35 37 38 40 41 42 44 45 47 48
4 4 4 6 6 7 8 9 10 11 12 13 14 15 17 18 19 20 21 23 24 26 27 29 29 30 31 32 33 34 35 35 36 36 36 36 36 36 36 37 37 38 38 39 40 41 43 44 45 46 48 50 52 53
12 12 13 14 15 16 17 18 19 21 22 23 24 24 25 26 27 28 28 29 30 30 31 32 33 34 35 36 37 37 37 38 39 39 40 40 41 42 43 44 45 46 47 48 49 50 51 52 53 54 56 57 58 59
21 22 23 24 25 26 27 28 29 30 31 33 34 34 35 36 35 34 34 34 34 33 33 33 33 34 35 35 36 37 38 39 41 42 42 43 44 45 46 47 48 49 50 50 51 52 53 54 54 55 57 58 59 60
29 30 30 31 31 32 32 32 31 32 32 33 33 33 34 34 35 35 36 36 36 36 37 37 37 37 38 38 39 39 40 40 41 41 42 42 43 44 45 46 47 48 48 49 50 51 52 53 54 54 54 55 55 55
33 33 34 35 35 35 34 33 33 33 32 32 32 32 32 34 35 34 34 34 34 34 34 34 35 36 37 37 38 39 40 40 40 40 40 40 40 40 41 41 42 42 43 44 44 45 45 46 46 47 47 47 48 48

GFSWCAN_250_spd_102.txt.gz
Wind_Speed
55 48 45 40 37 37 36 33 30 29 28 26 25 22 19 18 18 19 19 16 17 19 19 19 20 20 21 23 23 24 25 26 27 27 26 26 27 29 30 27 27 31 34 37 37 40 48 51 52 59 62 71 74 83
48 42 38 35 34 33 31 27 26 25 24 22 20 17 16 16 16 14 13 16 17 17 17 19 21 22 22 23 24 24 23 21 20 20 22 24 27 29 29 29 30 33 35 35 37 41 46 46 52 54 56 60 65 69
40 38 35 32 32 30 27 24 23 23 22 20 17 15 14 13 12 12 15 15 16 17 18 19 22 22 22 23 23 22 19 18 20 22 24 24 25 25 26 28 31 34 34 35 36 37 41 42 47 51 56 58 60 64
36 34 31 31 30 28 25 22 21 21 20 18 16 14 12 12 14 13 13 15 16 17 22 24 22 21 21 20 18 17 18 18 20 23 24 24 25 25 26 26 29 32 33 34 36 38 40 41 41 44 49 56 61 62
33 31 29 28 27 25 23 21 22 22 20 18 17 15 13 14 13 14 14 15 18 20 19 21 20 21 21 21 20 21 20 21 22 23 23 24 24 25 26 27 29 31 33 33 33 35 35 35 38 41 46 49 50 54
29 27 27 25 25 24 24 23 24 24 21 20 18 17 15 14 14 14 16 17 19 19 19 20 21 21 22 22 21 21 21 23 23 23 23 24 24 25 26 27 29 30 32 33 33 34 34 35 39 41 43 41 39 44
25 24 24 26 27 26 25 24 24 24 23 22 20 18 17 17 19 21 19 16 17 18 19 20 20 22 22 23 23 22 22 23 23 23 23 22 23 24 26 29 30 31 32 32 33 34 34 35 38 39 40 39 38 43
23 25 27 27 25 24 24 24 23 22 22 22 23 22 21 22 21 20 18 19 19 19 19 20 20 22 22 24 24 22 23 24 24 24 23 23 23 25 27 29 31 32 33 34 34 34 34 35 36 37 36 36 39 41
25 26 27 27 27 26 25 25 25 24 22 22 22 21 18 20 25 23 20 19 18 19 20 20 21 21 21 21 22 23 24 24 24 26 25 23 26 28 34 35 32 30 30 32 33 34 33 33 34 36 36 37 39 39
24 24 22 21 22 24 27 28 28 27 26 22 14 15 21 25 21 19 18 17 17 20 21 20 18 19 19 20 21 20 20 20 20 23 22 24 30 33 32 33 31 30 30 32 36 36 33 33 32 32 33 36 38 39
17 17 18 19 22 25 27 29 30 30 25 19 18 21 25 23 21 18 17 20 23 25 26 24 26 26 23 22 20 19 19 19 22 23 22 24 27 30 32 31 30 31 37 37 37 36 34 34 33 32 33 35 38 41
11 12 13 15 16 19 21 25 29 29 29 27 30 32 27 24 17 14 15 16 20 22 23 22 20 21 25 27 27 27 27 27 30 28 27 29 33 34 32 33 33 32 33 37 35 34 35 35 35 32 35 34 35 42
6 7 8 10 14 18 20 23 25 27 30 36 36 31 25 20 19 21 21 24 29 27 17 16 19 21 20 20 22 25 28 35 34 35 33 38 43 40 37 35 37 36 33 31 33 33 32 32 31 34 34 31 34 38
4 6 8 10 13 16 19 20 22 22 24 30 30 26 23 23 25 27 33 32 23 20 21 23 23 23 22 22 20 22 23 29 29 32 37 48 49 44 44 41 36 35 31 27 25 29 32 30 28 31 31 33 36 36
7 8 11 13 15 16 18 20 22 24 24 25 27 26 29 32 33 34 28 24 24 25 26 26 26 27 26 27 26 25 27 27 25 26 30 37 40 42 45 44 45 45 37 35 31 28 31 32 31 32 32 33 34 35
10 9 11 14 16 17 17 17 19 22 24 25 26 27 28 29 26 23 22 23 24 25 24 24 25 27 28 28 26 25 25 24 20 21 22 26 31 32 37 43 42 40 36 30 27 23 27 31 31 32 32 31 34 36
16 13 12 13 17 19 20 20 19 19 19 20 20 18 18 15 16 15 19 18 18 19 19 20 20 21 21 22 22 22 23 23 24 22 23 27 31 33 35 37 38 38 38 32 23 22 21 22 25 27 31 33 35 39
20 20 19 18 16 17 21 24 26 26 24 24 22 20 19 18 17 17 16 15 15 15 15 15 16 16 16 17 16 17 18 19 19 18 19 22 25 27 30 31 33 33 32 31 27 24 27 30 31 33 34 34 36 38
24 24 22 21 22 21 21 22 22 23 23 23 22 21 19 18 17 16 15 14 12 12 12 13 15 16 14 12 12 12 13 13 14 15 17 18 19 20 22 24 24 26 27 26 26 28 28 29 33 36 37 37 38 38
27 24 24 25 25 25 24 22 21 21 21 22 22 21 19 18 17 17 18 18 17 16 14 13 12 11 10 9 9 9 10 10 11 12 13 14 16 17 18 18 19 20 22 23 25 27 30 31 28 27 27 27 28 31
26 25 25 25 26 26 26 26 25 24 24 23 23 23 22 21 19 17 16 14 13 11 10 9 8 7 7 7 7 7 9 10 11 13 14 16 17 18 19 19 19 20 22 24 26 26 28 28 27 26 26 29 31 33
24 24 25 25 26 26 26 26 25 24 23 21 20 19 18 17 16 15 13 12 11 10 8 7 7 7 7 7 7 8 9 10 10 10 9 9 11 14 16 16 18 18 20 21 21 23 24 26 27 27 29 31 33 35
22 22 23 23 23 22 20 20 18 18 17 16 14 14 13 11 11 11 12 11 12 13 13 12 11 10 9 11 11 11 10 9 10 10 10 10 8 8 9 12 14 15 18 20 20 21 23 25 27 30 31 32 33 34
19 20 19 18 18 17 18 18 16 15 14 13 12 11 10 11 11 13 14 14 15 13 14 15 9 7 8 8 9 9 8 8 9 9 8 10 11 10 9 8 10 12 15 18 20 21 23 25 27 28 30 31 32 33
14 14 14 14 15 15 16 15 14 14 15 15 14 13 13 14 13 14 14 13 11 11 10 9 8 8 8 10 11 11 11 11 11 12 12 12 11 11 13 13 13 13 13 14 17 19 22 24 25 26 28 29 30 31
11 10 10 11 10 11 11 14 15 14 16 16 15 16 15 15 15 15 16 16 16 14 13 13 13 14 14 15 16 16 16 17 17 16 16 17 17 18 19 19 19 19 20 21 22 23 25 26 27 29 30 32 34 36
9 7 6 6 6 8 9 10 10 11 13 14 15 17 17 17 17 17 19 20 21 22 22 22 22 22 22 23 23 23 23 23 23 23 23 24 24 24 23 23 25 26 26 27 28 30 31 33 34 35 36 38 39 40
7 6 5 4 4 5 6 6 7 8 9 11 14 16 18 19 20 21 22 22 24 25 26 27 27 28 28 28 29 29 30 30 29 29 30 30 30 30 30 30 30 31 32 33 34 35 36 37 39 40 41 42 43 44
6 6 6 7 7 7 7 8 9 10 11 12 13 14 16 17 18 20 22 23 25 26 27 28 29 30 31 31 31 32 33 33 35 36 36 37 37 37 37 37 36 36 37 38 38 39 40 42 43 44 46 47 49 50
10 11 11 11 12 13 15 15 17 17 19 20 21 22 23 24 25 26 27 28 29 30 31 32 33 34 35 36 36 37 38 38 39 40 41 42 43 43 44 45 45 46 46 47 48 49 50 51 51 52 53 53 53 54
18 19 20 21 22 23 24 25 26 27 28 29 30 30 31 31 32 32 33 33 33 33 33 34 35 36 36 37 38 39 40 41 42 43 43 44 44 45 46 46 47 47 48 49 50 51 52 52 53 53 54 54 54 55
26 27 28 29 29 30 30 30 30 31 31 32 32 33 34 34 35 35 36 36 36 36 36 37 37 38 38 38 39 40 40 41 41 41 42 42 43 44 45 46 46 47 47 48 49 49 50 50 50 50 50 50 50 50
30 30 31 32 33 34 33 33 33 33 32 32 32 32 32 32 33 32 33 33 33 32 32 32 33 33 34 36 37 38 38 39 39 39 39 39 39 39 39 40 40 40 41 41 42 42 43 43 44 44 45 46 46 47

GFSWCAN_250_spd_105.txt.gz
Wind_Speed
68 66 61 56 56 56 51 46 42 40 35 31 29 24 23 23 23 21 20 20 18 17 19 21 21 21 22 23 22 19 19 20 21 22 23 23 23 23 22 21 21 22 26 28 30 36 38 33 39 48 54 57 64 76
61 57 53 52 53 48 43 39 37 35 31 28 25 19 19 19 16 15 17 16 16 17 18 17 17 19 18 18 20 21 20 16 13 14 17 20 22 23 22 26 29 30 28 28 30 33 35 36 40 46 52 54 58 68
55 51 50 51 46 40 38 35 33 31 28 24 21 16 16 14 13 16 15 12 13 14 12 14 17 16 17 19 19 18 17 19 21 23 21 20 18 19 20 24 26 28 31 33 32 33 35 35 38 41 47 51 57 60
49 48 49 44 38 36 33 32 30 27 25 21 17 13 13 11 12 12 11 11 12 13 14 15 18 20 20 19 19 20 20 20 21 22 23 24 26 23 24 24 25 25 26 28 33 35 33 33 34 37 43 47 52 56
46 46 40 37 34 31 31 29 26 26 23 18 13 13 11 10 10 10 11 12 13 14 15 14 14 16 18 19 20 22 23 23 23 23 22 21 22 24 25 25 25 24 25 26 29 31 29 30 33 34 37 43 49 53
38 36 36 32 30 29 29 26 26 26 23 18 15 14 12 13 14 15 14 14 14 14 13 14 15 17 19 20 22 22 23 22 21 21 21 21 22 22 22 22 22 25 27 28 29 31 31 30 33 33 37 41 42 45
33 33 30 28 28 28 28 26 26 25 23 19 17 16 15 17 15 9 13 14 15 15 16 17 19 20 21 22 21 21 21 22 20 20 20 20 21 22 23 24 26 27 28 27 28 26 27 30 31 32 37 38 39 41
28 27 26 27 28 28 26 26 26 25 23 20 19 18 17 14 15 17 17 17 17 18 19 20 19 20 21 20 20 19 20 20 19 19 20 20 21 23 26 24 23 24 26 27 27 27 27 28 31 33 35 37 37 40
24 26 28 27 27 27 27 27 25 24 22 18 18 17 16 18 17 17 15 15 17 19 19 20 18 17 20 24 25 23 22 22 21 20 20 22 23 24 19 17 18 20 23 25 29 30 30 32 32 32 34 35 36 39
26 26 26 26 26 26 26 25 24 22 17 14 17 20 24 18 17 17 17 14 14 15 16 18 19 16 16 19 19 20 20 20 20 20 22 23 22 22 22 20 21 22 25 29 29 30 29 29 30 32 34 35 34 37
21 21 20 21 23 24 25 24 22 18 16 18 20 25 20 15 16 16 17 18 19 20 20 19 19 19 20 20 20 19 18 20 21 21 20 21 20 21 22 20 21 24 25 27 29 29 28 30 31 32 35 36 35 37
15 17 19 22 25 26 26 25 25 23 24 28 27 23 20 16 16 19 20 21 21 19 18 16 18 19 20 19 19 20 19 21 19 17 19 21 22 23 23 24 26 26 27 31 31 30 30 30 31 31 34 34 35 38
18 19 20 21 23 25 26 28 28 27 29 29 24 21 17 20 23 25 29 29 27 22 21 23 21 19 19 20 20 20 20 19 18 18 22 26 27 28 30 29 29 29 31 31 31 30 30 31 31 31 32 33 33 37
16 17 20 22 23 25 27 26 26 28 30 30 23 20 20 21 26 32 36 30 24 22 25 26 26 26 27 27 28 27 28 27 27 28 35 36 33 32 32 30 29 31 32 30 30 33 31 29 30 32 33 34 32 34
14 16 17 18 19 21 23 24 25 27 26 28 26 24 27 30 29 29 21 18 19 21 22 22 22 21 22 23 23 25 27 30 36 41 43 38 35 37 36 38 35 31 25 24 24 27 27 31 34 35 36 36 35 35
15 14 15 15 18 20 21 23 25 26 27 28 27 29 30 28 26 18 16 18 18 17 16 17 17 17 18 19 21 23 24 27 32 29 31 32 30 31 33 36 36 33 29 22 22 24 29 31 38 40 41 40 38 37
17 15 15 17 19 20 20 21 23 25 25 25 24 26 28 23 17 16 16 14 13 14 15 17 18 19 18 21 20 16 16 19 19 19 22 23 23 25 27 28 28 29 28 28 25 21 20 24 35 40 37 35 35 37
18 18 16 16 20 22 24 24 25 24 24 24 23 20 16 14 16 17 17 18 19 19 20 19 18 19 16 15 15 16 16 16 16 16 17 20 21 22 24 25 25 25 24 23 21 22 18 22 25 29 31 33 35 37
19 17 17 17 18 19 22 23 25 25 26 26 24 23 23 23 22 20 18 17 16 15 14 14 13 13 11 9 9 11 12 12 12 13 15 15 16 18 19 20 21 21 21 20 20 20 22 26 30 30 31 33 34 33
22 19 19 19 19 19 19 19 18 20 21 20 20 21 20 20 20 18 17 15 13 12 10 9 8 7 7 9 11 11 10 9 9 10 9 9 11 12 12 13 14 16 18 19 20 22 22 24 28 30 29 30 31 31
24 22 22 22 23 22 21 21 20 20 21 20 20 19 19 18 17 15 14 11 10 9 10 11 12 12 12 11 10 8 7 7 8 9 9 10 11 13 14 14 14 15 16 18 19 20 22 26 27 28 29 28 27 28
24 24 23 23 24 22 21 22 22 22 21 21 21 19 18 17 17 17 16 16 15 14 13 12 10 9 8 7 7 6 6 6 7 8 10 11 12 12 13 14 14 15 16 17 18 19 21 23 25 27 29 29 30 31
23 23 25 25 25 23 24 23 22 21 20 19 18 17 17 16 16 14 14 13 11 10 9 9 9 8 7 8 8 8 9 10 10 10 11 12 13 13 14 14 13 13 14 16 17 19 20 20 22 25 27 29 31 33
21 22 21 20 19 19 19 19 20 18 17 16 15 13 12 12 9 10 10 10 10 10 9 8 8 7 8 9 10 12 12 12 13 14 14 14 15 16 16 16 15 15 16 16 16 17 20 22 24 26 28 30 31 33
17 16 15 15 16 16 15 14 13 12 12 11 10 9 9 10 10 10 10 10 9 9 12 14 15 13 13 16 17 16 16 17 17 17 16 16 15 14 14 15 15 15 15 16 17 18 19 21 23 25 27 28 30 32
12 11 11 12 12 12 11 10 9 10 11 10 11 11 11 12 13 14 15 17 18 18 19 21 22 21 19 19 20 21 21 21 21 21 21 21 20 19 19 19 19 19 20 20 21 22 23 23 25 26 28 29 31 33
9 7 7 7 7 7 8 8 9 9 11 12 12 13 14 15 17 18 19 21 23 24 24 25 24 24 24 24 24 24 24 25 25 25 24 24 23 23 23 23 23 23 24 25 26 27 28 29 30 31 32 34 36 37
6 6 6 6 6 6 7 9 10 11 12 14 16 17 18 19 21 23 23 23 24 24 25 26 27 28 29 29 29 29 29 29 30 30 30 30 31 31 31 31 31 31 32 32 32 33 34 34 36 37 38 39 41 42
3 3 3 2 3 4 5 7 9 10 11 12 14 15 16 19 20 22 23 25 25 26 26 26 27 28 28 29 29 30 30 31 31 32 31 32 33 33 34 35 36 37 37 38 38 39 40 41 42 43 45 46 48 49
9 9 10 10 12 13 13 14 15 17 18 19 20 21 22 24 25 26 27 28 30 31 32 33 34 35 36 37 37 38 38 39 39 40 40 41 41 41 41 42 42 43 43 44 44 44 44 45 46 46 47 48 48 49
16 16 17 18 19 20 22 23 24 24 26 27 28 29 30 31 32 33 34 34 35 36 36 36 37 38 38 39 40 41 42 42 43 43 44 44 44 45 45 45 45 46 46 47 47 48 48 49 49 48 48 48 48 48
23 24 25 26 27 28 29 30 30 31 32 33 33 34 35 35 36 36 36 36 36 36 36 36 36 36 36 36 37 37 38 39 40 41 41 41 42 42 42 42 42 43 43 43 44 44 45 45 45 45 46 46 46 47
29 29 30 31 31 31 32 32 33 33 32 32 31 32 32 32 32 32 33 33 32 32 32 32 33 33 34 35 36 36 37 37 37 37 36 36 36 37 37 37 37 37 38 38 39 40 40 41 41 42 43 43 44 45

GFSWCAN_250_spd_108.txt.gz
Wind_Speed
73 71 70 68 65 61 58 58 58 58 53 47 41 35 30 30 27 26 26 23 21 20 19 19 18 17 18 18 16 18 21 22 21 21 22 21 22 25 25 24 27 27 27 27 28 30 33 38 40 44 47 52 59 60
70 68 68 66 63 58 53 52 53 52 46 41 34 29 25 25 23 23 21 18 17 18 15 15 15 16 16 15 17 18 20 17 15 13 14 17 19 20 20 22 25 27 28 27 27 30 36 38 42 46 49 52 58 59
66 64 63 61 56 51 47 48 51 45 40 35 28 25 21 22 20 18 14 15 15 16 16 15 15 16 17 15 15 18 23 25 25 26 24 21 22 21 19 19 21 24 27 29 31 34 36 39 41 44 46 52 56 61
58 58 57 53 49 46 45 47 45 39 35 29 24 21 20 19 17 14 12 14 15 14 13 15 14 14 15 16 17 19 21 22 24 27 27 27 26 25 23 24 23 24 29 31 32 33 34 37 40 39 46 52 54 60
52 52 49 47 44 43 45 44 38 35 30 24 22 19 18 18 16 13 14 15 14 14 13 13 12 12 12 14 16 18 20 19 20 20 21 22 23 24 26 24 22 21 21 22 22 20 25 25 31 39 46 50 54 58
44 42 41 41 42 41 39 37 34 31 26 23 21 18 17 17 13 10 13 14 14 14 15 16 17 16 16 17 18 18 19 20 21 22 22 21 21 22 23 23 23 24 24 25 22 23 26 29 31 35 41 46 50 55
38 38 37 36 35 34 34 34 31 28 25 24 20 20 18 13 11 15 17 15 16 17 19 19 18 17 16 17 17 19 19 19 20 21 22 22 21 21 20 20 19 17 18 18 22 22 26 31 34 36 38 41 46 50
30 30 30 31 32 32 32 30 28 26 25 22 20 20 18 16 18 16 14 15 17 18 18 18 18 18 20 20 21 22 22 22 21 20 20 20 19 17 15 19 22 22 23 25 27 29 31 31 33 35 36 38 43 48
27 27 28 29 28 29 29 28 27 26 23 20 20 22 23 18 16 14 15 15 15 15 16 16 14 16 19 20 21 21 21 21 20 20 21 20 19 18 18 16 18 20 22 22 24 27 28 28 29 32 34 37 40 42
25 26 26 27 27 28 28 28 26 23 19 20 24 28 20 20 18 17 17 17 16 17 17 17 18 16 17 20 22 21 21 20 20 21 20 20 19 18 19 19 19 21 22 23 25 28 28 29 32 34 36 38 40 41
23 24 26 27 26 26 26 24 21 19 22 25 27 22 22 21 18 19 20 19 19 19 21 21 21 19 18 15 16 18 17 17 19 20 20 20 20 20 20 21 22 23 24 24 25 25 27 30 33 34 34 35 38 41
20 21 21 22 23 24 24 24 24 25 30 28 23 22 23 21 20 20 20 19 20 21 21 21 22 23 23 24 22 21 21 20 19 19 20 21 22 23 23 25 25 26 27 26 27 27 28 29 31 32 33 33 35 38
19 20 21 22 23 23 25 24 23 24 25 22 18 18 22 24 23 24 24 25 27 23 23 23 21 20 21 22 21 21 21 20 20 23 27 26 26 25 26 26 28 30 31 31 32 32 32 32 32 33 33 34 35 37
19 20 20 21 22 24 23 23 24 25 26 22 21 22 25 28 30 32 31 25 26 25 23 22 21 22 22 21 21 21 20 20 24 27 29 26 25 28 27 29 29 30 32 33 35 34 33 35 37 37 37 37 37 37
16 17 18 20 21 21 22 24 27 27 27 26 26 28 32 37 37 25 16 18 23 24 23 23 23 21 20 20 19 20 22 25 30 33 28 26 26 26 25 26 26 27 28 30 32 32 35 36 37 38 39 41 42 41
15 16 18 18 18 19 23 26 28 28 29 32 32 32 31 28 22 16 16 17 19 21 22 20 19 20 23 26 28 30 33 38 37 33 28 31 31 30 27 28 26 21 21 24 26 30 32 33 36 39 39 39 41 43
17 18 19 19 20 21 22 23 25 28 31 33 35 32 29 23 18 19 21 22 21 20 21 22 25 27 30 33 36 35 34 35 36 34 29 29 28 28 29 30 29 28 29 28 27 27 28 37 40 41 42 43 43 43
17 18 18 19 22 23 22 23 26 29 30 31 32 29 25 21 20 22 23 23 24 25 26 27 27 28 28 26 22 21 21 22 20 19 18 19 20 22 22 22 24 24 24 25 25 26 25 27 34 39 41 43 43 41
21 19 17 18 19 20 23 25 24 23 23 25 24 21 20 23 22 22 23 24 26 28 25 21 19 16 16 15 13 13 14 14 15 15 16 17 18 19 19 20 20 19 19 19 21 21 24 27 31 31 37 36 36 36
21 20 20 19 19 20 20 19 20 23 25 26 28 28 29 29 29 28 26 24 21 18 16 14 13 13 13 14 14 13 11 11 12 13 14 15 15 16 17 18 18 18 19 19 20 20 22 24 27 28 34 35 34 31
22 21 20 20 20 19 19 18 17 19 20 20 18 20 22 22 22 20 18 17 15 14 14 14 14 14 13 11 10 9 11 12 14 14 14 15 15 15 15 15 17 19 19 19 19 19 21 23 25 28 32 34 35 35
23 21 21 21 21 20 19 18 20 19 19 19 19 19 19 19 18 18 17 17 16 15 13 11 10 9 10 11 12 13 13 12 11 10 11 11 11 11 12 13 14 17 18 19 20 21 22 24 25 26 28 31 34 36
24 24 23 22 22 21 21 20 19 19 18 17 16 15 15 15 15 14 13 11 11 10 11 12 12 12 12 11 12 11 11 10 11 12 12 12 13 14 15 15 14 13 14 17 19 20 21 22 24 27 28 30 31 33
21 21 21 20 19 20 20 19 19 18 17 16 15 14 13 12 11 11 11 11 11 11 11 10 10 10 11 11 12 13 14 14 15 16 16 17 18 19 18 18 19 18 17 17 17 18 20 21 23 25 27 29 30 32
15 15 13 15 16 15 15 15 14 15 15 15 14 12 12 11 9 9 10 9 8 10 11 12 13 15 14 14 16 18 20 21 21 22 21 20 20 19 20 20 20 20 20 19 19 18 19 20 22 24 27 29 31 33
10 9 10 11 11 10 9 9 9 10 10 10 10 10 9 9 9 11 12 12 13 15 16 17 19 21 22 23 23 24 25 25 26 26 24 23 23 23 23 22 21 20 20 21 21 22 23 24 25 27 29 30 31 33
9 8 8 7 6 5 5 4 4 5 6 7 8 8 9 10 12 14 16 17 18 20 21 23 23 24 26 28 28 28 28 28 27 26 26 25 25 25 25 25 26 27 27 27 27 27 27 28 28 29 30 32 33 35
5 6 5 4 4 3 3 4 5 6 7 9 10 12 13 13 15 16 18 19 21 22 23 24 25 26 27 28 28 28 28 28 28 29 29 30 31 31 31 32 32 32 33 33 33 34 34 35 36 36 37 37 38 39
6 5 4 2 1 2 3 4 6 8 10 11 13 15 16 17 18 19 20 22 23 24 25 26 27 28 29 29 30 31 31 32 32 33 33 34 35 35 35 36 36 37 37 38 38 39 40 40 41 41 42 43 43 44
2 4 5 6 8 9 10 12 13 15 16 18 19 21 22 23 25 26 27 28 30 32 33 34 35 36 37 38 38 38 38 38 38 39 39 40 40 40 40 40 40 40 40 40 41 41 41 41 41 41 42 42 42 44
12 13 15 16 18 19 20 21 23 24 26 27 28 29 30 32 32 34 35 35 36 36 36 37 37 37 38 38 38 39 39 39 40 40 40 41 41 41 41 42 42 42 42 42 42 42 42 41 41 42 42 42 43 44
21 22 24 24 25 25 26 27 27 28 29 31 32 33 34 35 36 36 36 36 36 36 35 35 35 35 36 36 37 37 37 37 37 38 38 38 38 38 38 37 38 38 38 39 38 39 39 40 41 41 42 42 42 43
26 27 27 28 29 29 30 30 31 32 32 31 31 30 30 30 32 32 33 33 33 33 33 34 34 34 34 35 35 35 35 35 35 35 35 35 34 34 34 35 34 35 35 36 36 36 37 37 38 39 40 40 40 41

GFSWCAN_250_spd_111.txt.gz
Wind_Speed
85 84 82 80 77 74 71 69 66 61 57 54 56 55 48 41 40 37 31 28 26 23 21 18 17 16 17 19 18 16 18 19 21 22 23 24 25 24 23 24 26 26 27 29 32 33 28 34 35 37 40 44 53 59
81 79 77 75 73 71 69 66 61 57 54 52 53 51 42 37 35 31 27 25 23 21 18 14 15 14 14 15 17 15 15 17 19 16 17 21 21 23 25 23 24 25 27 28 31 30 32 34 36 38 39 49 55 57
76 75 73 71 69 68 66 62 58 54 50 49 49 43 36 33 31 26 23 22 20 17 14 13 11 11 12 13 14 16 18 22 24 25 22 22 22 22 21 23 24 25 25 27 29 31 31 32 34 35 42 48 56 59
72 72 70 68 67 66 63 57 52 48 46 45 45 36 33 30 27 22 20 19 17 15 13 11 11 11 11 14 16 16 17 19 22 27 25 23 23 23 24 23 21 21 22 22 23 26 29 32 35 36 40 46 53 56
65 66 63 63 62 59 53 50 46 44 43 44 37 32 29 27 22 19 17 16 14 15 14 14 14 13 14 14 13 12 11 12 15 21 23 23 24 23 21 18 16 17 17 18 19 22 26 29 31 35 41 46 51 55
57 57 54 54 54 51 47 44 43 42 42 36 32 29 27 25 18 14 16 16 14 17 18 16 17 16 15 14 14 13 12 13 15 17 17 18 19 16 16 19 22 21 23 20 18 20 21 23 30 33 38 43 49 53
46 45 45 46 46 44 42 41 41 41 34 32 29 28 27 22 17 18 17 14 15 18 17 17 17 16 15 16 14 12 15 15 15 17 16 16 15 16 19 21 21 23 24 23 26 27 27 27 30 34 36 41 45 48
39 40 39 39 38 38 38 38 35 32 31 29 29 29 26 21 20 16 15 15 16 15 15 16 15 15 14 13 13 14 14 14 15 17 16 17 18 18 18 19 19 19 19 20 22 22 24 25 29 31 37 42 44 46
30 31 32 33 33 32 31 31 32 31 30 30 30 27 25 19 19 17 16 17 16 16 18 18 16 14 14 13 13 13 15 18 18 18 17 16 17 19 18 18 19 20 21 22 23 23 24 27 29 33 37 40 42 44
26 27 28 28 29 30 30 30 30 29 30 29 28 28 21 23 23 20 19 19 20 22 22 21 19 14 12 12 14 16 17 17 17 17 16 17 18 19 19 19 19 20 21 21 22 23 23 26 29 32 33 35 39 42
25 26 27 27 27 27 28 28 28 28 27 30 29 23 25 25 21 21 20 21 21 21 22 22 20 18 17 15 15 17 19 20 19 17 16 17 18 18 18 20 21 21 22 22 23 23 24 26 29 32 34 36 39 42
23 24 25 26 27 27 28 28 29 32 34 32 25 27 27 24 24 21 20 22 23 25 26 25 23 23 21 20 17 15 16 16 15 16 16 17 17 17 18 19 20 22 24 24 25 27 27 28 30 31 34 37 39 41
20 21 23 24 25 26 28 28 29 29 25 21 23 24 24 25 25 26 29 30 29 26 25 24 26 24 23 23 21 20 20 19 20 21 20 19 20 21 23 24 24 24 25 26 27 28 30 32 32 33 34 35 38 39
21 22 23 23 24 25 27 27 27 25 22 23 26 27 28 29 32 35 27 22 25 25 25 24 24 24 22 20 19 19 20 23 26 26 23 24 25 26 27 28 31 33 33 33 33 33 33 34 35 38 39 40 41 41
21 23 24 25 26 26 27 29 29 28 28 29 28 31 33 32 30 23 22 24 25 26 25 24 24 22 21 19 18 19 20 24 23 21 21 23 25 28 29 31 31 32 33 33 34 35 35 35 36 39 40 40 42 44
21 22 22 23 25 27 29 29 30 30 30 31 31 32 30 23 15 14 21 22 23 24 24 23 21 20 19 20 21 23 25 23 20 23 25 24 25 25 24 24 25 25 25 27 30 31 33 34 37 37 38 39 41 44
18 18 20 22 24 25 27 29 31 31 32 33 32 27 20 16 14 16 18 21 20 21 19 17 18 18 20 22 23 23 23 23 25 26 23 20 20 22 21 20 22 24 25 23 27 33 33 34 35 37 39 39 41 44
15 19 20 21 21 22 22 24 28 32 34 34 30 25 20 17 17 19 20 21 21 19 18 19 19 23 25 25 23 24 26 30 32 32 27 24 22 23 23 23 23 22 22 23 22 25 26 30 34 37 39 42 42 42
17 17 17 18 21 23 24 24 27 29 29 31 29 24 20 19 19 19 20 21 21 22 24 24 26 25 26 28 28 28 28 29 28 27 25 24 23 23 23 24 24 25 25 26 27 26 27 30 31 33 34 35 37 39
20 20 20 19 19 22 22 21 20 20 23 23 25 24 24 24 23 21 21 22 23 24 26 27 26 26 27 27 25 24 23 21 22 22 20 18 18 17 18 20 21 21 22 23 23 24 25 27 30 31 34 35 36 34
22 21 22 21 20 19 19 22 24 25 27 29 31 33 34 31 29 28 29 31 30 28 26 25 23 21 20 18 17 17 16 15 13 12 14 15 17 17 17 17 18 19 21 22 22 21 23 24 27 28 31 34 35 36
22 22 22 22 21 21 20 20 20 20 21 22 24 26 27 27 27 25 22 21 19 18 17 16 16 15 14 14 14 13 11 10 12 15 17 18 17 18 17 17 15 15 16 18 20 21 22 23 25 26 27 29 31 34
24 24 23 22 21 20 20 19 20 18 18 17 17 16 16 16 15 16 16 15 15 14 14 13 13 13 13 12 11 11 13 15 17 17 17 18 17 17 16 16 17 18 16 16 16 17 19 21 23 26 27 28 29 30
23 23 22 22 21 22 21 21 20 19 18 18 17 17 16 16 15 14 13 14 14 14 13 13 13 12 12 13 14 17 19 20 20 20 21 22 21 20 20 20 19 19 19 19 19 19 20 20 22 24 25 27 29 30
20 19 19 20 19 19 19 19 18 18 18 17 16 15 15 14 13 12 12 11 11 12 12 13 13 14 17 18 20 20 20 21 22 24 24 24 24 24 24 23 23 24 24 23 23 23 23 23 23 23 24 26 28 29
14 15 15 14 13 13 12 13 11 11 10 10 9 9 9 8 9 10 12 13 14 14 15 16 18 19 21 23 24 25 24 24 25 25 25 26 26 27 28 28 28 28 28 27 27 27 27 27 27 28 30 30 31 32
13 13 12 10 10 9 8 7 5 5 6 6 6 6 7 7 9 10 11 14 15 16 17 19 21 23 24 25 26 26 27 28 30 31 31 31 31 31 31 31 31 31 32 32 33 33 33 33 33 33 34 34 34 35
10 8 8 7 6 5 4 3 3 2 2 3 4 5 7 9 11 12 14 16 18 20 21 23 24 26 27 28 29 30 31 32 33 33 33 33 34 34 34 35 35 36 36 37 37 37 37 38 38 38 39 39 40 40
8 8 7 6 4 3 1 1 2 4 5 7 9 11 12 14 15 16 18 19 21 22 24 25 27 28 29 31 32 32 34 35 36 37 37 38 38 38 39 39 39 39 39 39 39 40 40 40 40 41 41 41 42 42
3 2 1 1 2 4 6 8 10 12 14 16 18 19 21 22 24 25 27 28 29 30 32 33 35 35 36 36 37 37 37 37 37 37 37 36 37 38 38 38 38 38 38 39 38 39 39 39 39 40 40 41 42 42
5 6 8 10 11 13 16 18 20 21 23 25 26 28 29 31 32 33 34 34 35 35 35 35 36 36 36 36 36 35 36 36 36 36 36 36 36 35 36 36 36 35 35 36 36 36 36 37 37 38 38 38 39 40
14 16 18 19 21 22 23 23 24 26 26 28 30 32 33 33 34 34 35 35 35 35 34 34 35 35 35 36 36 36 36 35 35 34 34 34 33 33 33 33 33 33 33 34 34 35 35 36 36 37 38 38 39 39
22 23 24 25 26 27 28 28 28 28 29 30 30 30 30 31 31 31 32 32 32 32 32 33 33 34 34 34 34 34 34 34 33 33 33 32 32 32 32 32 32 32 32 32 33 34 34 34 34 34 35 36 36 36

GFSWCAN_250_spd_114.txt.gz
Wind_Speed
82 81 80 81 80 78 78 78 76 74 71 69 64 60 58 56 55 56 49 43 36 32 28 23 23 20 18 16 16 15 16 17 15 14 16 18 20 22 24 25 24 26 26 28 31 28 28 31 33 36 40 41 40 42
83 82 80 82 81 79 78 78 75 71 69 65 61 56 53 51 52 50 44 37 32 28 26 20 18 16 12 10 11 13 15 16 14 16 18 18 19 20 21 22 21 21 21 22 24 26 26 28 29 32 35 35 32 34
80 80 78 79 79 78 76 73 70 68 65 62 57 53 50 49 48 44 41 30 29 25 21 19 14 13 12 10 12 13 14 14 17 19 19 18 18 17 15 14 16 16 18 20 21 22 23 27 29 29 30 30 31 40
76 75 74 75 75 73 72 70 68 65 63 59 54 50 45 44 44 39 36 24 26 23 20 15 13 14 12 10 9 9 12 14 14 15 16 16 13 13 13 13 12 13 15 16 19 21 23 25 27 28 28 26 27 37
73 72 72 73 73 72 70 68 65 63 60 55 50 45 41 41 40 36 29 22 24 21 18 13 11 11 10 9 7 8 8 7 7 12 15 16 16 15 15 14 14 15 16 15 16 18 20 21 24 26 27 31 34 38
66 65 67 68 70 67 65 64 60 57 54 49 44 41 38 39 35 31 21 24 21 20 18 13 11 11 10 10 10 10 10 9 9 12 14 16 17 16 18 18 17 16 14 14 13 12 13 15 18 22 26 30 33 37
59 58 58 60 61 57 56 55 53 49 46 44 41 38 37 35 31 25 21 23 19 18 15 12 12 12 11 12 13 14 11 7 8 12 15 15 17 17 17 18 18 18 18 18 19 19 18 19 21 23 25 28 32 36
48 45 45 48 48 48 47 47 46 44 43 40 39 38 32 31 28 21 24 19 19 16 13 11 10 11 11 13 13 12 10 12 13 15 14 15 16 16 16 17 19 20 21 23 22 22 20 21 23 24 26 29 31 34
35 38 40 42 41 40 41 42 41 40 40 41 38 29 29 32 22 23 22 20 18 15 14 13 13 14 14 14 12 11 13 14 14 14 14 16 17 18 18 18 17 17 19 19 19 20 21 21 22 24 27 29 31 35
30 32 34 36 37 38 39 37 37 39 39 32 25 30 35 25 25 25 21 21 19 18 15 14 16 16 16 16 14 15 15 16 15 16 17 17 17 16 15 16 17 17 17 18 20 21 22 23 24 25 29 31 32 34
28 29 30 31 33 35 35 35 33 31 26 26 34 35 27 27 27 23 24 22 20 19 18 18 18 19 19 18 18 16 16 16 16 17 17 18 18 17 17 17 17 18 18 18 19 21 23 24 24 25 28 31 32 34
25 26 28 29 31 32 32 31 28 28 36 38 36 28 28 28 26 27 26 24 20 21 21 22 21 20 18 16 14 14 13 13 14 14 13 14 15 16 17 18 19 20 21 21 22 23 23 24 25 26 28 30 32 34
23 25 26 27 29 29 29 31 36 38 33 29 23 26 28 27 32 32 29 28 30 24 23 25 25 24 23 23 21 18 17 15 14 14 13 15 15 17 17 19 20 22 23 23 24 25 25 26 28 28 29 31 33 34
22 24 25 26 28 29 31 32 30 27 23 25 30 30 31 35 32 28 24 20 20 23 24 24 25 23 23 21 20 20 18 19 17 15 16 17 18 20 21 24 24 24 25 26 26 27 28 29 30 32 32 34 36 37
23 24 24 25 26 28 29 28 26 27 30 32 31 34 35 29 27 21 21 24 24 25 24 23 21 21 21 19 19 19 19 18 13 14 16 19 20 21 21 22 23 24 26 28 28 29 29 29 30 31 33 35 37 39
24 25 26 27 27 27 27 28 30 32 34 34 34 31 26 24 20 21 22 21 21 23 24 24 21 20 20 19 18 17 16 14 16 17 19 19 20 21 22 23 21 22 23 24 26 27 28 30 31 33 34 36 38 40
23 25 25 26 27 29 30 30 31 31 31 32 27 21 19 15 18 21 20 19 18 19 21 19 19 18 18 18 18 17 17 17 18 20 21 21 18 18 21 24 26 27 28 30 30 30 31 32 34 36 36 38 39 40
22 23 26 28 28 26 27 27 28 29 29 23 22 19 16 16 18 20 19 18 18 18 17 18 19 21 22 22 18 18 20 21 19 20 20 19 18 18 18 18 20 21 22 24 26 30 32 34 36 39 38 38 38 39
22 22 22 23 25 28 29 30 31 28 25 21 21 19 18 18 19 19 19 18 18 19 20 20 22 23 20 20 20 19 20 17 18 22 23 22 23 23 20 20 20 21 21 21 22 24 26 26 27 30 34 37 39 41
20 20 22 24 24 24 27 28 26 24 22 17 17 20 20 20 21 23 23 23 22 22 22 22 21 20 20 21 20 19 20 21 21 20 22 20 19 19 19 19 18 18 20 22 22 22 24 25 25 26 27 30 32 34
23 23 22 22 24 24 23 20 18 17 19 20 20 21 21 21 20 20 19 20 21 21 21 20 19 20 19 19 21 22 21 19 18 17 16 16 16 14 15 18 19 19 21 22 23 23 22 23 24 23 23 24 26 28
24 24 24 23 21 23 25 25 25 25 26 27 29 30 27 24 22 20 19 18 18 17 16 16 17 20 21 21 20 18 16 14 14 15 15 14 14 17 17 19 21 22 21 21 21 20 19 20 22 23 24 24 25 27
24 23 22 23 22 21 19 18 18 18 21 22 24 25 24 22 20 20 18 17 18 19 19 20 20 19 18 17 16 15 16 16 16 16 16 18 20 21 21 22 21 21 21 20 20 18 18 19 19 20 21 23 25 27
22 23 22 22 23 23 22 20 19 19 17 16 16 16 17 17 17 17 18 18 17 16 17 18 18 17 17 18 19 19 18 18 18 19 20 21 23 24 24 24 24 25 25 24 23 22 23 23 23 23 23 24 25 27
22 23 21 22 21 20 19 18 18 17 17 16 16 16 16 16 15 15 15 15 16 16 16 17 17 17 19 19 20 20 19 21 23 25 26 26 26 27 26 26 27 27 28 28 28 28 29 29 29 29 29 28 28 29
22 22 21 20 19 18 17 17 16 16 15 14 13 12 13 12 13 13 13 14 15 16 16 18 19 20 20 21 22 24 25 26 27 28 29 30 31 32 31 31 30 31 32 32 33 33 33 33 33 33 33 34 34 35
18 18 18 18 16 15 14 13 12 11 10 8 7 6 6 7 8 10 11 13 15 16 18 19 21 23 25 26 28 29 31 32 32 33 34 35 36 36 36 36 35 35 36 36 36 37 37 37 38 38 39 39 39 39
14 14 14 13 12 11 9 9 8 7 6 5 5 5 7 9 10 12 14 16 17 19 21 23 25 27 28 29 31 32 33 34 35 35 36 36 36 36 36 36 35 35 35 36 36 37 37 38 38 39 39 39 40 41
12 13 12 11 10 9 8 6 5 3 1 1 3 5 7 10 12 14 17 19 21 22 24 26 27 29 30 32 33 34 35 36 37 37 38 38 38 39 39 39 39 39 39 39 39 40 40 41 41 41 42 42 42 43
8 7 6 5 4 4 3 5 6 9 11 13 15 17 19 21 23 25 27 29 30 30 31 32 32 33 34 35 36 36 37 37 38 38 38 38 38 38 38 38 38 38 38 38 38 38 39 39 40 41 42 43 43 44
2 1 2 3 5 7 9 12 14 16 19 21 24 26 28 30 31 32 33 34 35 36 36 36 35 35 34 34 35 34 34 35 35 35 35 35 35 35 35 35 35 36 36 36 36 37 37 37 37 38 39 40 40 41
7 8 9 11 13 16 18 19 20 22 24 26 29 31 31 32 32 33 33 34 34 34 34 34 35 35 35 35 35 35 35 35 34 33 33 32 32 32 32 32 32 32 33 33 34 34 35 36 36 37 37 38 38 38
14 16 18 19 20 23 25 25 26 27 28 29 30 31 31 32 32 32 31 32 33 33 33 34 34 34 34 34 34 34 33 32 32 31 30 30 30 29 29 29 29 30 30 30 31 31 31 32 32 33 33 33 34 34

GFSWCAN_250_spd_117.txt.gz
Wind_Speed
66 66 66 65 64 64 64 64 66 65 64 65 66 65 65 65 61 61 60 57 55 46 41 39 30 27 24 24 22 21 18 16 16 16 16 16 16 13 14 16 15 17 20 21 22 24 24 27 32 37 38 39 42 43
72 70 69 68 67 67 66 67 68 67 69 68 67 66 66 62 56 58 56 53 50 38 38 34 30 25 20 19 19 17 14 12 13 15 14 14 12 10 8 8 10 12 14 16 18 18 20 23 29 31 33 31 30 31
77 76 74 71 72 73 72 71 71 70 71 69 67 66 63 57 52 53 52 49 42 32 36 28 27 22 18 15 14 13 10 10 12 12 10 9 8 8 8 8 9 11 12 13 11 12 16 18 22 25 26 27 24 25
78 77 76 73 73 74 73 72 73 71 71 69 66 61 58 55 49 49 48 45 35 29 32 26 21 20 16 11 9 8 6 5 6 5 5 7 9 10 10 10 12 12 11 12 13 15 17 18 19 20 20 17 20 24
74 74 74 73 72 73 74 72 71 69 67 64 62 60 57 52 46 46 42 40 31 31 25 24 17 15 15 11 6 4 1 2 1 3 4 10 11 11 12 13 12 11 11 9 11 11 13 14 16 16 18 20 22 25
68 69 70 69 69 70 69 68 67 66 65 63 60 57 53 47 43 38 38 35 29 29 22 19 14 14 12 11 8 4 5 4 4 4 7 10 12 15 16 15 13 14 13 13 11 11 11 11 12 14 15 16 18 20
60 62 63 65 66 66 67 66 65 63 62 60 56 53 47 39 36 33 35 32 26 24 20 14 13 12 10 10 9 7 5 8 7 5 8 11 15 16 16 17 15 16 16 16 17 16 15 16 14 13 13 15 16 17
53 55 56 58 58 60 61 60 59 58 56 53 51 45 36 31 34 35 32 28 25 23 17 11 12 10 10 11 11 9 11 11 7 10 12 14 16 17 16 15 15 16 16 18 19 19 16 15 14 14 15 16 16 18
48 49 51 50 49 50 51 50 49 49 49 47 42 34 29 31 40 30 31 26 24 22 14 12 14 14 13 14 15 15 14 10 9 14 16 16 16 16 16 16 15 15 15 15 16 16 17 17 17 17 18 19 18 20
39 40 40 39 41 44 44 44 45 43 42 39 35 29 31 41 36 28 29 25 25 19 13 16 17 16 16 16 16 14 12 13 14 16 17 16 15 16 16 15 14 15 14 14 14 16 17 18 18 18 19 19 20 21
32 32 35 39 41 40 40 39 37 36 33 33 32 36 43 41 28 29 30 27 24 18 17 20 18 18 17 16 14 13 12 11 14 16 15 15 15 15 14 14 15 14 15 17 18 18 19 19 20 20 20 20 21 23
35 35 35 35 35 35 35 34 32 32 36 38 41 42 38 27 29 33 30 29 21 20 21 19 18 16 16 16 13 13 12 11 12 12 14 14 13 13 13 14 14 15 16 16 18 19 19 20 22 22 23 23 23 24
29 29 29 29 30 31 31 31 34 33 32 34 34 30 25 30 35 30 27 21 17 19 19 19 18 18 18 19 18 19 17 15 15 14 15 14 14 15 15 15 16 16 17 18 18 20 21 22 23 24 25 26 26 25
25 27 27 28 27 28 30 31 31 31 31 28 25 27 33 36 29 27 21 19 21 20 17 17 17 20 21 20 20 19 17 15 15 16 16 16 16 17 17 17 17 17 18 19 20 21 22 23 24 25 26 27 29 30
24 25 25 26 27 27 28 29 29 28 28 29 35 37 33 24 24 21 21 23 22 21 20 19 20 20 20 19 18 16 14 12 14 15 16 16 16 14 14 15 16 16 16 17 19 21 22 23 24 25 26 27 28 30
23 23 24 25 25 25 24 25 25 28 31 34 34 27 22 22 21 23 23 21 17 16 16 17 18 17 17 17 16 15 16 17 17 16 16 15 14 13 12 11 14 16 18 20 23 25 27 29 30 31 32 33 33 33
23 23 23 23 23 25 27 28 31 33 31 27 20 19 19 20 22 23 22 19 17 15 15 15 16 16 13 15 16 16 15 15 14 14 15 14 13 13 14 16 19 22 25 26 27 28 30 31 31 31 32 34 35 36
26 27 27 27 25 25 27 28 28 24 19 16 17 19 21 22 24 22 18 16 15 15 15 15 16 18 17 14 13 14 13 12 14 16 16 14 14 14 17 17 17 18 18 18 19 22 25 27 30 33 34 33 32 34
23 22 22 24 26 27 24 22 21 20 22 21 21 21 22 20 18 17 17 15 15 15 15 16 18 16 12 12 14 16 16 16 14 13 16 18 19 17 15 14 14 14 16 16 17 18 19 21 22 24 26 28 30 31
20 21 22 24 24 25 24 22 20 21 24 25 25 23 23 23 22 20 20 18 17 17 16 16 15 13 15 16 17 16 14 13 15 18 21 21 19 15 12 12 13 14 13 13 14 15 17 18 19 21 22 22 23 25
23 23 22 22 22 20 17 18 20 23 25 25 25 25 23 22 20 19 18 19 18 17 16 16 15 15 16 17 17 15 17 20 19 17 16 16 14 13 13 13 14 13 12 14 17 19 20 21 21 21 21 21 21 22
22 22 23 22 21 18 18 19 20 23 25 25 25 26 23 21 17 14 13 12 10 10 11 13 13 14 16 17 19 20 19 17 15 16 16 16 15 16 16 15 14 14 17 19 19 20 21 21 21 20 20 21 22 23
22 22 22 21 20 19 20 22 22 25 26 25 24 21 18 16 15 16 14 12 11 12 13 15 16 17 17 17 17 17 17 17 18 19 19 19 18 17 16 17 18 19 20 21 22 23 23 23 23 22 22 21 21 22
22 23 22 20 19 18 16 16 15 16 16 16 17 17 16 14 12 12 11 12 13 14 14 15 15 15 15 16 17 19 20 21 22 22 21 20 19 21 22 23 23 24 25 25 25 27 28 28 28 28 29 29 28 28
19 20 20 20 19 18 18 17 17 16 15 15 14 14 15 15 14 14 15 15 15 16 16 16 16 17 19 20 20 20 21 22 23 24 25 25 25 26 27 27 27 28 29 30 30 31 31 32 33 34 34 34 34 34
21 20 20 20 19 18 17 16 15 14 13 13 12 12 12 11 11 11 12 12 13 15 16 17 18 19 20 21 23 24 24 25 26 28 28 29 29 30 31 33 34 35 36 36 36 36 37 38 38 37 37 36 36 35
20 20 20 20 19 18 17 16 15 14 13 11 10 9 9 9 9 9 11 12 13 15 17 19 20 22 23 24 25 26 28 29 31 32 33 34 34 35 36 36 37 38 38 39 38 37 37 37 37 38 38 38 38 39
17 17 16 16 15 13 13 11 11 10 8 7 5 4 3 5 6 8 10 12 15 17 19 21 23 25 27 28 29 31 32 34 35 36 36 36 36 37 37 38 38 38 39 39 39 39 39 39 40 40 40 40 40 41
14 14 14 13 13 12 12 10 9 7 6 4 1 2 4 6 10 13 16 19 21 24 25 27 29 30 31 33 34 35 36 37 39 40 40 40 41 41 41 41 41 41 41 41 41 41 41 41 41 41 41 42 42 43
13 13 12 11 10 9 7 5 2 2 4 6 9 11 14 18 21 23 26 28 30 31 32 33 34 34 35 35 35 36 36 36 36 36 36 37 37 37 38 38 38 38 38 38 39 39 39 40 40 40 40 41 41 41
8 7 5 4 2 2 2 4 6 9 12 15 17 20 23 26 28 29 31 32 33 33 34 34 35 35 35 35 34 34 34 34 34 34 34 34 34 34 33 34 34 35 35 36 37 37 38 38 39 39 40 40 41 41
7 6 6 6 7 7 10 12 15 17 19 21 24 26 28 29 30 31 32 32 33 33 33 33 34 34 34 35 35 35 34 34 33 32 32 31 31 30 31 31 31 31 32 32 32 33 34 35 36 36 37 38 38 39
11 10 11 13 13 14 17 20 21 23 24 26 28 30 30 32 33 33 32 32 32 32 32 32 33 32 32 33 33 33 32 31 30 29 29 28 28 28 29 29 28 28 28 29 29 30 30 30 31 31 32 32 33 33

GFSWCAN_250_spd_120.txt.gz
Wind_Speed
65 67 67 66 66 65 64 64 64 62 59 58 59 58 55 55 54 55 57 59 60 55 56 56 51 45 40 29 28 26 23 19 18 17 14 11 12 12 12 13 14 15 16 18 20 21 25 29 32 35 38 41 41 44
63 64 64 64 63 64 64 62 60 58 58 56 55 54 55 54 56 57 58 58 58 54 54 53 46 40 35 24 21 19 17 15 14 12 9 9 9 11 12 12 13 12 13 15 17 18 21 22 25 29 34 35 37 35
65 63 62 62 61 59 58 58 58 57 54 53 55 57 57 57 59 59 57 54 54 55 49 52 42 33 30 19 16 14 13 9 8 7 6 8 9 10 11 12 11 11 11 13 15 17 18 19 19 20 23 25 28 30
71 69 66 64 61 60 60 58 56 56 55 58 59 60 61 59 59 60 55 50 51 53 49 46 36 27 25 18 12 11 10 5 4 5 7 6 7 9 11 11 12 11 9 10 10 13 15 16 17 18 16 18 23 26
75 73 70 68 66 64 63 62 60 62 63 64 64 64 63 60 59 58 51 49 48 49 46 39 32 23 21 18 10 9 9 7 6 8 7 6 7 8 10 10 11 11 11 11 10 7 8 11 12 14 17 19 20 20
72 72 72 70 69 68 68 69 69 68 68 67 67 65 63 60 58 54 51 44 44 45 43 30 27 21 19 15 8 8 10 9 10 11 7 5 8 10 12 12 12 13 13 14 14 13 13 12 14 14 14 14 17 17
70 71 72 72 72 72 72 73 72 70 69 68 66 64 60 58 56 55 45 40 40 42 37 26 21 19 17 12 9 8 11 11 11 9 8 9 9 12 13 15 15 15 14 16 16 14 13 14 14 13 14 14 14 16
66 67 68 69 70 70 70 70 69 68 67 65 63 61 58 57 56 49 39 35 36 41 30 23 17 19 15 13 10 11 11 12 10 9 8 10 11 14 16 15 17 17 18 18 19 19 17 14 14 15 15 14 15 17
58 60 62 64 67 66 66 66 65 64 63 62 60 56 54 55 55 39 32 29 37 37 24 19 17 19 14 13 12 13 13 13 12 11 8 11 14 15 14 15 15 17 16 16 16 16 15 14 14 15 14 14 14 15
51 52 53 56 59 60 60 61 61 60 59 56 52 52 54 56 39 34 28 33 41 28 21 18 21 17 13 13 12 12 12 14 13 12 12 13 14 14 13 13 13 12 11 10 13 14 14 14 14 14 14 14 14 15
43 45 47 50 52 53 53 54 53 51 45 44 49 50 51 47 35 29 33 41 31 22 21 20 21 15 13 14 13 14 15 13 10 11 13 14 14 15 12 13 12 12 12 12 12 12 13 14 14 14 15 15 14 15
39 41 43 44 44 44 44 44 45 44 47 49 45 43 40 35 28 34 41 33 21 21 21 22 18 15 15 15 15 14 14 11 10 12 14 14 13 11 11 12 13 13 13 13 14 14 14 15 16 17 18 19 19 19
35 36 35 36 38 40 40 41 41 42 37 36 34 31 31 27 34 40 31 19 22 25 23 22 17 16 15 15 16 16 15 14 15 16 15 15 15 16 17 16 15 15 15 15 16 17 17 18 19 20 21 21 23 22
33 35 36 36 36 37 37 37 35 32 31 30 29 29 30 36 36 26 19 24 28 25 24 21 18 17 17 17 17 18 17 18 19 18 18 19 19 18 16 15 15 15 14 14 15 15 16 18 19 20 22 23 24 25
26 27 27 28 29 29 29 29 29 31 30 29 29 31 32 29 20 22 28 28 26 25 22 22 22 20 19 18 19 17 18 19 19 19 19 19 18 17 16 16 16 16 17 19 20 22 23 25 26 27 28 28 28 29
24 24 24 24 24 24 25 27 27 27 28 29 29 26 23 19 24 27 28 27 25 21 21 21 20 21 20 18 18 18 18 20 21 20 20 20 20 20 21 21 20 21 22 24 25 26 28 29 29 29 30 30 31 32
22 23 23 24 24 24 24 25 26 26 26 24 19 15 20 27 27 28 27 24 22 20 20 18 17 16 16 16 16 19 21 21 20 21 21 21 20 19 17 18 20 22 24 25 27 28 27 28 29 29 28 28 29 31
24 25 25 24 23 23 24 25 24 23 19 18 22 25 28 28 28 28 25 21 20 20 21 18 17 17 17 16 17 20 20 20 20 20 20 19 18 19 21 23 25 25 26 26 26 23 21 21 22 24 25 24 23 24
26 28 29 29 29 28 25 22 19 19 22 26 29 28 26 26 24 22 21 20 20 19 21 21 20 20 17 17 18 18 18 19 18 18 19 20 22 25 27 28 28 27 26 24 21 20 20 19 18 19 22 22 22 23
26 27 27 27 27 27 27 25 25 28 29 31 30 29 27 24 22 21 22 22 21 20 20 19 16 15 16 16 17 17 17 17 17 17 20 25 27 28 28 26 25 26 26 21 18 18 16 16 17 18 19 19 20 22
24 23 24 26 26 28 31 34 34 32 29 27 27 26 24 22 21 21 21 20 18 16 15 14 14 14 13 14 15 17 17 18 19 24 27 28 27 26 24 23 23 24 22 19 20 19 18 18 19 19 19 21 21 21
24 25 24 26 28 29 30 30 29 28 27 24 23 22 20 18 16 16 15 12 9 7 7 8 9 11 12 15 17 19 21 23 25 26 25 24 23 22 21 21 21 21 21 21 21 20 20 21 21 21 22 23 22 22
20 21 23 25 27 28 30 30 29 28 25 22 19 15 15 14 13 13 13 12 11 11 10 10 11 13 15 19 21 23 25 26 25 24 23 22 21 21 21 22 23 24 24 24 24 24 25 25 26 26 26 26 26 26
19 18 20 22 22 23 25 23 22 21 18 17 17 16 13 11 9 9 10 10 9 9 10 13 16 18 21 22 23 23 22 21 21 21 20 20 21 23 24 26 27 27 28 28 29 29 29 29 30 30 31 31 31 31
21 21 21 20 21 22 21 20 20 21 18 17 17 18 17 16 15 14 13 12 13 14 16 17 16 15 15 16 17 18 19 20 21 22 24 25 25 26 27 28 29 30 32 33 33 33 33 33 34 34 34 34 34 34
18 18 17 17 17 17 17 18 18 18 17 15 15 15 15 14 14 13 13 13 13 12 11 12 14 15 17 19 20 22 23 24 26 27 28 29 29 30 31 32 33 33 34 35 36 36 36 37 37 36 36 36 37 37
19 19 18 17 17 16 16 16 15 14 14 14 13 12 12 11 10 9 9 9 11 13 14 16 18 21 22 23 24 25 26 27 28 28 29 30 31 32 33 34 34 35 35 36 36 36 37 37 37 38 38 38 38 39
17 18 17 17 17 17 16 15 14 13 12 11 10 9 8 7 7 9 11 12 13 15 18 19 21 23 24 26 27 28 29 30 31 32 33 34 35 35 36 36 37 37 38 38 38 38 39 39 40 40 41 42 42 43
17 17 16 16 16 16 16 15 13 12 11 9 7 6 5 6 8 10 13 17 20 22 24 26 28 29 30 31 32 32 33 33 34 35 36 36 37 37 37 38 38 38 38 38 38 39 39 39 39 39 40 40 40 41
16 16 15 16 15 14 13 12 9 6 4 4 5 7 9 12 16 19 22 25 27 28 29 30 31 32 32 32 32 33 33 33 33 32 32 32 33 34 34 35 35 36 36 36 37 38 38 38 39 39 39 39 39 39
15 13 12 10 9 8 7 5 6 6 6 8 10 13 16 20 22 24 27 28 29 30 31 32 32 32 32 33 33 33 33 33 33 32 32 32 31 31 31 32 32 33 34 34 35 35 36 36 37 37 37 38 38 38
11 11 9 9 8 9 10 9 10 10 12 14 17 19 22 24 26 26 28 29 30 30 30 30 31 32 32 32 32 33 33 32 32 31 31 30 29 29 29 29 30 30 31 31 31 32 32 33 33 34 34 34 35 35
12 12 12 12 13 13 14 15 15 16 18 19 21 22 25 27 28 30 30 30 31 32 32 33 33 33 32 31 32 32 31 30 29 28 27 27 27 27 27 27 27 27 27 27 28 28 28 29 29 30 30 31 31 32

GFSWCAN_250_spd_126.txt.gz
Wind_Speed
56 60 66 70 73 78 76 77 73 70 65 64 63 63 59 54 55 54 57 60 61 62 63 62 64 63 58 56 56 58 56 48 44 39 34 31 29 24 20 17 16 17 16 16 16 16 18 23 26 28 30 35 37 38
55 54 57 61 63 67 69 71 70 65 62 62 61 61 55 54 57 54 54 56 56 59 61 60 60 56 53 54 54 54 52 45 38 35 31 28 25 21 18 15 14 14 14 14 14 15 19 20 22 26 29 30 33 35
57 54 53 57 59 61 64 64 67 65 62 59 55 54 53 54 54 53 54 53 55 56 54 56 55 52 51 51 53 52 47 41 33 33 28 26 23 20 16 13 12 12 12 13 12 13 13 15 17 19 22 26 27 30
61 56 54 53 55 56 57 59 60 60 59 58 56 53 53 52 53 53 54 55 53 50 52 51 51 51 49 49 50 49 43 38 32 31 26 23 20 18 13 10 9 11 12 11 11 12 13 14 15 15 18 19 21 25
63 60 56 53 51 52 53 54 56 59 59 57 53 55 55 53 54 52 52 52 51 48 45 48 52 50 48 49 49 45 39 35 30 28 24 22 19 17 12 9 9 11 11 12 13 12 13 14 15 17 20 23 25 28
67 64 60 55 52 50 50 53 55 57 57 57 57 56 56 55 55 53 51 50 48 46 44 47 51 48 48 47 46 42 35 31 28 24 22 21 18 17 12 8 9 10 12 11 12 12 14 13 13 16 17 20 20 21
67 68 65 61 57 53 52 53 55 56 54 55 56 56 55 55 51 51 50 50 48 47 46 48 48 48 47 46 41 37 30 27 25 21 20 19 17 16 13 10 11 13 14 12 12 13 13 14 14 13 13 14 15 16
66 67 66 66 63 59 57 54 54 55 55 57 57 55 55 53 51 50 49 48 48 49 49 48 46 48 48 44 38 34 27 25 22 18 18 18 18 18 14 12 12 13 13 13 12 12 12 12 12 12 13 14 15 16
66 66 65 67 66 65 63 59 57 56 55 54 53 50 50 49 50 49 49 48 50 52 50 43 47 46 48 40 34 32 25 23 19 15 14 18 17 18 14 11 12 11 14 13 12 13 13 15 15 13 15 15 16 18
65 65 65 67 67 66 67 65 62 60 56 53 52 52 51 53 54 50 49 49 53 54 48 41 47 47 46 33 28 27 23 22 18 14 12 16 16 17 13 11 11 12 12 12 11 11 13 13 12 12 13 16 16 17
61 63 64 66 67 65 66 66 63 60 58 57 57 58 58 58 55 52 50 51 51 51 50 42 44 47 45 35 26 27 23 24 21 16 14 16 17 16 14 12 11 11 14 15 13 12 13 15 16 17 18 17 18 18
55 59 63 65 66 64 64 62 61 61 61 62 61 60 60 56 51 48 49 48 51 53 55 40 41 44 42 33 26 26 24 25 20 17 17 17 19 17 16 14 12 14 15 15 16 18 18 18 18 18 18 19 20 21
51 55 59 60 62 62 61 59 61 61 61 61 59 55 53 50 46 44 46 50 51 53 48 44 42 40 37 31 26 26 26 26 22 20 20 18 19 19 17 16 17 18 17 19 20 20 19 19 20 22 23 24 24 25
46 50 52 53 55 56 56 56 59 61 61 57 54 52 51 43 41 47 52 49 49 46 46 38 38 36 31 28 27 27 27 26 25 21 21 19 20 21 20 20 20 21 20 19 20 21 23 24 25 26 26 26 26 24
41 43 44 46 46 48 49 53 56 57 54 50 46 44 43 41 43 45 46 44 42 43 39 40 31 29 28 27 28 28 29 27 23 22 22 22 24 23 22 22 21 20 20 22 23 25 26 26 27 27 27 26 27 27
36 37 39 40 42 44 48 51 49 47 42 40 39 39 41 38 40 41 42 40 37 36 36 34 30 30 28 29 28 28 29 27 26 26 24 23 23 21 21 22 23 24 24 24 24 26 27 26 27 27 27 27 28 28
31 33 35 37 39 42 43 44 44 39 36 37 38 38 36 39 36 34 32 30 31 36 33 27 30 29 28 27 26 27 28 28 29 25 23 22 22 22 22 23 23 25 25 25 27 29 29 28 29 30 29 30 30 30
27 29 30 32 33 34 34 34 34 34 37 39 38 34 31 28 27 26 28 34 36 31 26 28 26 26 26 25 25 27 27 28 27 24 23 24 24 23 23 24 25 26 28 30 31 31 30 30 30 29 27 28 29 27
29 30 32 33 35 35 36 35 36 37 35 31 28 25 23 25 28 31 32 30 25 23 24 24 25 25 27 27 26 28 28 27 26 25 26 26 24 24 25 26 29 31 31 32 32 32 32 31 32 32 31 31 31 30
26 27 28 30 30 31 31 31 28 25 24 24 26 28 31 30 29 27 25 21 22 23 24 24 23 22 22 22 27 29 27 25 25 26 27 27 26 26 26 28 29 31 34 36 35 34 34 34 36 36 35 34 34 34
24 23 21 22 22 23 23 27 29 30 32 32 31 27 25 23 20 20 21 21 20 20 20 19 20 22 24 25 27 27 26 25 25 25 26 27 24 26 30 30 33 35 37 37 37 39 38 35 34 35 34 34 34 34
26 27 27 27 28 29 29 30 30 29 26 24 22 20 19 20 20 18 17 17 17 18 18 18 19 20 20 21 23 24 25 25 26 25 26 28 30 31 32 34 36 37 38 39 37 36 35 33 32 33 34 34 35 36
24 24 25 25 25 25 24 23 21 20 19 19 20 21 20 19 18 17 18 17 18 18 16 16 16 16 16 18 19 21 22 24 26 27 29 31 33 35 36 36 37 37 36 35 35 35 35 35 35 35 35 35 36 38
23 24 23 20 19 18 18 18 19 21 22 22 21 21 21 21 20 19 17 16 15 15 14 14 14 15 16 17 19 21 23 26 29 32 33 34 34 34 34 34 34 34 35 36 36 37 37 37 37 37 37 38 39 39
20 19 19 21 21 21 20 20 21 21 22 23 22 21 20 19 18 16 15 14 14 13 13 14 14 16 18 20 22 25 27 28 29 29 30 31 32 33 35 36 36 37 37 38 38 39 39 40 41 41 41 41 41 42
17 17 18 21 20 20 23 22 20 20 20 20 20 19 18 17 15 13 12 12 12 12 14 16 18 19 21 22 22 23 25 26 28 29 31 33 34 35 36 37 38 38 38 38 39 40 40 40 41 41 42 42 43 43
16 16 16 17 18 17 19 19 18 17 17 17 16 16 14 12 11 12 12 12 13 14 15 17 17 17 19 21 23 25 27 29 31 33 34 36 37 37 38 39 39 39 39 40 40 40 41 41 41 41 41 42 42 43
12 12 14 16 17 16 16 17 17 16 14 14 14 13 12 12 12 12 14 13 14 15 15 16 18 19 22 25 27 30 32 33 35 36 37 38 38 38 39 39 39 39 39 39 39 40 40 41 41 41 41 41 41 41
14 14 15 14 14 14 14 14 15 15 14 13 14 13 13 12 12 12 12 12 13 14 16 19 22 24 26 28 30 32 33 35 37 37 38 38 38 38 39 39 38 38 38 37 37 38 38 38 39 39 39 39 39 40
12 12 12 13 13 13 13 13 13 13 13 12 11 11 12 12 12 12 13 14 16 18 20 22 24 26 28 30 32 33 34 35 36 37 37 37 37 37 37 36 36 36 36 36 36 35 36 36 36 36 36 36 36 36
10 10 11 11 11 11 11 11 11 11 11 11 11 12 12 11 12 14 16 18 19 20 22 25 26 27 29 30 31 32 34 35 35 35 34 34 34 34 33 33 34 34 34 33 33 32 32 32 32 32 32 33 33 33
10 11 11 11 11 11 11 11 10 10 10 10 10 11 12 14 17 19 19 19 21 23 25 26 27 27 31 33 33 33 34 35 34 31 31 31 31 30 30 31 31 31 30 30 30 30 30 30 30 30 30 30 31 31
12 12 12 12 12 12 12 11 11 12 12 13 14 16 17 19 19 21 21 23 24 26 28 28 28 30 32 32 32 32 33 33 31 29 29 30 30 30 30 30 30 29 29 29 29 29 29 29 29 29 29 29 29 30